<?xml version="1.0" encoding="UTF-8" standalone="no" ?>
<gpx xmlns="http://www.topografix.com/GPX/1/1" xmlns:xsi="http://www.w3.org/2001/XMLSchema-instance" xsi:schemaLocation="http://www.topografix.com/GPX/1/1 http://www.topografix.com/GPX/1/1/gpx.xsd" version="1.1" creator="VisuGPX - https://www.visugpx.com">
  <metadata>
    <name>La Grande Traversée du Vercors à VTT - Jour 1</name>
    <desc><![CDATA[
Jour 1]]></desc>
  </metadata>
  <trk>
    <name><![CDATA[La Grande Traversée du Vercors à VTT]]></name>
    <desc><![CDATA[Jour 1]]></desc>
    <extensions>
      <line xmlns="http://www.topografix.com/GPX/gpx_style/0/2">
        <color>ff2600</color>
        <width>5</width>
      </line>
    </extensions>
    <trkseg>
      <trkpt lat="44.96742" lon="5.41555">
        <ele>890.568182</ele>
        <time>2022-07-23T12:48:15.832Z</time>
      </trkpt>
      <trkpt lat="44.96741" lon="5.41561">
        <ele>890.568182</ele>
        <time>2022-07-23T12:48:17.050Z</time>
      </trkpt>
      <trkpt lat="44.96739" lon="5.4157">
        <ele>890.568182</ele>
        <time>2022-07-23T12:48:19.077Z</time>
      </trkpt>
      <trkpt lat="44.96738" lon="5.41581">
        <ele>890.568182</ele>
        <time>2022-07-23T12:48:21.277Z</time>
      </trkpt>
      <trkpt lat="44.96729" lon="5.41628">
        <ele>890.568182</ele>
        <time>2022-07-23T12:48:31.415Z</time>
      </trkpt>
      <trkpt lat="44.96719" lon="5.41661">
        <ele>890.568182</ele>
        <time>2022-07-23T12:48:39.005Z</time>
      </trkpt>
      <trkpt lat="44.96708" lon="5.41698">
        <ele>891.45991</ele>
        <time>2022-07-23T12:48:47.844Z</time>
      </trkpt>
      <trkpt lat="44.96698" lon="5.41733">
        <ele>892.889725</ele>
        <time>2022-07-23T12:49:00.103Z</time>
      </trkpt>
      <trkpt lat="44.96688" lon="5.41768">
        <ele>894.301108</ele>
        <time>2022-07-23T12:49:12.337Z</time>
      </trkpt>
      <trkpt lat="44.96661" lon="5.41853">
        <ele>897.787311</ele>
        <time>2022-07-23T12:49:46.982Z</time>
      </trkpt>
      <trkpt lat="44.96644" lon="5.4188">
        <ele>899.140475</ele>
        <time>2022-07-23T12:49:58.545Z</time>
      </trkpt>
      <trkpt lat="44.96645" lon="5.41891">
        <ele>899.560494</ele>
        <time>2022-07-23T12:50:05.296Z</time>
      </trkpt>
      <trkpt lat="44.96642" lon="5.41898">
        <ele>899.889785</ele>
        <time>2022-07-23T12:50:08.372Z</time>
      </trkpt>
      <trkpt lat="44.96613" lon="5.41948">
        <ele>900.449524</ele>
        <time>2022-07-23T12:50:27.746Z</time>
      </trkpt>
      <trkpt lat="44.96598" lon="5.41982">
        <ele>900.678007</ele>
        <time>2022-07-23T12:50:39.229Z</time>
      </trkpt>
      <trkpt lat="44.9656" lon="5.42076">
        <ele>901.307585</ele>
        <time>2022-07-23T12:50:56.902Z</time>
      </trkpt>
      <trkpt lat="44.9655" lon="5.421">
        <ele>901.467362</ele>
        <time>2022-07-23T12:50:59.383Z</time>
      </trkpt>
      <trkpt lat="44.9654" lon="5.42135">
        <ele>900.313766</ele>
        <time>2022-07-23T12:51:03.141Z</time>
      </trkpt>
      <trkpt lat="44.96537" lon="5.42171">
        <ele>897.850821</ele>
        <time>2022-07-23T12:51:06.351Z</time>
      </trkpt>
      <trkpt lat="44.9653" lon="5.42203">
        <ele>895.556092</ele>
        <time>2022-07-23T12:51:09.139Z</time>
      </trkpt>
      <trkpt lat="44.96524" lon="5.42212">
        <ele>894.743354</ele>
        <time>2022-07-23T12:51:10.205Z</time>
      </trkpt>
      <trkpt lat="44.96512" lon="5.42222">
        <ele>893.375937</ele>
        <time>2022-07-23T12:51:11.908Z</time>
      </trkpt>
      <trkpt lat="44.96509" lon="5.42228">
        <ele>892.878125</ele>
        <time>2022-07-23T12:51:12.909Z</time>
      </trkpt>
      <trkpt lat="44.96522" lon="5.42245">
        <ele>891.216434</ele>
        <time>2022-07-23T12:51:16.605Z</time>
      </trkpt>
      <trkpt lat="44.96522" lon="5.42265">
        <ele>889.803555</ele>
        <time>2022-07-23T12:51:19.665Z</time>
      </trkpt>
      <trkpt lat="44.96518" lon="5.42292">
        <ele>887.967793</ele>
        <time>2022-07-23T12:51:23.543Z</time>
      </trkpt>
      <trkpt lat="44.96501" lon="5.42336">
        <ele>884.527985</ele>
        <time>2022-07-23T12:51:31.027Z</time>
      </trkpt>
      <trkpt lat="44.96479" lon="5.42427">
        <ele>879.507665</ele>
        <time>2022-07-23T12:51:45.546Z</time>
      </trkpt>
      <trkpt lat="44.96452" lon="5.42498">
        <ele>875.332331</ele>
        <time>2022-07-23T12:51:58.584Z</time>
      </trkpt>
      <trkpt lat="44.96379" lon="5.42647">
        <ele>868.289522</ele>
        <time>2022-07-23T12:52:30.780Z</time>
      </trkpt>
      <trkpt lat="44.96364" lon="5.42644">
        <ele>867.669387</ele>
        <time>2022-07-23T12:52:34.820Z</time>
      </trkpt>
      <trkpt lat="44.96343" lon="5.42646">
        <ele>866.84743</ele>
        <time>2022-07-23T12:52:40.077Z</time>
      </trkpt>
      <trkpt lat="44.96323" lon="5.42651">
        <ele>866.045984</ele>
        <time>2022-07-23T12:52:45.252Z</time>
      </trkpt>
      <trkpt lat="44.96309" lon="5.42691">
        <ele>864.812591</ele>
        <time>2022-07-23T12:52:53.137Z</time>
      </trkpt>
      <trkpt lat="44.96288" lon="5.42786">
        <ele>859.471805</ele>
        <time>2022-07-23T12:53:10.460Z</time>
      </trkpt>
      <trkpt lat="44.96274" lon="5.42817">
        <ele>857.080068</ele>
        <time>2022-07-23T12:53:16.402Z</time>
      </trkpt>
      <trkpt lat="44.96259" lon="5.42923">
        <ele>850.08838</ele>
        <time>2022-07-23T12:53:32.686Z</time>
      </trkpt>
      <trkpt lat="44.96228" lon="5.42931">
        <ele>847.032414</ele>
        <time>2022-07-23T12:53:39.088Z</time>
      </trkpt>
      <trkpt lat="44.96116" lon="5.43013">
        <ele>828.177215</ele>
        <time>2022-07-23T12:54:04.488Z</time>
      </trkpt>
      <trkpt lat="44.96092" lon="5.43038">
        <ele>823.797297</ele>
        <time>2022-07-23T12:54:10.343Z</time>
      </trkpt>
      <trkpt lat="44.96098" lon="5.43095">
        <ele>818.184613</ele>
        <time>2022-07-23T12:54:18.584Z</time>
      </trkpt>
      <trkpt lat="44.96085" lon="5.43169">
        <ele>811.365079</ele>
        <time>2022-07-23T12:54:29.857Z</time>
      </trkpt>
      <trkpt lat="44.96051" lon="5.43231">
        <ele>804.383826</ele>
        <time>2022-07-23T12:54:41.540Z</time>
      </trkpt>
      <trkpt lat="44.9606" lon="5.43308">
        <ele>797.35275</ele>
        <time>2022-07-23T12:54:53.157Z</time>
      </trkpt>
      <trkpt lat="44.96055" lon="5.43369">
        <ele>791.216025</ele>
        <time>2022-07-23T12:55:01.932Z</time>
      </trkpt>
      <trkpt lat="44.96067" lon="5.43486">
        <ele>779.356708</ele>
        <time>2022-07-23T12:55:18.980Z</time>
      </trkpt>
      <trkpt lat="44.96065" lon="5.43522">
        <ele>775.74955</ele>
        <time>2022-07-23T12:55:24.031Z</time>
      </trkpt>
      <trkpt lat="44.96051" lon="5.43562">
        <ele>771.647746</ele>
        <time>2022-07-23T12:55:30.380Z</time>
      </trkpt>
      <trkpt lat="44.96045" lon="5.43591">
        <ele>769.544384</ele>
        <time>2022-07-23T12:55:34.922Z</time>
      </trkpt>
      <trkpt lat="44.96012" lon="5.4361">
        <ele>766.067434</ele>
        <time>2022-07-23T12:55:42.250Z</time>
      </trkpt>
      <trkpt lat="44.96007" lon="5.43628">
        <ele>764.766684</ele>
        <time>2022-07-23T12:55:44.896Z</time>
      </trkpt>
      <trkpt lat="44.95993" lon="5.43634">
        <ele>763.339779</ele>
        <time>2022-07-23T12:55:46.826Z</time>
      </trkpt>
      <trkpt lat="44.95955" lon="5.43632">
        <ele>759.603149</ele>
        <time>2022-07-23T12:55:51.793Z</time>
      </trkpt>
      <trkpt lat="44.95922" lon="5.43639">
        <ele>756.360638</ele>
        <time>2022-07-23T12:55:56.570Z</time>
      </trkpt>
      <trkpt lat="44.95838" lon="5.43672">
        <ele>754.016557</ele>
        <time>2022-07-23T12:56:09.656Z</time>
      </trkpt>
      <trkpt lat="44.95793" lon="5.43669">
        <ele>753.483945</ele>
        <time>2022-07-23T12:56:17.944Z</time>
      </trkpt>
      <trkpt lat="44.95786" lon="5.4367">
        <ele>753.398293</ele>
        <time>2022-07-23T12:56:19.298Z</time>
      </trkpt>
      <trkpt lat="44.95783" lon="5.43675">
        <ele>753.345481</ele>
        <time>2022-07-23T12:56:20.160Z</time>
      </trkpt>
      <trkpt lat="44.95729" lon="5.43659">
        <ele>752.944958</ele>
        <time>2022-07-23T12:56:34.052Z</time>
      </trkpt>
      <trkpt lat="44.95693" lon="5.43645">
        <ele>755.225303</ele>
        <time>2022-07-23T12:56:47.675Z</time>
      </trkpt>
      <trkpt lat="44.9569" lon="5.43664">
        <ele>756.042469</ele>
        <time>2022-07-23T12:56:52.573Z</time>
      </trkpt>
      <trkpt lat="44.9569" lon="5.43692">
        <ele>757.242303</ele>
        <time>2022-07-23T12:57:01.222Z</time>
      </trkpt>
      <trkpt lat="44.95696" lon="5.43726">
        <ele>758.75195</ele>
        <time>2022-07-23T12:57:13.892Z</time>
      </trkpt>
      <trkpt lat="44.95699" lon="5.43743">
        <ele>759.508236</ele>
        <time>2022-07-23T12:57:22.329Z</time>
      </trkpt>
      <trkpt lat="44.95701" lon="5.43771">
        <ele>760.677665</ele>
        <time>2022-07-23T12:57:33.955Z</time>
      </trkpt>
      <trkpt lat="44.95697" lon="5.43775">
        <ele>760.990847</ele>
        <time>2022-07-23T12:57:37.189Z</time>
      </trkpt>
      <trkpt lat="44.95691" lon="5.43803">
        <ele>762.215857</ele>
        <time>2022-07-23T12:57:53.193Z</time>
      </trkpt>
      <trkpt lat="44.95682" lon="5.43823">
        <ele>763.25216</ele>
        <time>2022-07-23T12:58:04.635Z</time>
      </trkpt>
      <trkpt lat="44.95676" lon="5.43872">
        <ele>764.975281</ele>
        <time>2022-07-23T12:58:26.949Z</time>
      </trkpt>
      <trkpt lat="44.95665" lon="5.43905">
        <ele>766.173968</ele>
        <time>2022-07-23T12:58:41.739Z</time>
      </trkpt>
      <trkpt lat="44.95655" lon="5.43924">
        <ele>766.940974</ele>
        <time>2022-07-23T12:58:52.460Z</time>
      </trkpt>
      <trkpt lat="44.95647" lon="5.43935">
        <ele>767.480192</ele>
        <time>2022-07-23T12:58:58.378Z</time>
      </trkpt>
      <trkpt lat="44.9562" lon="5.43989">
        <ele>769.657447</ele>
        <time>2022-07-23T12:59:24.183Z</time>
      </trkpt>
      <trkpt lat="44.95612" lon="5.43985">
        <ele>770.059431</ele>
        <time>2022-07-23T12:59:26.955Z</time>
      </trkpt>
      <trkpt lat="44.95602" lon="5.43975">
        <ele>770.603668</ele>
        <time>2022-07-23T12:59:28.800Z</time>
      </trkpt>
      <trkpt lat="44.95592" lon="5.43942">
        <ele>771.814654</ele>
        <time>2022-07-23T12:59:37.012Z</time>
      </trkpt>
      <trkpt lat="44.95562" lon="5.4391">
        <ele>771.275651</ele>
        <time>2022-07-23T12:59:45.545Z</time>
      </trkpt>
      <trkpt lat="44.95537" lon="5.43881">
        <ele>770.610346</ele>
        <time>2022-07-23T12:59:50.876Z</time>
      </trkpt>
      <trkpt lat="44.95497" lon="5.43872">
        <ele>769.788578</ele>
        <time>2022-07-23T12:59:56.844Z</time>
      </trkpt>
      <trkpt lat="44.95497" lon="5.43872">
        <ele>769.788578</ele>
        <time>2022-07-23T12:59:56.858Z</time>
      </trkpt>
      <trkpt lat="44.95447" lon="5.43868">
        <ele>768.767549</ele>
        <time>2022-07-23T13:00:04.190Z</time>
      </trkpt>
      <trkpt lat="44.95438" lon="5.43876">
        <ele>768.558761</ele>
        <time>2022-07-23T13:00:05.994Z</time>
      </trkpt>
      <trkpt lat="44.95429" lon="5.43877">
        <ele>768.374422</ele>
        <time>2022-07-23T13:00:07.430Z</time>
      </trkpt>
      <trkpt lat="44.95381" lon="5.4385">
        <ele>768.122523</ele>
        <time>2022-07-23T13:00:16.237Z</time>
      </trkpt>
      <trkpt lat="44.95363" lon="5.43843">
        <ele>768.052564</ele>
        <time>2022-07-23T13:00:23.202Z</time>
      </trkpt>
      <trkpt lat="44.95328" lon="5.4384">
        <ele>767.919647</ele>
        <time>2022-07-23T13:00:34.904Z</time>
      </trkpt>
      <trkpt lat="44.95285" lon="5.43825">
        <ele>767.750602</ele>
        <time>2022-07-23T13:00:51.250Z</time>
      </trkpt>
      <trkpt lat="44.95187" lon="5.43801">
        <ele>767.049482</ele>
        <time>2022-07-23T13:01:22.305Z</time>
      </trkpt>
      <trkpt lat="44.95161" lon="5.43791">
        <ele>766.818867</ele>
        <time>2022-07-23T13:01:29.999Z</time>
      </trkpt>
      <trkpt lat="44.95134" lon="5.43769">
        <ele>766.546895</ele>
        <time>2022-07-23T13:01:38.847Z</time>
      </trkpt>
      <trkpt lat="44.95038" lon="5.437">
        <ele>765.652909</ele>
        <time>2022-07-23T13:02:09.359Z</time>
      </trkpt>
      <trkpt lat="44.95" lon="5.43693">
        <ele>765.34951</ele>
        <time>2022-07-23T13:02:20.373Z</time>
      </trkpt>
      <trkpt lat="44.94946" lon="5.43665">
        <ele>764.902411</ele>
        <time>2022-07-23T13:02:37.610Z</time>
      </trkpt>
      <trkpt lat="44.94928" lon="5.4366">
        <ele>764.759558</ele>
        <time>2022-07-23T13:02:43.366Z</time>
      </trkpt>
      <trkpt lat="44.94895" lon="5.43666">
        <ele>764.899848</ele>
        <time>2022-07-23T13:02:54.610Z</time>
      </trkpt>
      <trkpt lat="44.94848" lon="5.43664">
        <ele>765.51092</ele>
        <time>2022-07-23T13:03:12.082Z</time>
      </trkpt>
      <trkpt lat="44.94765" lon="5.43665">
        <ele>766.592248</ele>
        <time>2022-07-23T13:03:44.676Z</time>
      </trkpt>
      <trkpt lat="44.9471" lon="5.43672">
        <ele>768.311613</ele>
        <time>2022-07-23T13:04:06.168Z</time>
      </trkpt>
      <trkpt lat="44.94664" lon="5.43671">
        <ele>770.713793</ele>
        <time>2022-07-23T13:04:30.086Z</time>
      </trkpt>
      <trkpt lat="44.94628" lon="5.43685">
        <ele>772.711181</ele>
        <time>2022-07-23T13:04:55.697Z</time>
      </trkpt>
      <trkpt lat="44.94598" lon="5.4369">
        <ele>774.289899</ele>
        <time>2022-07-23T13:05:15.585Z</time>
      </trkpt>
      <trkpt lat="44.94543" lon="5.43718">
        <ele>777.7253</ele>
        <time>2022-07-23T13:05:53.351Z</time>
      </trkpt>
      <trkpt lat="44.94546" lon="5.43757">
        <ele>779.801894</ele>
        <time>2022-07-23T13:06:13.495Z</time>
      </trkpt>
      <trkpt lat="44.94521" lon="5.43794">
        <ele>782.526176</ele>
        <time>2022-07-23T13:06:34.855Z</time>
      </trkpt>
      <trkpt lat="44.94528" lon="5.43797">
        <ele>783.068633</ele>
        <time>2022-07-23T13:06:37.445Z</time>
      </trkpt>
      <trkpt lat="44.94558" lon="5.43793">
        <ele>785.382432</ele>
        <time>2022-07-23T13:06:59.552Z</time>
      </trkpt>
      <trkpt lat="44.94517" lon="5.43856">
        <ele>789.944212</ele>
        <time>2022-07-23T13:07:48.593Z</time>
      </trkpt>
      <trkpt lat="44.9447" lon="5.43873">
        <ele>794.839747</ele>
        <time>2022-07-23T13:08:23.237Z</time>
      </trkpt>
      <trkpt lat="44.94228" lon="5.43937">
        <ele>817.35625</ele>
        <time>2022-07-23T13:11:52.835Z</time>
      </trkpt>
      <trkpt lat="44.94185" lon="5.43958">
        <ele>821.046478</ele>
        <time>2022-07-23T13:12:22.539Z</time>
      </trkpt>
      <trkpt lat="44.94048" lon="5.43923">
        <ele>821.63513</ele>
        <time>2022-07-23T13:13:13.972Z</time>
      </trkpt>
      <trkpt lat="44.94029" lon="5.43932">
        <ele>821.460421</ele>
        <time>2022-07-23T13:13:19.208Z</time>
      </trkpt>
      <trkpt lat="44.94012" lon="5.43963">
        <ele>821.220099</ele>
        <time>2022-07-23T13:13:25.992Z</time>
      </trkpt>
      <trkpt lat="44.93852" lon="5.43823">
        <ele>807.087964</ele>
        <time>2022-07-23T13:14:07.912Z</time>
      </trkpt>
      <trkpt lat="44.93811" lon="5.43762">
        <ele>801.268813</ele>
        <time>2022-07-23T13:14:20.339Z</time>
      </trkpt>
      <trkpt lat="44.93712" lon="5.43685">
        <ele>789.964368</ele>
        <time>2022-07-23T13:14:44.545Z</time>
      </trkpt>
      <trkpt lat="44.937" lon="5.43676">
        <ele>788.748225</ele>
        <time>2022-07-23T13:14:47.468Z</time>
      </trkpt>
      <trkpt lat="44.93697" lon="5.43649">
        <ele>787.944623</ele>
        <time>2022-07-23T13:14:51.647Z</time>
      </trkpt>
      <trkpt lat="44.93702" lon="5.43522">
        <ele>784.207591</ele>
        <time>2022-07-23T13:15:13.062Z</time>
      </trkpt>
      <trkpt lat="44.937" lon="5.43505">
        <ele>783.703386</ele>
        <time>2022-07-23T13:15:16.196Z</time>
      </trkpt>
      <trkpt lat="44.93676" lon="5.43478">
        <ele>782.414963</ele>
        <time>2022-07-23T13:15:24.942Z</time>
      </trkpt>
      <trkpt lat="44.93675" lon="5.43474">
        <ele>782.27621</ele>
        <time>2022-07-23T13:15:25.508Z</time>
      </trkpt>
      <trkpt lat="44.93672" lon="5.43465">
        <ele>782.016186</ele>
        <time>2022-07-23T13:15:26.661Z</time>
      </trkpt>
      <trkpt lat="44.93635" lon="5.43449">
        <ele>782.389107</ele>
        <time>2022-07-23T13:15:37.268Z</time>
      </trkpt>
      <trkpt lat="44.93623" lon="5.43426">
        <ele>783.360584</ele>
        <time>2022-07-23T13:15:45.510Z</time>
      </trkpt>
      <trkpt lat="44.93622" lon="5.43411">
        <ele>783.851588</ele>
        <time>2022-07-23T13:15:49.246Z</time>
      </trkpt>
      <trkpt lat="44.93628" lon="5.43363">
        <ele>785.462736</ele>
        <time>2022-07-23T13:16:01.694Z</time>
      </trkpt>
      <trkpt lat="44.93628" lon="5.43345">
        <ele>786.051175</ele>
        <time>2022-07-23T13:16:07.698Z</time>
      </trkpt>
      <trkpt lat="44.93616" lon="5.43328">
        <ele>786.840057</ele>
        <time>2022-07-23T13:16:16.574Z</time>
      </trkpt>
      <trkpt lat="44.93593" lon="5.43316">
        <ele>787.964222</ele>
        <time>2022-07-23T13:16:33.454Z</time>
      </trkpt>
      <trkpt lat="44.93592" lon="5.43309">
        <ele>788.210926</ele>
        <time>2022-07-23T13:16:35.862Z</time>
      </trkpt>
      <trkpt lat="44.93599" lon="5.43287">
        <ele>789.006313</ele>
        <time>2022-07-23T13:16:44.725Z</time>
      </trkpt>
      <trkpt lat="44.93597" lon="5.43275">
        <ele>789.401111</ele>
        <time>2022-07-23T13:16:49.907Z</time>
      </trkpt>
      <trkpt lat="44.936" lon="5.4327">
        <ele>789.59863</ele>
        <time>2022-07-23T13:16:55.004Z</time>
      </trkpt>
      <trkpt lat="44.93614" lon="5.43267">
        <ele>790.289378</ele>
        <time>2022-07-23T13:17:02.847Z</time>
      </trkpt>
      <trkpt lat="44.93636" lon="5.43275">
        <ele>791.314967</ele>
        <time>2022-07-23T13:17:17.309Z</time>
      </trkpt>
      <trkpt lat="44.93646" lon="5.43282">
        <ele>791.866732</ele>
        <time>2022-07-23T13:17:22.062Z</time>
      </trkpt>
      <trkpt lat="44.93655" lon="5.43279">
        <ele>792.293527</ele>
        <time>2022-07-23T13:17:26.725Z</time>
      </trkpt>
      <trkpt lat="44.93648" lon="5.43258">
        <ele>793.046129</ele>
        <time>2022-07-23T13:17:37.448Z</time>
      </trkpt>
      <trkpt lat="44.93646" lon="5.43244">
        <ele>793.524707</ele>
        <time>2022-07-23T13:17:40.232Z</time>
      </trkpt>
      <trkpt lat="44.93646" lon="5.43241">
        <ele>793.620373</ele>
        <time>2022-07-23T13:17:42.118Z</time>
      </trkpt>
      <trkpt lat="44.93649" lon="5.43198">
        <ele>795.038805</ele>
        <time>2022-07-23T13:17:55.006Z</time>
      </trkpt>
      <trkpt lat="44.93651" lon="5.43178">
        <ele>795.690298</ele>
        <time>2022-07-23T13:17:59.433Z</time>
      </trkpt>
      <trkpt lat="44.93651" lon="5.43159">
        <ele>796.340796</ele>
        <time>2022-07-23T13:18:07.279Z</time>
      </trkpt>
      <trkpt lat="44.9364" lon="5.4312">
        <ele>797.704896</ele>
        <time>2022-07-23T13:18:14.249Z</time>
      </trkpt>
      <trkpt lat="44.93632" lon="5.43103">
        <ele>797.841927</ele>
        <time>2022-07-23T13:18:16.760Z</time>
      </trkpt>
      <trkpt lat="44.93607" lon="5.43147">
        <ele>796.332435</ele>
        <time>2022-07-23T13:18:23.592Z</time>
      </trkpt>
      <trkpt lat="44.93601" lon="5.43154">
        <ele>796.033984</ele>
        <time>2022-07-23T13:18:24.863Z</time>
      </trkpt>
      <trkpt lat="44.93591" lon="5.43164">
        <ele>795.581077</ele>
        <time>2022-07-23T13:18:26.528Z</time>
      </trkpt>
      <trkpt lat="44.93588" lon="5.43168">
        <ele>795.416647</ele>
        <time>2022-07-23T13:18:27.107Z</time>
      </trkpt>
      <trkpt lat="44.93563" lon="5.43176">
        <ele>794.469239</ele>
        <time>2022-07-23T13:18:30.453Z</time>
      </trkpt>
      <trkpt lat="44.93559" lon="5.43178">
        <ele>794.282585</ele>
        <time>2022-07-23T13:18:31.091Z</time>
      </trkpt>
      <trkpt lat="44.93552" lon="5.43179">
        <ele>794.043555</ele>
        <time>2022-07-23T13:18:31.908Z</time>
      </trkpt>
      <trkpt lat="44.9353" lon="5.43185">
        <ele>793.167237</ele>
        <time>2022-07-23T13:18:34.912Z</time>
      </trkpt>
      <trkpt lat="44.93511" lon="5.43179">
        <ele>792.4304</ele>
        <time>2022-07-23T13:18:37.429Z</time>
      </trkpt>
      <trkpt lat="44.93494" lon="5.43166">
        <ele>791.723277</ele>
        <time>2022-07-23T13:18:39.809Z</time>
      </trkpt>
      <trkpt lat="44.93482" lon="5.43165">
        <ele>791.268917</ele>
        <time>2022-07-23T13:18:41.350Z</time>
      </trkpt>
      <trkpt lat="44.93466" lon="5.43171">
        <ele>790.621151</ele>
        <time>2022-07-23T13:18:45.127Z</time>
      </trkpt>
      <trkpt lat="44.93419" lon="5.43136">
        <ele>788.553781</ele>
        <time>2022-07-23T13:18:57.620Z</time>
      </trkpt>
      <trkpt lat="44.93419" lon="5.43136">
        <ele>788.553781</ele>
        <time>2022-07-23T13:18:57.631Z</time>
      </trkpt>
      <trkpt lat="44.93386" lon="5.43092">
        <ele>786.781998</ele>
        <time>2022-07-23T13:19:08.806Z</time>
      </trkpt>
      <trkpt lat="44.93345" lon="5.43062">
        <ele>785.012576</ele>
        <time>2022-07-23T13:19:20.935Z</time>
      </trkpt>
      <trkpt lat="44.93343" lon="5.43069">
        <ele>784.812243</ele>
        <time>2022-07-23T13:19:21.908Z</time>
      </trkpt>
      <trkpt lat="44.93339" lon="5.43092">
        <ele>784.293667</ele>
        <time>2022-07-23T13:19:25.134Z</time>
      </trkpt>
      <trkpt lat="44.93333" lon="5.43099">
        <ele>784.352353</ele>
        <time>2022-07-23T13:19:26.889Z</time>
      </trkpt>
      <trkpt lat="44.93325" lon="5.43099">
        <ele>784.412205</ele>
        <time>2022-07-23T13:19:28.925Z</time>
      </trkpt>
      <trkpt lat="44.93301" lon="5.43087">
        <ele>784.608011</ele>
        <time>2022-07-23T13:19:34.232Z</time>
      </trkpt>
      <trkpt lat="44.93261" lon="5.43073">
        <ele>784.929589</ele>
        <time>2022-07-23T13:19:44.073Z</time>
      </trkpt>
      <trkpt lat="44.93208" lon="5.43042">
        <ele>785.377168</ele>
        <time>2022-07-23T13:19:58.633Z</time>
      </trkpt>
      <trkpt lat="44.93198" lon="5.4304">
        <ele>785.453684</ele>
        <time>2022-07-23T13:20:01.879Z</time>
      </trkpt>
      <trkpt lat="44.93184" lon="5.4302">
        <ele>785.610215</ele>
        <time>2022-07-23T13:20:10.357Z</time>
      </trkpt>
      <trkpt lat="44.93125" lon="5.43">
        <ele>786.753596</ele>
        <time>2022-07-23T13:20:36.280Z</time>
      </trkpt>
      <trkpt lat="44.93069" lon="5.43002">
        <ele>787.885063</ele>
        <time>2022-07-23T13:21:00.576Z</time>
      </trkpt>
      <trkpt lat="44.92961" lon="5.43022">
        <ele>789.901058</ele>
        <time>2022-07-23T13:21:44.979Z</time>
      </trkpt>
      <trkpt lat="44.92917" lon="5.4301">
        <ele>790.581418</ele>
        <time>2022-07-23T13:22:02.440Z</time>
      </trkpt>
      <trkpt lat="44.92889" lon="5.43006">
        <ele>791.022372</ele>
        <time>2022-07-23T13:22:13.581Z</time>
      </trkpt>
      <trkpt lat="44.9284" lon="5.42965">
        <ele>791.897584</ele>
        <time>2022-07-23T13:22:35.192Z</time>
      </trkpt>
      <trkpt lat="44.92796" lon="5.42964">
        <ele>792.805323</ele>
        <time>2022-07-23T13:22:53.306Z</time>
      </trkpt>
      <trkpt lat="44.92737" lon="5.42979">
        <ele>794.117117</ele>
        <time>2022-07-23T13:23:16.466Z</time>
      </trkpt>
      <trkpt lat="44.92686" lon="5.42935">
        <ele>795.445111</ele>
        <time>2022-07-23T13:23:40.074Z</time>
      </trkpt>
      <trkpt lat="44.92683" lon="5.4293">
        <ele>795.533173</ele>
        <time>2022-07-23T13:23:44.195Z</time>
      </trkpt>
      <trkpt lat="44.92691" lon="5.42917">
        <ele>795.799775</ele>
        <time>2022-07-23T13:23:47.377Z</time>
      </trkpt>
      <trkpt lat="44.9271" lon="5.42858">
        <ele>798.791473</ele>
        <time>2022-07-23T13:24:05.204Z</time>
      </trkpt>
      <trkpt lat="44.92718" lon="5.42834">
        <ele>800.270332</ele>
        <time>2022-07-23T13:24:15.534Z</time>
      </trkpt>
      <trkpt lat="44.92738" lon="5.42769">
        <ele>804.253507</ele>
        <time>2022-07-23T13:24:46.080Z</time>
      </trkpt>
      <trkpt lat="44.92749" lon="5.42705">
        <ele>807.908599</ele>
        <time>2022-07-23T13:25:25.261Z</time>
      </trkpt>
      <trkpt lat="44.92783" lon="5.42694">
        <ele>810.879525</ele>
        <time>2022-07-23T13:25:54.624Z</time>
      </trkpt>
      <trkpt lat="44.92802" lon="5.42639">
        <ele>815.478998</ele>
        <time>2022-07-23T13:26:31.994Z</time>
      </trkpt>
      <trkpt lat="44.92783" lon="5.42613">
        <ele>818.338995</ele>
        <time>2022-07-23T13:26:52.959Z</time>
      </trkpt>
      <trkpt lat="44.92777" lon="5.42595">
        <ele>819.852437</ele>
        <time>2022-07-23T13:27:03.513Z</time>
      </trkpt>
      <trkpt lat="44.92781" lon="5.4259">
        <ele>820.467788</ele>
        <time>2022-07-23T13:27:07.906Z</time>
      </trkpt>
      <trkpt lat="44.92788" lon="5.42589">
        <ele>821.175235</ele>
        <time>2022-07-23T13:27:12.591Z</time>
      </trkpt>
      <trkpt lat="44.92813" lon="5.42589">
        <ele>823.822327</ele>
        <time>2022-07-23T13:27:31.244Z</time>
      </trkpt>
      <trkpt lat="44.92813" lon="5.42589">
        <ele>823.822327</ele>
        <time>2022-07-23T13:27:31.249Z</time>
      </trkpt>
      <trkpt lat="44.92819" lon="5.42582">
        <ele>824.689462</ele>
        <time>2022-07-23T13:27:37.431Z</time>
      </trkpt>
      <trkpt lat="44.92818" lon="5.42576">
        <ele>825.146644</ele>
        <time>2022-07-23T13:27:40.439Z</time>
      </trkpt>
      <trkpt lat="44.92801" lon="5.42568">
        <ele>827.151255</ele>
        <time>2022-07-23T13:27:54.374Z</time>
      </trkpt>
      <trkpt lat="44.92787" lon="5.42559">
        <ele>828.71203</ele>
        <time>2022-07-23T13:28:05.485Z</time>
      </trkpt>
      <trkpt lat="44.92755" lon="5.4253">
        <ele>832.69172</ele>
        <time>2022-07-23T13:28:31.225Z</time>
      </trkpt>
      <trkpt lat="44.92717" lon="5.42503">
        <ele>837.133257</ele>
        <time>2022-07-23T13:29:02.002Z</time>
      </trkpt>
      <trkpt lat="44.92673" lon="5.42489">
        <ele>841.755315</ele>
        <time>2022-07-23T13:29:33.924Z</time>
      </trkpt>
      <trkpt lat="44.92657" lon="5.42495">
        <ele>843.467846</ele>
        <time>2022-07-23T13:29:46.173Z</time>
      </trkpt>
      <trkpt lat="44.92616" lon="5.42502">
        <ele>847.698769</ele>
        <time>2022-07-23T13:30:12.934Z</time>
      </trkpt>
      <trkpt lat="44.92602" lon="5.42497">
        <ele>849.24381</ele>
        <time>2022-07-23T13:30:24.018Z</time>
      </trkpt>
      <trkpt lat="44.92584" lon="5.42492">
        <ele>851.316815</ele>
        <time>2022-07-23T13:30:39.622Z</time>
      </trkpt>
      <trkpt lat="44.92544" lon="5.42492">
        <ele>855.745227</ele>
        <time>2022-07-23T13:31:12.007Z</time>
      </trkpt>
      <trkpt lat="44.9251" lon="5.42475">
        <ele>859.639174</ele>
        <time>2022-07-23T13:31:39.003Z</time>
      </trkpt>
      <trkpt lat="44.92494" lon="5.42474">
        <ele>861.412272</ele>
        <time>2022-07-23T13:31:50.761Z</time>
      </trkpt>
      <trkpt lat="44.9247" lon="5.42485">
        <ele>864.220599</ele>
        <time>2022-07-23T13:32:10.403Z</time>
      </trkpt>
      <trkpt lat="44.92438" lon="5.42484">
        <ele>867.841852</ele>
        <time>2022-07-23T13:32:37.523Z</time>
      </trkpt>
      <trkpt lat="44.924" lon="5.42484">
        <ele>871.873252</ele>
        <time>2022-07-23T13:33:01.523Z</time>
      </trkpt>
      <trkpt lat="44.92345" lon="5.425">
        <ele>877.98414</ele>
        <time>2022-07-23T13:33:37.452Z</time>
      </trkpt>
      <trkpt lat="44.9226" lon="5.4248">
        <ele>887.207112</ele>
        <time>2022-07-23T13:34:47.487Z</time>
      </trkpt>
      <trkpt lat="44.92204" lon="5.42449">
        <ele>894.208114</ele>
        <time>2022-07-23T13:35:35.627Z</time>
      </trkpt>
      <trkpt lat="44.92179" lon="5.42443">
        <ele>897.094933</ele>
        <time>2022-07-23T13:35:57.114Z</time>
      </trkpt>
      <trkpt lat="44.92169" lon="5.42421">
        <ele>899.252353</ele>
        <time>2022-07-23T13:36:15.623Z</time>
      </trkpt>
      <trkpt lat="44.92131" lon="5.42397">
        <ele>904.019151</ele>
        <time>2022-07-23T13:36:51.451Z</time>
      </trkpt>
      <trkpt lat="44.92094" lon="5.42327">
        <ele>910.178056</ele>
        <time>2022-07-23T13:37:42.336Z</time>
      </trkpt>
      <trkpt lat="44.92059" lon="5.42306">
        <ele>913.17036</ele>
        <time>2022-07-23T13:38:12.834Z</time>
      </trkpt>
      <trkpt lat="44.92023" lon="5.42298">
        <ele>916.036438</ele>
        <time>2022-07-23T13:38:36.696Z</time>
      </trkpt>
      <trkpt lat="44.92011" lon="5.42293">
        <ele>916.97843</ele>
        <time>2022-07-23T13:38:44.699Z</time>
      </trkpt>
      <trkpt lat="44.92008" lon="5.42288">
        <ele>917.353372</ele>
        <time>2022-07-23T13:38:47.730Z</time>
      </trkpt>
      <trkpt lat="44.92008" lon="5.42282">
        <ele>917.709105</ele>
        <time>2022-07-23T13:38:50.849Z</time>
      </trkpt>
      <trkpt lat="44.92012" lon="5.42277">
        <ele>918.118462</ele>
        <time>2022-07-23T13:38:54.530Z</time>
      </trkpt>
      <trkpt lat="44.92104" lon="5.42231">
        <ele>925.807832</ele>
        <time>2022-07-23T13:39:56.170Z</time>
      </trkpt>
      <trkpt lat="44.92174" lon="5.42214">
        <ele>931.372294</ele>
        <time>2022-07-23T13:40:41.162Z</time>
      </trkpt>
      <trkpt lat="44.92203" lon="5.42217">
        <ele>933.667711</ele>
        <time>2022-07-23T13:41:02.904Z</time>
      </trkpt>
      <trkpt lat="44.9223" lon="5.42202">
        <ele>935.937775</ele>
        <time>2022-07-23T13:41:26.757Z</time>
      </trkpt>
      <trkpt lat="44.92271" lon="5.42193">
        <ele>940.536259</ele>
        <time>2022-07-23T13:42:05.051Z</time>
      </trkpt>
      <trkpt lat="44.92308" lon="5.42169">
        <ele>945.338191</ele>
        <time>2022-07-23T13:42:46.093Z</time>
      </trkpt>
      <trkpt lat="44.9245" lon="5.42134">
        <ele>961.034359</ele>
        <time>2022-07-23T13:44:55.448Z</time>
      </trkpt>
      <trkpt lat="44.92483" lon="5.4212">
        <ele>964.031165</ele>
        <time>2022-07-23T13:45:25.297Z</time>
      </trkpt>
      <trkpt lat="44.92571" lon="5.42118">
        <ele>971.724152</ele>
        <time>2022-07-23T13:46:28.462Z</time>
      </trkpt>
      <trkpt lat="44.92659" lon="5.42097">
        <ele>976.183698</ele>
        <time>2022-07-23T13:47:16.529Z</time>
      </trkpt>
      <trkpt lat="44.92718" lon="5.42114">
        <ele>978.639616</ele>
        <time>2022-07-23T13:47:47.294Z</time>
      </trkpt>
      <trkpt lat="44.92738" lon="5.42126">
        <ele>979.541717</ele>
        <time>2022-07-23T13:47:57.796Z</time>
      </trkpt>
      <trkpt lat="44.92769" lon="5.42136">
        <ele>980.769517</ele>
        <time>2022-07-23T13:48:11.947Z</time>
      </trkpt>
      <trkpt lat="44.92799" lon="5.42159">
        <ele>981.84613</ele>
        <time>2022-07-23T13:48:27.939Z</time>
      </trkpt>
      <trkpt lat="44.92819" lon="5.42166">
        <ele>982.495984</ele>
        <time>2022-07-23T13:48:36.845Z</time>
      </trkpt>
      <trkpt lat="44.92832" lon="5.42167">
        <ele>982.89574</ele>
        <time>2022-07-23T13:48:42.857Z</time>
      </trkpt>
      <trkpt lat="44.92894" lon="5.42184">
        <ele>984.879963</ele>
        <time>2022-07-23T13:49:09.578Z</time>
      </trkpt>
      <trkpt lat="44.92915" lon="5.42187">
        <ele>985.546888</ele>
        <time>2022-07-23T13:49:18.104Z</time>
      </trkpt>
      <trkpt lat="44.92922" lon="5.42193">
        <ele>985.817182</ele>
        <time>2022-07-23T13:49:23.177Z</time>
      </trkpt>
      <trkpt lat="44.92925" lon="5.42192">
        <ele>985.912899</ele>
        <time>2022-07-23T13:49:25.191Z</time>
      </trkpt>
      <trkpt lat="44.92925" lon="5.42184">
        <ele>986.082199</ele>
        <time>2022-07-23T13:49:28.982Z</time>
      </trkpt>
      <trkpt lat="44.92899" lon="5.42171">
        <ele>988.062077</ele>
        <time>2022-07-23T13:49:44.795Z</time>
      </trkpt>
      <trkpt lat="44.92812" lon="5.42103">
        <ele>996.036987</ele>
        <time>2022-07-23T13:50:49.390Z</time>
      </trkpt>
      <trkpt lat="44.92783" lon="5.42063">
        <ele>999.273958</ele>
        <time>2022-07-23T13:51:24.345Z</time>
      </trkpt>
      <trkpt lat="44.92757" lon="5.42043">
        <ele>1002.461282</ele>
        <time>2022-07-23T13:51:50.577Z</time>
      </trkpt>
      <trkpt lat="44.92709" lon="5.41991">
        <ele>1011.530491</ele>
        <time>2022-07-23T13:52:55.372Z</time>
      </trkpt>
      <trkpt lat="44.92496" lon="5.41855">
        <ele>1044.514146</ele>
        <time>2022-07-23T13:57:16.761Z</time>
      </trkpt>
      <trkpt lat="44.92429" lon="5.41825">
        <ele>1052.772122</ele>
        <time>2022-07-23T13:58:11.530Z</time>
      </trkpt>
      <trkpt lat="44.92381" lon="5.41817">
        <ele>1055.729474</ele>
        <time>2022-07-23T13:58:41.032Z</time>
      </trkpt>
      <trkpt lat="44.92354" lon="5.41809">
        <ele>1057.419396</ele>
        <time>2022-07-23T13:58:56.114Z</time>
      </trkpt>
      <trkpt lat="44.92324" lon="5.41808">
        <ele>1059.224627</ele>
        <time>2022-07-23T13:59:10.457Z</time>
      </trkpt>
      <trkpt lat="44.923" lon="5.41812">
        <ele>1060.677453</ele>
        <time>2022-07-23T13:59:23.376Z</time>
      </trkpt>
      <trkpt lat="44.92294" lon="5.41808">
        <ele>1061.127573</ele>
        <time>2022-07-23T13:59:27.856Z</time>
      </trkpt>
      <trkpt lat="44.92294" lon="5.41802">
        <ele>1061.391618</ele>
        <time>2022-07-23T13:59:30.342Z</time>
      </trkpt>
      <trkpt lat="44.9234" lon="5.41785">
        <ele>1064.797687</ele>
        <time>2022-07-23T14:00:01.313Z</time>
      </trkpt>
      <trkpt lat="44.92464" lon="5.41759">
        <ele>1074.560412</ele>
        <time>2022-07-23T14:01:33.690Z</time>
      </trkpt>
      <trkpt lat="44.92487" lon="5.41734">
        <ele>1076.840685</ele>
        <time>2022-07-23T14:01:55.890Z</time>
      </trkpt>
      <trkpt lat="44.92544" lon="5.41728">
        <ele>1080.833067</ele>
        <time>2022-07-23T14:02:36.415Z</time>
      </trkpt>
      <trkpt lat="44.92555" lon="5.41715">
        <ele>1081.842017</ele>
        <time>2022-07-23T14:02:45.693Z</time>
      </trkpt>
      <trkpt lat="44.92602" lon="5.41722">
        <ele>1085.214675</ele>
        <time>2022-07-23T14:03:16.145Z</time>
      </trkpt>
      <trkpt lat="44.92635" lon="5.41735">
        <ele>1087.659678</ele>
        <time>2022-07-23T14:03:38.005Z</time>
      </trkpt>
      <trkpt lat="44.92637" lon="5.41726">
        <ele>1088.138144</ele>
        <time>2022-07-23T14:03:41.903Z</time>
      </trkpt>
      <trkpt lat="44.926" lon="5.41693">
        <ele>1091.004059</ele>
        <time>2022-07-23T14:04:11.076Z</time>
      </trkpt>
      <trkpt lat="44.92578" lon="5.41667">
        <ele>1092.778804</ele>
        <time>2022-07-23T14:04:29.374Z</time>
      </trkpt>
      <trkpt lat="44.92577" lon="5.41638">
        <ele>1094.019529</ele>
        <time>2022-07-23T14:04:42.148Z</time>
      </trkpt>
      <trkpt lat="44.92606" lon="5.41606">
        <ele>1096.325978</ele>
        <time>2022-07-23T14:05:07.008Z</time>
      </trkpt>
      <trkpt lat="44.92617" lon="5.41573">
        <ele>1097.918298</ele>
        <time>2022-07-23T14:05:22.388Z</time>
      </trkpt>
      <trkpt lat="44.92622" lon="5.41535">
        <ele>1099.609718</ele>
        <time>2022-07-23T14:05:39.813Z</time>
      </trkpt>
      <trkpt lat="44.9262" lon="5.41439">
        <ele>1102.549498</ele>
        <time>2022-07-23T14:06:17.667Z</time>
      </trkpt>
      <trkpt lat="44.92625" lon="5.41396">
        <ele>1103.700066</ele>
        <time>2022-07-23T14:06:34.358Z</time>
      </trkpt>
      <trkpt lat="44.9263" lon="5.41384">
        <ele>1104.061131</ele>
        <time>2022-07-23T14:06:37.912Z</time>
      </trkpt>
      <trkpt lat="44.92631" lon="5.41372">
        <ele>1104.383548</ele>
        <time>2022-07-23T14:06:42.281Z</time>
      </trkpt>
      <trkpt lat="44.92621" lon="5.41336">
        <ele>1105.397235</ele>
        <time>2022-07-23T14:06:55.408Z</time>
      </trkpt>
      <trkpt lat="44.92621" lon="5.41326">
        <ele>1105.648231</ele>
        <time>2022-07-23T14:06:59.044Z</time>
      </trkpt>
      <trkpt lat="44.92629" lon="5.41311">
        <ele>1106.122751</ele>
        <time>2022-07-23T14:07:04.318Z</time>
      </trkpt>
      <trkpt lat="44.92634" lon="5.4131">
        <ele>1106.339614</ele>
        <time>2022-07-23T14:07:07.505Z</time>
      </trkpt>
      <trkpt lat="44.92642" lon="5.41309">
        <ele>1106.638716</ele>
        <time>2022-07-23T14:07:09.869Z</time>
      </trkpt>
      <trkpt lat="44.92661" lon="5.41319">
        <ele>1107.44053</ele>
        <time>2022-07-23T14:07:19.470Z</time>
      </trkpt>
      <trkpt lat="44.92696" lon="5.41348">
        <ele>1109.563749</ele>
        <time>2022-07-23T14:07:37.764Z</time>
      </trkpt>
      <trkpt lat="44.92718" lon="5.4135">
        <ele>1110.764893</ele>
        <time>2022-07-23T14:07:47.755Z</time>
      </trkpt>
      <trkpt lat="44.92741" lon="5.41359">
        <ele>1112.020822</ele>
        <time>2022-07-23T14:07:59.109Z</time>
      </trkpt>
      <trkpt lat="44.92789" lon="5.41387">
        <ele>1114.798626</ele>
        <time>2022-07-23T14:08:31.943Z</time>
      </trkpt>
      <trkpt lat="44.92805" lon="5.41399">
        <ele>1115.732071</ele>
        <time>2022-07-23T14:08:44.942Z</time>
      </trkpt>
      <trkpt lat="44.9284" lon="5.41417">
        <ele>1118.33785</ele>
        <time>2022-07-23T14:09:13.863Z</time>
      </trkpt>
      <trkpt lat="44.92867" lon="5.41445">
        <ele>1121.435512</ele>
        <time>2022-07-23T14:09:41.193Z</time>
      </trkpt>
      <trkpt lat="44.92874" lon="5.41459">
        <ele>1122.540577</ele>
        <time>2022-07-23T14:09:51.153Z</time>
      </trkpt>
      <trkpt lat="44.92881" lon="5.41484">
        <ele>1124.305556</ele>
        <time>2022-07-23T14:10:07.573Z</time>
      </trkpt>
      <trkpt lat="44.92895" lon="5.41491">
        <ele>1125.665149</ele>
        <time>2022-07-23T14:10:19.785Z</time>
      </trkpt>
      <trkpt lat="44.92916" lon="5.41495">
        <ele>1127.612486</ele>
        <time>2022-07-23T14:10:37.121Z</time>
      </trkpt>
      <trkpt lat="44.92952" lon="5.41514">
        <ele>1131.163027</ele>
        <time>2022-07-23T14:11:06.969Z</time>
      </trkpt>
      <trkpt lat="44.92994" lon="5.41566">
        <ele>1135.436903</ele>
        <time>2022-07-23T14:11:46.889Z</time>
      </trkpt>
      <trkpt lat="44.93002" lon="5.41568">
        <ele>1135.960563</ele>
        <time>2022-07-23T14:11:52.785Z</time>
      </trkpt>
      <trkpt lat="44.93025" lon="5.41564">
        <ele>1137.407742</ele>
        <time>2022-07-23T14:12:08.861Z</time>
      </trkpt>
      <trkpt lat="44.93035" lon="5.41569">
        <ele>1138.070745</ele>
        <time>2022-07-23T14:12:16.286Z</time>
      </trkpt>
      <trkpt lat="44.93075" lon="5.41602">
        <ele>1140.979032</ele>
        <time>2022-07-23T14:12:43.394Z</time>
      </trkpt>
      <trkpt lat="44.93088" lon="5.41606">
        <ele>1141.858541</ele>
        <time>2022-07-23T14:12:51.336Z</time>
      </trkpt>
      <trkpt lat="44.93141" lon="5.4161">
        <ele>1145.261122</ele>
        <time>2022-07-23T14:13:20.644Z</time>
      </trkpt>
      <trkpt lat="44.93173" lon="5.41607">
        <ele>1147.761066</ele>
        <time>2022-07-23T14:13:39.237Z</time>
      </trkpt>
      <trkpt lat="44.93195" lon="5.41612">
        <ele>1149.443379</ele>
        <time>2022-07-23T14:13:49.074Z</time>
      </trkpt>
      <trkpt lat="44.93212" lon="5.41614">
        <ele>1150.773118</ele>
        <time>2022-07-23T14:13:57.187Z</time>
      </trkpt>
      <trkpt lat="44.9321" lon="5.41527">
        <ele>1155.501238</ele>
        <time>2022-07-23T14:14:41.871Z</time>
      </trkpt>
      <trkpt lat="44.93241" lon="5.41421">
        <ele>1164.106012</ele>
        <time>2022-07-23T14:15:53.000Z</time>
      </trkpt>
      <trkpt lat="44.93243" lon="5.41367">
        <ele>1169.286478</ele>
        <time>2022-07-23T14:16:31.554Z</time>
      </trkpt>
      <trkpt lat="44.93269" lon="5.41319">
        <ele>1175.115671</ele>
        <time>2022-07-23T14:17:17.814Z</time>
      </trkpt>
      <trkpt lat="44.93315" lon="5.41251">
        <ele>1184.022423</ele>
        <time>2022-07-23T14:18:30.102Z</time>
      </trkpt>
      <trkpt lat="44.93362" lon="5.41172">
        <ele>1192.251219</ele>
        <time>2022-07-23T14:19:42.919Z</time>
      </trkpt>
      <trkpt lat="44.93362" lon="5.41135">
        <ele>1195.21039</ele>
        <time>2022-07-23T14:20:05.819Z</time>
      </trkpt>
      <trkpt lat="44.93375" lon="5.41105">
        <ele>1197.967631</ele>
        <time>2022-07-23T14:20:26.290Z</time>
      </trkpt>
      <trkpt lat="44.9341" lon="5.41026">
        <ele>1203.931942</ele>
        <time>2022-07-23T14:21:14.376Z</time>
      </trkpt>
      <trkpt lat="44.93427" lon="5.40998">
        <ele>1204.800424</ele>
        <time>2022-07-23T14:21:31.154Z</time>
      </trkpt>
      <trkpt lat="44.93484" lon="5.4097">
        <ele>1206.812197</ele>
        <time>2022-07-23T14:21:59.092Z</time>
      </trkpt>
      <trkpt lat="44.93501" lon="5.40938">
        <ele>1207.762721</ele>
        <time>2022-07-23T14:22:09.611Z</time>
      </trkpt>
      <trkpt lat="44.93555" lon="5.40922">
        <ele>1209.196809</ele>
        <time>2022-07-23T14:22:31.183Z</time>
      </trkpt>
      <trkpt lat="44.93561" lon="5.40923">
        <ele>1209.124265</ele>
        <time>2022-07-23T14:22:32.422Z</time>
      </trkpt>
      <trkpt lat="44.93576" lon="5.40939">
        <ele>1208.872124</ele>
        <time>2022-07-23T14:22:39.674Z</time>
      </trkpt>
      <trkpt lat="44.93605" lon="5.41062">
        <ele>1207.64429</ele>
        <time>2022-07-23T14:23:05.237Z</time>
      </trkpt>
      <trkpt lat="44.93619" lon="5.41078">
        <ele>1207.411084</ele>
        <time>2022-07-23T14:23:10.168Z</time>
      </trkpt>
      <trkpt lat="44.93704" lon="5.4109">
        <ele>1206.157353</ele>
        <time>2022-07-23T14:23:32.845Z</time>
      </trkpt>
      <trkpt lat="44.93722" lon="5.41107">
        <ele>1205.81211</ele>
        <time>2022-07-23T14:23:38.990Z</time>
      </trkpt>
      <trkpt lat="44.93743" lon="5.41082">
        <ele>1205.38412</ele>
        <time>2022-07-23T14:23:46.593Z</time>
      </trkpt>
      <trkpt lat="44.93751" lon="5.41049">
        <ele>1204.99335</ele>
        <time>2022-07-23T14:23:53.798Z</time>
      </trkpt>
      <trkpt lat="44.93774" lon="5.4102">
        <ele>1204.51821</ele>
        <time>2022-07-23T14:24:02.447Z</time>
      </trkpt>
      <trkpt lat="44.93773" lon="5.40973">
        <ele>1204.111638</ele>
        <time>2022-07-23T14:24:12.276Z</time>
      </trkpt>
      <trkpt lat="44.93793" lon="5.4092">
        <ele>1204.301189</ele>
        <time>2022-07-23T14:24:25.166Z</time>
      </trkpt>
      <trkpt lat="44.93824" lon="5.40891">
        <ele>1204.468312</ele>
        <time>2022-07-23T14:24:38.209Z</time>
      </trkpt>
      <trkpt lat="44.93854" lon="5.40889">
        <ele>1204.601757</ele>
        <time>2022-07-23T14:24:49.343Z</time>
      </trkpt>
      <trkpt lat="44.93881" lon="5.40897">
        <ele>1204.72515</ele>
        <time>2022-07-23T14:24:59.554Z</time>
      </trkpt>
      <trkpt lat="44.93881" lon="5.40897">
        <ele>1204.72515</ele>
        <time>2022-07-23T14:24:59.594Z</time>
      </trkpt>
      <trkpt lat="44.93904" lon="5.4088">
        <ele>1204.844798</ele>
        <time>2022-07-23T14:25:09.567Z</time>
      </trkpt>
      <trkpt lat="44.93908" lon="5.40824">
        <ele>1204.466879</ele>
        <time>2022-07-23T14:25:24.270Z</time>
      </trkpt>
      <trkpt lat="44.9392" lon="5.4076">
        <ele>1203.793352</ele>
        <time>2022-07-23T14:25:40.763Z</time>
      </trkpt>
      <trkpt lat="44.93954" lon="5.40744">
        <ele>1203.264306</ele>
        <time>2022-07-23T14:25:51.893Z</time>
      </trkpt>
      <trkpt lat="44.93979" lon="5.40715">
        <ele>1202.794351</ele>
        <time>2022-07-23T14:26:00.279Z</time>
      </trkpt>
      <trkpt lat="44.93994" lon="5.4071">
        <ele>1202.56932</ele>
        <time>2022-07-23T14:26:04.303Z</time>
      </trkpt>
      <trkpt lat="44.94002" lon="5.40688">
        <ele>1202.310853</ele>
        <time>2022-07-23T14:26:08.602Z</time>
      </trkpt>
      <trkpt lat="44.94032" lon="5.40669">
        <ele>1199.445761</ele>
        <time>2022-07-23T14:26:16.172Z</time>
      </trkpt>
      <trkpt lat="44.94059" lon="5.40661">
        <ele>1196.777607</ele>
        <time>2022-07-23T14:26:22.423Z</time>
      </trkpt>
      <trkpt lat="44.94064" lon="5.40643">
        <ele>1195.489013</ele>
        <time>2022-07-23T14:26:25.396Z</time>
      </trkpt>
      <trkpt lat="44.94092" lon="5.40615">
        <ele>1192.233761</ele>
        <time>2022-07-23T14:26:32.939Z</time>
      </trkpt>
      <trkpt lat="44.94119" lon="5.40605">
        <ele>1189.574361</ele>
        <time>2022-07-23T14:26:39.055Z</time>
      </trkpt>
      <trkpt lat="44.94146" lon="5.40558">
        <ele>1185.540899</ele>
        <time>2022-07-23T14:26:48.029Z</time>
      </trkpt>
      <trkpt lat="44.94148" lon="5.40536">
        <ele>1182.9915</ele>
        <time>2022-07-23T14:26:51.118Z</time>
      </trkpt>
      <trkpt lat="44.94156" lon="5.40515">
        <ele>1179.818874</ele>
        <time>2022-07-23T14:26:54.554Z</time>
      </trkpt>
      <trkpt lat="44.94182" lon="5.40478">
        <ele>1173.154911</ele>
        <time>2022-07-23T14:27:01.690Z</time>
      </trkpt>
      <trkpt lat="44.942" lon="5.40391">
        <ele>1161.425387</ele>
        <time>2022-07-23T14:27:14.296Z</time>
      </trkpt>
      <trkpt lat="44.94204" lon="5.40372">
        <ele>1158.894674</ele>
        <time>2022-07-23T14:27:16.991Z</time>
      </trkpt>
      <trkpt lat="44.94192" lon="5.40324">
        <ele>1152.323775</ele>
        <time>2022-07-23T14:27:24.054Z</time>
      </trkpt>
      <trkpt lat="44.94191" lon="5.40283">
        <ele>1146.400202</ele>
        <time>2022-07-23T14:27:29.816Z</time>
      </trkpt>
      <trkpt lat="44.94201" lon="5.40265">
        <ele>1143.035325</ele>
        <time>2022-07-23T14:27:33.046Z</time>
      </trkpt>
      <trkpt lat="44.94201" lon="5.4023">
        <ele>1138.021596</ele>
        <time>2022-07-23T14:27:37.822Z</time>
      </trkpt>
      <trkpt lat="44.94193" lon="5.40212">
        <ele>1135.024958</ele>
        <time>2022-07-23T14:27:40.693Z</time>
      </trkpt>
      <trkpt lat="44.94196" lon="5.40193">
        <ele>1132.187787</ele>
        <time>2022-07-23T14:27:43.391Z</time>
      </trkpt>
      <trkpt lat="44.94225" lon="5.40147">
        <ele>1123.22118</ele>
        <time>2022-07-23T14:27:51.928Z</time>
      </trkpt>
      <trkpt lat="44.94226" lon="5.40128">
        <ele>1120.554103</ele>
        <time>2022-07-23T14:27:54.578Z</time>
      </trkpt>
      <trkpt lat="44.94244" lon="5.40082">
        <ele>1113.329135</ele>
        <time>2022-07-23T14:28:02.035Z</time>
      </trkpt>
      <trkpt lat="44.9426" lon="5.40063">
        <ele>1109.547423</ele>
        <time>2022-07-23T14:28:06.257Z</time>
      </trkpt>
      <trkpt lat="44.94309" lon="5.40005">
        <ele>1098.253725</ele>
        <time>2022-07-23T14:28:18.932Z</time>
      </trkpt>
      <trkpt lat="44.94369" lon="5.39971">
        <ele>1086.73573</ele>
        <time>2022-07-23T14:28:31.741Z</time>
      </trkpt>
      <trkpt lat="44.94398" lon="5.39949">
        <ele>1081.181984</ele>
        <time>2022-07-23T14:28:38.153Z</time>
      </trkpt>
      <trkpt lat="44.94398" lon="5.39921">
        <ele>1077.879228</ele>
        <time>2022-07-23T14:28:42.151Z</time>
      </trkpt>
      <trkpt lat="44.94374" lon="5.3987">
        <ele>1070.870202</ele>
        <time>2022-07-23T14:28:50.714Z</time>
      </trkpt>
      <trkpt lat="44.94345" lon="5.39807">
        <ele>1062.047276</ele>
        <time>2022-07-23T14:29:01.490Z</time>
      </trkpt>
      <trkpt lat="44.9434" lon="5.39753">
        <ele>1055.710463</ele>
        <time>2022-07-23T14:29:09.209Z</time>
      </trkpt>
      <trkpt lat="44.94364" lon="5.3965">
        <ele>1044.502154</ele>
        <time>2022-07-23T14:29:24.656Z</time>
      </trkpt>
      <trkpt lat="44.94351" lon="5.39594">
        <ele>1038.500256</ele>
        <time>2022-07-23T14:29:33.085Z</time>
      </trkpt>
      <trkpt lat="44.94309" lon="5.39551">
        <ele>1031.002504</ele>
        <time>2022-07-23T14:29:43.777Z</time>
      </trkpt>
      <trkpt lat="44.94276" lon="5.39545">
        <ele>1026.981674</ele>
        <time>2022-07-23T14:29:50.647Z</time>
      </trkpt>
      <trkpt lat="44.94218" lon="5.3956">
        <ele>1021.703835</ele>
        <time>2022-07-23T14:30:02.746Z</time>
      </trkpt>
      <trkpt lat="44.94159" lon="5.39555">
        <ele>1016.348714</ele>
        <time>2022-07-23T14:30:15.658Z</time>
      </trkpt>
      <trkpt lat="44.94144" lon="5.39546">
        <ele>1014.906404</ele>
        <time>2022-07-23T14:30:19.305Z</time>
      </trkpt>
      <trkpt lat="44.94108" lon="5.3954">
        <ele>1012.329271</ele>
        <time>2022-07-23T14:30:28.204Z</time>
      </trkpt>
      <trkpt lat="44.94016" lon="5.39584">
        <ele>1015.987829</ele>
        <time>2022-07-23T14:31:47.115Z</time>
      </trkpt>
      <trkpt lat="44.93987" lon="5.39663">
        <ele>1018.349545</ele>
        <time>2022-07-23T14:32:53.471Z</time>
      </trkpt>
      <trkpt lat="44.93956" lon="5.39714">
        <ele>1022.119482</ele>
        <time>2022-07-23T14:33:51.628Z</time>
      </trkpt>
      <trkpt lat="44.9389" lon="5.39789">
        <ele>1030.30067</ele>
        <time>2022-07-23T14:35:31.453Z</time>
      </trkpt>
      <trkpt lat="44.93862" lon="5.39808">
        <ele>1033.320686</ele>
        <time>2022-07-23T14:36:09.675Z</time>
      </trkpt>
      <trkpt lat="44.93838" lon="5.39805">
        <ele>1035.614942</ele>
        <time>2022-07-23T14:36:37.622Z</time>
      </trkpt>
      <trkpt lat="44.93828" lon="5.3978">
        <ele>1037.533756</ele>
        <time>2022-07-23T14:37:03.344Z</time>
      </trkpt>
      <trkpt lat="44.93815" lon="5.39772">
        <ele>1038.798641</ele>
        <time>2022-07-23T14:37:19.633Z</time>
      </trkpt>
      <trkpt lat="44.93676" lon="5.39786">
        <ele>1051.258591</ele>
        <time>2022-07-23T14:39:59.853Z</time>
      </trkpt>
      <trkpt lat="44.93666" lon="5.39795">
        <ele>1052.323447</ele>
        <time>2022-07-23T14:40:14.104Z</time>
      </trkpt>
      <trkpt lat="44.93589" lon="5.39798">
        <ele>1055.05495</ele>
        <time>2022-07-23T14:41:32.626Z</time>
      </trkpt>
      <trkpt lat="44.93534" lon="5.39816">
        <ele>1057.050375</ele>
        <time>2022-07-23T14:42:16.944Z</time>
      </trkpt>
      <trkpt lat="44.93484" lon="5.39823">
        <ele>1058.700598</ele>
        <time>2022-07-23T14:42:51.905Z</time>
      </trkpt>
      <trkpt lat="44.93467" lon="5.39821">
        <ele>1058.6267</ele>
        <time>2022-07-23T14:43:03.324Z</time>
      </trkpt>
      <trkpt lat="44.93432" lon="5.39823">
        <ele>1058.47404</ele>
        <time>2022-07-23T14:43:26.949Z</time>
      </trkpt>
      <trkpt lat="44.93396" lon="5.39791">
        <ele>1058.289356</ele>
        <time>2022-07-23T14:43:55.176Z</time>
      </trkpt>
      <trkpt lat="44.93384" lon="5.39786">
        <ele>1058.232919</ele>
        <time>2022-07-23T14:44:04.045Z</time>
      </trkpt>
      <trkpt lat="44.9335" lon="5.39783">
        <ele>1058.081524</ele>
        <time>2022-07-23T14:44:27.506Z</time>
      </trkpt>
      <trkpt lat="44.93333" lon="5.398">
        <ele>1057.991857</ele>
        <time>2022-07-23T14:44:41.495Z</time>
      </trkpt>
      <trkpt lat="44.93308" lon="5.39845">
        <ele>1058.122498</ele>
        <time>2022-07-23T14:45:08.965Z</time>
      </trkpt>
      <trkpt lat="44.93286" lon="5.39841">
        <ele>1058.288141</ele>
        <time>2022-07-23T14:45:24.475Z</time>
      </trkpt>
      <trkpt lat="44.93272" lon="5.39844">
        <ele>1058.398608</ele>
        <time>2022-07-23T14:45:35.126Z</time>
      </trkpt>
      <trkpt lat="44.93245" lon="5.39843">
        <ele>1058.600892</ele>
        <time>2022-07-23T14:45:56.351Z</time>
      </trkpt>
      <trkpt lat="44.93214" lon="5.39829">
        <ele>1058.844127</ele>
        <time>2022-07-23T14:46:21.154Z</time>
      </trkpt>
      <trkpt lat="44.93197" lon="5.39835">
        <ele>1058.977171</ele>
        <time>2022-07-23T14:46:34.518Z</time>
      </trkpt>
      <trkpt lat="44.93149" lon="5.39825">
        <ele>1059.286432</ele>
        <time>2022-07-23T14:47:10.254Z</time>
      </trkpt>
      <trkpt lat="44.93114" lon="5.39831">
        <ele>1059.274285</ele>
        <time>2022-07-23T14:47:36.284Z</time>
      </trkpt>
      <trkpt lat="44.93058" lon="5.39866">
        <ele>1059.253537</ele>
        <time>2022-07-23T14:48:20.285Z</time>
      </trkpt>
      <trkpt lat="44.93039" lon="5.39875">
        <ele>1059.246623</ele>
        <time>2022-07-23T14:48:34.617Z</time>
      </trkpt>
      <trkpt lat="44.93014" lon="5.39895">
        <ele>1059.236883</ele>
        <time>2022-07-23T14:48:54.031Z</time>
      </trkpt>
      <trkpt lat="44.93006" lon="5.39921">
        <ele>1059.229947</ele>
        <time>2022-07-23T14:49:07.459Z</time>
      </trkpt>
      <trkpt lat="44.92991" lon="5.39925">
        <ele>1059.05086</ele>
        <time>2022-07-23T14:49:17.010Z</time>
      </trkpt>
      <trkpt lat="44.92961" lon="5.39946">
        <ele>1058.329549</ele>
        <time>2022-07-23T14:49:38.508Z</time>
      </trkpt>
      <trkpt lat="44.92943" lon="5.39954">
        <ele>1057.920139</ele>
        <time>2022-07-23T14:49:50.250Z</time>
      </trkpt>
      <trkpt lat="44.92943" lon="5.39954">
        <ele>1057.920139</ele>
        <time>2022-07-23T14:49:50.307Z</time>
      </trkpt>
      <trkpt lat="44.92932" lon="5.39972">
        <ele>1057.550551</ele>
        <time>2022-07-23T14:50:01.684Z</time>
      </trkpt>
      <trkpt lat="44.92923" lon="5.3997">
        <ele>1057.361191</ele>
        <time>2022-07-23T14:50:07.052Z</time>
      </trkpt>
      <trkpt lat="44.92925" lon="5.39956">
        <ele>1057.141877</ele>
        <time>2022-07-23T14:50:13.406Z</time>
      </trkpt>
      <trkpt lat="44.92915" lon="5.39949">
        <ele>1056.896044</ele>
        <time>2022-07-23T14:50:21.310Z</time>
      </trkpt>
      <trkpt lat="44.92914" lon="5.39941">
        <ele>1056.773015</ele>
        <time>2022-07-23T14:50:24.848Z</time>
      </trkpt>
      <trkpt lat="44.92912" lon="5.39918">
        <ele>1056.406731</ele>
        <time>2022-07-23T14:50:35.226Z</time>
      </trkpt>
      <trkpt lat="44.92886" lon="5.39903">
        <ele>1055.808608</ele>
        <time>2022-07-23T14:50:53.141Z</time>
      </trkpt>
      <trkpt lat="44.92881" lon="5.39882">
        <ele>1055.4597</ele>
        <time>2022-07-23T14:51:03.437Z</time>
      </trkpt>
      <trkpt lat="44.92849" lon="5.39876">
        <ele>1054.995876</ele>
        <time>2022-07-23T14:51:23.824Z</time>
      </trkpt>
      <trkpt lat="44.92844" lon="5.39875">
        <ele>1054.936845</ele>
        <time>2022-07-23T14:51:26.949Z</time>
      </trkpt>
      <trkpt lat="44.92829" lon="5.39889">
        <ele>1054.70728</ele>
        <time>2022-07-23T14:51:38.131Z</time>
      </trkpt>
      <trkpt lat="44.92806" lon="5.39887">
        <ele>1054.417277</ele>
        <time>2022-07-23T14:51:52.693Z</time>
      </trkpt>
      <trkpt lat="44.92791" lon="5.39896">
        <ele>1054.20863</ele>
        <time>2022-07-23T14:52:02.624Z</time>
      </trkpt>
      <trkpt lat="44.92788" lon="5.3994">
        <ele>1053.812495</ele>
        <time>2022-07-23T14:52:23.319Z</time>
      </trkpt>
      <trkpt lat="44.9277" lon="5.39959">
        <ele>1053.534379</ele>
        <time>2022-07-23T14:52:38.238Z</time>
      </trkpt>
      <trkpt lat="44.92728" lon="5.40006">
        <ele>1053.264154</ele>
        <time>2022-07-23T14:53:18.740Z</time>
      </trkpt>
      <trkpt lat="44.92699" lon="5.40056">
        <ele>1053.845542</ele>
        <time>2022-07-23T14:53:54.780Z</time>
      </trkpt>
      <trkpt lat="44.92688" lon="5.40054">
        <ele>1053.985695</ele>
        <time>2022-07-23T14:54:03.356Z</time>
      </trkpt>
      <trkpt lat="44.92677" lon="5.4004">
        <ele>1054.17607</ele>
        <time>2022-07-23T14:54:14.635Z</time>
      </trkpt>
      <trkpt lat="44.92665" lon="5.40041">
        <ele>1054.334171</ele>
        <time>2022-07-23T14:54:24.328Z</time>
      </trkpt>
      <trkpt lat="44.92653" lon="5.40052">
        <ele>1054.512715</ele>
        <time>2022-07-23T14:54:34.648Z</time>
      </trkpt>
      <trkpt lat="44.92639" lon="5.40056">
        <ele>1054.691827</ele>
        <time>2022-07-23T14:54:45.231Z</time>
      </trkpt>
      <trkpt lat="44.926" lon="5.40016">
        <ele>1055.310462</ele>
        <time>2022-07-23T14:55:04.316Z</time>
      </trkpt>
      <trkpt lat="44.9258" lon="5.39981">
        <ele>1055.251175</ele>
        <time>2022-07-23T14:55:15.954Z</time>
      </trkpt>
      <trkpt lat="44.92572" lon="5.39951">
        <ele>1055.170356</ele>
        <time>2022-07-23T14:55:23.671Z</time>
      </trkpt>
      <trkpt lat="44.92558" lon="5.39929">
        <ele>1055.095322</ele>
        <time>2022-07-23T14:55:31.062Z</time>
      </trkpt>
      <trkpt lat="44.92525" lon="5.39902">
        <ele>1054.961906</ele>
        <time>2022-07-23T14:55:43.194Z</time>
      </trkpt>
      <trkpt lat="44.9251" lon="5.39884">
        <ele>1054.892173</ele>
        <time>2022-07-23T14:55:48.995Z</time>
      </trkpt>
      <trkpt lat="44.92477" lon="5.3987">
        <ele>1054.771066</ele>
        <time>2022-07-23T14:55:58.492Z</time>
      </trkpt>
      <trkpt lat="44.92452" lon="5.39846">
        <ele>1054.521961</ele>
        <time>2022-07-23T14:56:06.627Z</time>
      </trkpt>
      <trkpt lat="44.92401" lon="5.3983">
        <ele>1053.846591</ele>
        <time>2022-07-23T14:56:20.693Z</time>
      </trkpt>
      <trkpt lat="44.92379" lon="5.39836">
        <ele>1053.557591</ele>
        <time>2022-07-23T14:56:26.623Z</time>
      </trkpt>
      <trkpt lat="44.92359" lon="5.39905">
        <ele>1052.86342</ele>
        <time>2022-07-23T14:56:42.372Z</time>
      </trkpt>
      <trkpt lat="44.92331" lon="5.39933">
        <ele>1052.420851</ele>
        <time>2022-07-23T14:56:52.931Z</time>
      </trkpt>
      <trkpt lat="44.92297" lon="5.39986">
        <ele>1052.753221</ele>
        <time>2022-07-23T14:57:09.466Z</time>
      </trkpt>
      <trkpt lat="44.92294" lon="5.40004">
        <ele>1052.855021</ele>
        <time>2022-07-23T14:57:13.549Z</time>
      </trkpt>
      <trkpt lat="44.92292" lon="5.40036">
        <ele>1053.030424</ele>
        <time>2022-07-23T14:57:22.023Z</time>
      </trkpt>
      <trkpt lat="44.92286" lon="5.4007">
        <ele>1053.230662</ele>
        <time>2022-07-23T14:57:31.157Z</time>
      </trkpt>
      <trkpt lat="44.92276" lon="5.40083">
        <ele>1053.340161</ele>
        <time>2022-07-23T14:57:36.344Z</time>
      </trkpt>
      <trkpt lat="44.92215" lon="5.40092">
        <ele>1053.840369</ele>
        <time>2022-07-23T14:57:59.404Z</time>
      </trkpt>
      <trkpt lat="44.92187" lon="5.40074">
        <ele>1054.390938</ele>
        <time>2022-07-23T14:58:12.431Z</time>
      </trkpt>
      <trkpt lat="44.92154" lon="5.4002">
        <ele>1055.273902</ele>
        <time>2022-07-23T14:58:33.117Z</time>
      </trkpt>
      <trkpt lat="44.92134" lon="5.40017">
        <ele>1055.61511</ele>
        <time>2022-07-23T14:58:40.993Z</time>
      </trkpt>
      <trkpt lat="44.92098" lon="5.39991">
        <ele>1056.318926</ele>
        <time>2022-07-23T14:58:57.502Z</time>
      </trkpt>
      <trkpt lat="44.92016" lon="5.39949">
        <ele>1058.510868</ele>
        <time>2022-07-23T14:59:32.903Z</time>
      </trkpt>
      <trkpt lat="44.91962" lon="5.39931">
        <ele>1060.199895</ele>
        <time>2022-07-23T14:59:57.334Z</time>
      </trkpt>
      <trkpt lat="44.91939" lon="5.39933">
        <ele>1060.910473</ele>
        <time>2022-07-23T15:00:09.112Z</time>
      </trkpt>
      <trkpt lat="44.91893" lon="5.3992">
        <ele>1062.306806</ele>
        <time>2022-07-23T15:00:33.849Z</time>
      </trkpt>
      <trkpt lat="44.9184" lon="5.39932">
        <ele>1065.778739</ele>
        <time>2022-07-23T15:01:03.524Z</time>
      </trkpt>
      <trkpt lat="44.91838" lon="5.3989">
        <ele>1067.74706</ele>
        <time>2022-07-23T15:01:22.747Z</time>
      </trkpt>
      <trkpt lat="44.9187" lon="5.39826">
        <ele>1071.397362</ele>
        <time>2022-07-23T15:01:59.053Z</time>
      </trkpt>
      <trkpt lat="44.91874" lon="5.39775">
        <ele>1073.762116</ele>
        <time>2022-07-23T15:02:25.850Z</time>
      </trkpt>
      <trkpt lat="44.91883" lon="5.39741">
        <ele>1075.695319</ele>
        <time>2022-07-23T15:02:46.432Z</time>
      </trkpt>
      <trkpt lat="44.91902" lon="5.39697">
        <ele>1078.546651</ele>
        <time>2022-07-23T15:03:15.682Z</time>
      </trkpt>
      <trkpt lat="44.91904" lon="5.39671">
        <ele>1079.987452</ele>
        <time>2022-07-23T15:03:28.645Z</time>
      </trkpt>
      <trkpt lat="44.91896" lon="5.39585">
        <ele>1084.808589</ele>
        <time>2022-07-23T15:04:12.278Z</time>
      </trkpt>
      <trkpt lat="44.91905" lon="5.39536">
        <ele>1087.5839</ele>
        <time>2022-07-23T15:04:37.174Z</time>
      </trkpt>
      <trkpt lat="44.91898" lon="5.39513">
        <ele>1088.497823</ele>
        <time>2022-07-23T15:04:48.023Z</time>
      </trkpt>
      <trkpt lat="44.91903" lon="5.39466">
        <ele>1089.351215</ele>
        <time>2022-07-23T15:05:08.089Z</time>
      </trkpt>
      <trkpt lat="44.91889" lon="5.39428">
        <ele>1090.11694</ele>
        <time>2022-07-23T15:05:24.944Z</time>
      </trkpt>
      <trkpt lat="44.91833" lon="5.39357">
        <ele>1092.001913</ele>
        <time>2022-07-23T15:05:55.641Z</time>
      </trkpt>
      <trkpt lat="44.91821" lon="5.3933">
        <ele>1092.575059</ele>
        <time>2022-07-23T15:06:02.424Z</time>
      </trkpt>
      <trkpt lat="44.91816" lon="5.39304">
        <ele>1092.323783</ele>
        <time>2022-07-23T15:06:07.743Z</time>
      </trkpt>
      <trkpt lat="44.91812" lon="5.39271">
        <ele>1091.191076</ele>
        <time>2022-07-23T15:06:13.760Z</time>
      </trkpt>
      <trkpt lat="44.91772" lon="5.39185">
        <ele>1087.61874</ele>
        <time>2022-07-23T15:06:31.658Z</time>
      </trkpt>
      <trkpt lat="44.9176" lon="5.39164">
        <ele>1086.678043</ele>
        <time>2022-07-23T15:06:36.091Z</time>
      </trkpt>
      <trkpt lat="44.9172" lon="5.39125">
        <ele>1084.311449</ele>
        <time>2022-07-23T15:06:47.149Z</time>
      </trkpt>
      <trkpt lat="44.91709" lon="5.39103">
        <ele>1083.117974</ele>
        <time>2022-07-23T15:06:51.303Z</time>
      </trkpt>
      <trkpt lat="44.91705" lon="5.39073">
        <ele>1081.613894</ele>
        <time>2022-07-23T15:06:56.104Z</time>
      </trkpt>
      <trkpt lat="44.91708" lon="5.3905">
        <ele>1080.447986</ele>
        <time>2022-07-23T15:06:59.779Z</time>
      </trkpt>
      <trkpt lat="44.91706" lon="5.39015">
        <ele>1078.691885</ele>
        <time>2022-07-23T15:07:05.388Z</time>
      </trkpt>
      <trkpt lat="44.91686" lon="5.38952">
        <ele>1075.253691</ele>
        <time>2022-07-23T15:07:16.423Z</time>
      </trkpt>
      <trkpt lat="44.91689" lon="5.38871">
        <ele>1071.367739</ele>
        <time>2022-07-23T15:07:29.723Z</time>
      </trkpt>
      <trkpt lat="44.91678" lon="5.38779">
        <ele>1069.777226</ele>
        <time>2022-07-23T15:07:45.966Z</time>
      </trkpt>
      <trkpt lat="44.91672" lon="5.38764">
        <ele>1069.485837</ele>
        <time>2022-07-23T15:07:49.108Z</time>
      </trkpt>
      <trkpt lat="44.91651" lon="5.38734">
        <ele>1068.763281</ele>
        <time>2022-07-23T15:07:57.324Z</time>
      </trkpt>
      <trkpt lat="44.91639" lon="5.38705">
        <ele>1068.190765</ele>
        <time>2022-07-23T15:08:04.283Z</time>
      </trkpt>
      <trkpt lat="44.91597" lon="5.38652">
        <ele>1067.44365</ele>
        <time>2022-07-23T15:08:22.844Z</time>
      </trkpt>
      <trkpt lat="44.91588" lon="5.38636">
        <ele>1067.866226</ele>
        <time>2022-07-23T15:08:28.309Z</time>
      </trkpt>
      <trkpt lat="44.91578" lon="5.38586">
        <ele>1068.981641</ele>
        <time>2022-07-23T15:08:43.509Z</time>
      </trkpt>
      <trkpt lat="44.91576" lon="5.38557">
        <ele>1069.587297</ele>
        <time>2022-07-23T15:08:52.564Z</time>
      </trkpt>
      <trkpt lat="44.91583" lon="5.38496">
        <ele>1070.902869</ele>
        <time>2022-07-23T15:09:13.196Z</time>
      </trkpt>
      <trkpt lat="44.91581" lon="5.38473">
        <ele>1071.407628</ele>
        <time>2022-07-23T15:09:21.353Z</time>
      </trkpt>
      <trkpt lat="44.91569" lon="5.38428">
        <ele>1072.415847</ele>
        <time>2022-07-23T15:09:41.247Z</time>
      </trkpt>
      <trkpt lat="44.91568" lon="5.384">
        <ele>1073.355604</ele>
        <time>2022-07-23T15:09:54.508Z</time>
      </trkpt>
      <trkpt lat="44.91563" lon="5.38378">
        <ele>1074.226601</ele>
        <time>2022-07-23T15:10:05.612Z</time>
      </trkpt>
      <trkpt lat="44.91533" lon="5.38272">
        <ele>1078.377382</ele>
        <time>2022-07-23T15:10:53.515Z</time>
      </trkpt>
      <trkpt lat="44.91528" lon="5.38257">
        <ele>1078.977264</ele>
        <time>2022-07-23T15:11:00.987Z</time>
      </trkpt>
      <trkpt lat="44.91501" lon="5.38207">
        <ele>1081.285959</ele>
        <time>2022-07-23T15:11:26.010Z</time>
      </trkpt>
      <trkpt lat="44.9148" lon="5.38176">
        <ele>1081.596255</ele>
        <time>2022-07-23T15:11:41.756Z</time>
      </trkpt>
      <trkpt lat="44.91466" lon="5.38151">
        <ele>1081.397507</ele>
        <time>2022-07-23T15:11:51.122Z</time>
      </trkpt>
      <trkpt lat="44.91474" lon="5.38072">
        <ele>1080.90026</ele>
        <time>2022-07-23T15:12:14.498Z</time>
      </trkpt>
      <trkpt lat="44.91454" lon="5.37977">
        <ele>1080.282694</ele>
        <time>2022-07-23T15:12:31.452Z</time>
      </trkpt>
      <trkpt lat="44.91413" lon="5.37977">
        <ele>1077.95359</ele>
        <time>2022-07-23T15:12:37.009Z</time>
      </trkpt>
      <trkpt lat="44.91367" lon="5.37963">
        <ele>1074.548316</ele>
        <time>2022-07-23T15:12:43.352Z</time>
      </trkpt>
      <trkpt lat="44.91355" lon="5.37955">
        <ele>1073.56229</ele>
        <time>2022-07-23T15:12:45.077Z</time>
      </trkpt>
      <trkpt lat="44.91332" lon="5.37978">
        <ele>1071.520542</ele>
        <time>2022-07-23T15:12:51.423Z</time>
      </trkpt>
      <trkpt lat="44.91315" lon="5.38001">
        <ele>1069.806416</ele>
        <time>2022-07-23T15:12:56.656Z</time>
      </trkpt>
      <trkpt lat="44.91306" lon="5.38001">
        <ele>1069.173586</ele>
        <time>2022-07-23T15:12:58.577Z</time>
      </trkpt>
      <trkpt lat="44.91253" lon="5.37966">
        <ele>1065.594492</ele>
        <time>2022-07-23T15:13:11.466Z</time>
      </trkpt>
      <trkpt lat="44.91209" lon="5.3795">
        <ele>1063.254612</ele>
        <time>2022-07-23T15:13:21.966Z</time>
      </trkpt>
      <trkpt lat="44.91157" lon="5.37963">
        <ele>1060.578763</ele>
        <time>2022-07-23T15:13:34.995Z</time>
      </trkpt>
      <trkpt lat="44.91132" lon="5.38029">
        <ele>1057.914601</ele>
        <time>2022-07-23T15:13:48.696Z</time>
      </trkpt>
      <trkpt lat="44.91" lon="5.38167">
        <ele>1055.081624</ele>
        <time>2022-07-23T15:14:34.330Z</time>
      </trkpt>
      <trkpt lat="44.90848" lon="5.38179">
        <ele>1054.266494</ele>
        <time>2022-07-23T15:15:20.637Z</time>
      </trkpt>
      <trkpt lat="44.90822" lon="5.38168">
        <ele>1054.154582</ele>
        <time>2022-07-23T15:15:29.451Z</time>
      </trkpt>
      <trkpt lat="44.90804" lon="5.38134">
        <ele>1054.121309</ele>
        <time>2022-07-23T15:15:39.484Z</time>
      </trkpt>
      <trkpt lat="44.90784" lon="5.38109">
        <ele>1054.169531</ele>
        <time>2022-07-23T15:15:48.078Z</time>
      </trkpt>
      <trkpt lat="44.90777" lon="5.38094">
        <ele>1054.19193</ele>
        <time>2022-07-23T15:15:52.194Z</time>
      </trkpt>
      <trkpt lat="44.90757" lon="5.38095">
        <ele>1054.228862</ele>
        <time>2022-07-23T15:15:58.777Z</time>
      </trkpt>
      <trkpt lat="44.90742" lon="5.38101">
        <ele>1054.255949</ele>
        <time>2022-07-23T15:16:03.797Z</time>
      </trkpt>
      <trkpt lat="44.90675" lon="5.38091">
        <ele>1054.378728</ele>
        <time>2022-07-23T15:16:25.952Z</time>
      </trkpt>
      <trkpt lat="44.90649" lon="5.3807">
        <ele>1054.426114</ele>
        <time>2022-07-23T15:16:35.680Z</time>
      </trkpt>
      <trkpt lat="44.90642" lon="5.38041">
        <ele>1054.445176</ele>
        <time>2022-07-23T15:16:43.038Z</time>
      </trkpt>
      <trkpt lat="44.90642" lon="5.37958">
        <ele>1054.495323</ele>
        <time>2022-07-23T15:17:02.253Z</time>
      </trkpt>
      <trkpt lat="44.90621" lon="5.37911">
        <ele>1054.529117</ele>
        <time>2022-07-23T15:17:15.051Z</time>
      </trkpt>
      <trkpt lat="44.90546" lon="5.37829">
        <ele>1054.470571</ele>
        <time>2022-07-23T15:17:44.918Z</time>
      </trkpt>
      <trkpt lat="44.90513" lon="5.37779">
        <ele>1054.351775</ele>
        <time>2022-07-23T15:18:00.017Z</time>
      </trkpt>
      <trkpt lat="44.90496" lon="5.37743">
        <ele>1054.276087</ele>
        <time>2022-07-23T15:18:09.641Z</time>
      </trkpt>
      <trkpt lat="44.90484" lon="5.37701">
        <ele>1054.197696</ele>
        <time>2022-07-23T15:18:19.485Z</time>
      </trkpt>
      <trkpt lat="44.90458" lon="5.37673">
        <ele>1054.085722</ele>
        <time>2022-07-23T15:18:29.435Z</time>
      </trkpt>
      <trkpt lat="44.90423" lon="5.37653">
        <ele>1053.792868</ele>
        <time>2022-07-23T15:18:41.178Z</time>
      </trkpt>
      <trkpt lat="44.90337" lon="5.3763">
        <ele>1053.119043</ele>
        <time>2022-07-23T15:19:07.210Z</time>
      </trkpt>
      <trkpt lat="44.90309" lon="5.37637">
        <ele>1052.904799</ele>
        <time>2022-07-23T15:19:15.363Z</time>
      </trkpt>
      <trkpt lat="44.903" lon="5.37628">
        <ele>1052.818562</ele>
        <time>2022-07-23T15:19:18.643Z</time>
      </trkpt>
      <trkpt lat="44.90282" lon="5.37602">
        <ele>1052.721991</ele>
        <time>2022-07-23T15:19:25.924Z</time>
      </trkpt>
      <trkpt lat="44.90251" lon="5.37578">
        <ele>1052.656991</ele>
        <time>2022-07-23T15:19:36.296Z</time>
      </trkpt>
      <trkpt lat="44.90216" lon="5.37555">
        <ele>1052.585565</ele>
        <time>2022-07-23T15:19:48.163Z</time>
      </trkpt>
      <trkpt lat="44.90171" lon="5.37506">
        <ele>1052.480999</ele>
        <time>2022-07-23T15:20:06.790Z</time>
      </trkpt>
      <trkpt lat="44.90162" lon="5.37496">
        <ele>1052.461724</ele>
        <time>2022-07-23T15:20:09.899Z</time>
      </trkpt>
      <trkpt lat="44.90247" lon="5.37417">
        <ele>1054.096359</ele>
        <time>2022-07-23T15:20:48.220Z</time>
      </trkpt>
      <trkpt lat="44.90345" lon="5.37315">
        <ele>1056.79341</ele>
        <time>2022-07-23T15:21:44.573Z</time>
      </trkpt>
      <trkpt lat="44.90357" lon="5.3729">
        <ele>1057.412244</ele>
        <time>2022-07-23T15:21:55.377Z</time>
      </trkpt>
      <trkpt lat="44.90368" lon="5.37234">
        <ele>1058.580808</ele>
        <time>2022-07-23T15:22:15.751Z</time>
      </trkpt>
      <trkpt lat="44.90375" lon="5.37173">
        <ele>1059.833508</ele>
        <time>2022-07-23T15:22:36.374Z</time>
      </trkpt>
      <trkpt lat="44.90361" lon="5.37169">
        <ele>1060.248895</ele>
        <time>2022-07-23T15:22:40.512Z</time>
      </trkpt>
      <trkpt lat="44.90367" lon="5.3715">
        <ele>1060.664303</ele>
        <time>2022-07-23T15:22:45.649Z</time>
      </trkpt>
      <trkpt lat="44.90374" lon="5.37137">
        <ele>1061.006663</ele>
        <time>2022-07-23T15:22:49.170Z</time>
      </trkpt>
      <trkpt lat="44.90399" lon="5.371">
        <ele>1061.3667</ele>
        <time>2022-07-23T15:22:59.499Z</time>
      </trkpt>
      <trkpt lat="44.90336" lon="5.37054">
        <ele>1061.646938</ele>
        <time>2022-07-23T15:23:26.140Z</time>
      </trkpt>
      <trkpt lat="44.90288" lon="5.37011">
        <ele>1061.87212</ele>
        <time>2022-07-23T15:23:43.860Z</time>
      </trkpt>
      <trkpt lat="44.90269" lon="5.36984">
        <ele>1061.920752</ele>
        <time>2022-07-23T15:23:51.700Z</time>
      </trkpt>
      <trkpt lat="44.90218" lon="5.36901">
        <ele>1059.958354</ele>
        <time>2022-07-23T15:24:12.732Z</time>
      </trkpt>
      <trkpt lat="44.90174" lon="5.36819">
        <ele>1058.129197</ele>
        <time>2022-07-23T15:24:31.632Z</time>
      </trkpt>
      <trkpt lat="44.90152" lon="5.36795">
        <ele>1057.444234</ele>
        <time>2022-07-23T15:24:38.633Z</time>
      </trkpt>
      <trkpt lat="44.90138" lon="5.36767">
        <ele>1056.683365</ele>
        <time>2022-07-23T15:24:44.824Z</time>
      </trkpt>
      <trkpt lat="44.90124" lon="5.36748">
        <ele>1056.055938</ele>
        <time>2022-07-23T15:24:50.109Z</time>
      </trkpt>
      <trkpt lat="44.90091" lon="5.36712">
        <ele>1054.759376</ele>
        <time>2022-07-23T15:25:00.845Z</time>
      </trkpt>
      <trkpt lat="44.90041" lon="5.36667">
        <ele>1052.917859</ele>
        <time>2022-07-23T15:25:16.490Z</time>
      </trkpt>
      <trkpt lat="44.90006" lon="5.36614">
        <ele>1051.315379</ele>
        <time>2022-07-23T15:25:29.427Z</time>
      </trkpt>
      <trkpt lat="44.89993" lon="5.36583">
        <ele>1050.546985</ele>
        <time>2022-07-23T15:25:35.962Z</time>
      </trkpt>
      <trkpt lat="44.89978" lon="5.36527">
        <ele>1049.259122</ele>
        <time>2022-07-23T15:25:46.742Z</time>
      </trkpt>
      <trkpt lat="44.89967" lon="5.36507">
        <ele>1048.705399</ele>
        <time>2022-07-23T15:25:51.327Z</time>
      </trkpt>
      <trkpt lat="44.89959" lon="5.36501">
        <ele>1048.408505</ele>
        <time>2022-07-23T15:25:54.255Z</time>
      </trkpt>
      <trkpt lat="44.89941" lon="5.36527">
        <ele>1047.61479</ele>
        <time>2022-07-23T15:26:00.777Z</time>
      </trkpt>
      <trkpt lat="44.89911" lon="5.36537">
        <ele>1046.680569</ele>
        <time>2022-07-23T15:26:08.855Z</time>
      </trkpt>
      <trkpt lat="44.89893" lon="5.36566">
        <ele>1046.095777</ele>
        <time>2022-07-23T15:26:16.195Z</time>
      </trkpt>
      <trkpt lat="44.89851" lon="5.36575">
        <ele>1045.489617</ele>
        <time>2022-07-23T15:26:27.408Z</time>
      </trkpt>
      <trkpt lat="44.89842" lon="5.3659">
        <ele>1045.290732</ele>
        <time>2022-07-23T15:26:31.222Z</time>
      </trkpt>
      <trkpt lat="44.89809" lon="5.36624">
        <ele>1044.706499</ele>
        <time>2022-07-23T15:26:42.312Z</time>
      </trkpt>
      <trkpt lat="44.89776" lon="5.36652">
        <ele>1044.15843</ele>
        <time>2022-07-23T15:26:54.150Z</time>
      </trkpt>
      <trkpt lat="44.89752" lon="5.3669">
        <ele>1043.966424</ele>
        <time>2022-07-23T15:27:05.893Z</time>
      </trkpt>
      <trkpt lat="44.89747" lon="5.3673">
        <ele>1044.754116</ele>
        <time>2022-07-23T15:27:15.893Z</time>
      </trkpt>
      <trkpt lat="44.89718" lon="5.36804">
        <ele>1046.371417</ele>
        <time>2022-07-23T15:27:43.250Z</time>
      </trkpt>
      <trkpt lat="44.89712" lon="5.36843">
        <ele>1047.131798</ele>
        <time>2022-07-23T15:27:57.278Z</time>
      </trkpt>
      <trkpt lat="44.89688" lon="5.36917">
        <ele>1048.732573</ele>
        <time>2022-07-23T15:28:26.644Z</time>
      </trkpt>
      <trkpt lat="44.89674" lon="5.36923">
        <ele>1049.318281</ele>
        <time>2022-07-23T15:28:33.842Z</time>
      </trkpt>
      <trkpt lat="44.89663" lon="5.3693">
        <ele>1049.787133</ele>
        <time>2022-07-23T15:28:38.218Z</time>
      </trkpt>
      <trkpt lat="44.89644" lon="5.36947">
        <ele>1050.641893</ele>
        <time>2022-07-23T15:28:48.546Z</time>
      </trkpt>
      <trkpt lat="44.89637" lon="5.36959">
        <ele>1051.076451</ele>
        <time>2022-07-23T15:28:52.455Z</time>
      </trkpt>
      <trkpt lat="44.89625" lon="5.36991">
        <ele>1052.102289</ele>
        <time>2022-07-23T15:29:03.780Z</time>
      </trkpt>
      <trkpt lat="44.89614" lon="5.37038">
        <ele>1053.452947</ele>
        <time>2022-07-23T15:29:17.692Z</time>
      </trkpt>
      <trkpt lat="44.89606" lon="5.37056">
        <ele>1054.038595</ele>
        <time>2022-07-23T15:29:22.248Z</time>
      </trkpt>
      <trkpt lat="44.89596" lon="5.37067">
        <ele>1054.540444</ele>
        <time>2022-07-23T15:29:28.284Z</time>
      </trkpt>
      <trkpt lat="44.89574" lon="5.37074">
        <ele>1055.429789</ele>
        <time>2022-07-23T15:29:35.764Z</time>
      </trkpt>
      <trkpt lat="44.8955" lon="5.37075">
        <ele>1055.856387</ele>
        <time>2022-07-23T15:29:44.614Z</time>
      </trkpt>
      <trkpt lat="44.89547" lon="5.37068">
        <ele>1055.91954</ele>
        <time>2022-07-23T15:29:45.953Z</time>
      </trkpt>
      <trkpt lat="44.89542" lon="5.37065">
        <ele>1055.983358</ele>
        <time>2022-07-23T15:29:47.313Z</time>
      </trkpt>
      <trkpt lat="44.89541" lon="5.3705">
        <ele>1056.096902</ele>
        <time>2022-07-23T15:29:51.017Z</time>
      </trkpt>
      <trkpt lat="44.89539" lon="5.36983">
        <ele>1056.614997</ele>
        <time>2022-07-23T15:30:03.173Z</time>
      </trkpt>
      <trkpt lat="44.89539" lon="5.36978">
        <ele>1056.655109</ele>
        <time>2022-07-23T15:30:03.912Z</time>
      </trkpt>
      <trkpt lat="44.89537" lon="5.36952">
        <ele>1056.850105</ele>
        <time>2022-07-23T15:30:08.549Z</time>
      </trkpt>
      <trkpt lat="44.89535" lon="5.36929">
        <ele>1057.032896</ele>
        <time>2022-07-23T15:30:12.207Z</time>
      </trkpt>
      <trkpt lat="44.89533" lon="5.36891">
        <ele>1057.326535</ele>
        <time>2022-07-23T15:30:17.194Z</time>
      </trkpt>
      <trkpt lat="44.89536" lon="5.36849">
        <ele>1057.590724</ele>
        <time>2022-07-23T15:30:22.533Z</time>
      </trkpt>
      <trkpt lat="44.89543" lon="5.36739">
        <ele>1057.171732</ele>
        <time>2022-07-23T15:30:36.151Z</time>
      </trkpt>
      <trkpt lat="44.89554" lon="5.36739">
        <ele>1057.11352</ele>
        <time>2022-07-23T15:30:38.067Z</time>
      </trkpt>
      <trkpt lat="44.89555" lon="5.36682">
        <ele>1056.895127</ele>
        <time>2022-07-23T15:30:45.374Z</time>
      </trkpt>
      <trkpt lat="44.89558" lon="5.36658">
        <ele>1056.803001</ele>
        <time>2022-07-23T15:30:48.495Z</time>
      </trkpt>
      <trkpt lat="44.89557" lon="5.36613">
        <ele>1056.639848</ele>
        <time>2022-07-23T15:30:53.941Z</time>
      </trkpt>
      <trkpt lat="44.89559" lon="5.36572">
        <ele>1056.613632</ele>
        <time>2022-07-23T15:30:59.042Z</time>
      </trkpt>
      <trkpt lat="44.89522" lon="5.36574">
        <ele>1056.580892</ele>
        <time>2022-07-23T15:31:05.535Z</time>
      </trkpt>
      <trkpt lat="44.89497" lon="5.36581">
        <ele>1056.557218</ele>
        <time>2022-07-23T15:31:10.430Z</time>
      </trkpt>
      <trkpt lat="44.89458" lon="5.36581">
        <ele>1056.522603</ele>
        <time>2022-07-23T15:31:22.887Z</time>
      </trkpt>
      <trkpt lat="44.8941" lon="5.36558">
        <ele>1056.486414</ele>
        <time>2022-07-23T15:31:40.171Z</time>
      </trkpt>
      <trkpt lat="44.89355" lon="5.36541">
        <ele>1056.644598</ele>
        <time>2022-07-23T15:31:59.135Z</time>
      </trkpt>
      <trkpt lat="44.8933" lon="5.36547">
        <ele>1056.712808</ele>
        <time>2022-07-23T15:32:07.204Z</time>
      </trkpt>
      <trkpt lat="44.89237" lon="5.36579">
        <ele>1056.981433</ele>
        <time>2022-07-23T15:32:38.933Z</time>
      </trkpt>
      <trkpt lat="44.89107" lon="5.36602">
        <ele>1057.313465</ele>
        <time>2022-07-23T15:33:22.015Z</time>
      </trkpt>
      <trkpt lat="44.8904" lon="5.36603">
        <ele>1057.491868</ele>
        <time>2022-07-23T15:33:44.549Z</time>
      </trkpt>
      <trkpt lat="44.88994" lon="5.36612">
        <ele>1057.624191</ele>
        <time>2022-07-23T15:33:59.741Z</time>
      </trkpt>
      <trkpt lat="44.88881" lon="5.36621">
        <ele>1057.951227</ele>
        <time>2022-07-23T15:34:37.150Z</time>
      </trkpt>
      <trkpt lat="44.88813" lon="5.36617">
        <ele>1058.669426</ele>
        <time>2022-07-23T15:35:00.326Z</time>
      </trkpt>
      <trkpt lat="44.88748" lon="5.36603">
        <ele>1059.384434</ele>
        <time>2022-07-23T15:35:24.635Z</time>
      </trkpt>
      <trkpt lat="44.88698" lon="5.36599">
        <ele>1059.970657</ele>
        <time>2022-07-23T15:35:44.361Z</time>
      </trkpt>
      <trkpt lat="44.88674" lon="5.36593">
        <ele>1060.85794</ele>
        <time>2022-07-23T15:35:54.814Z</time>
      </trkpt>
      <trkpt lat="44.88658" lon="5.36584">
        <ele>1061.489458</ele>
        <time>2022-07-23T15:36:02.567Z</time>
      </trkpt>
      <trkpt lat="44.88562" lon="5.36517">
        <ele>1065.354556</ele>
        <time>2022-07-23T15:36:56.641Z</time>
      </trkpt>
      <trkpt lat="44.88503" lon="5.36496">
        <ele>1068.20955</ele>
        <time>2022-07-23T15:37:32.078Z</time>
      </trkpt>
      <trkpt lat="44.88475" lon="5.36482">
        <ele>1069.944679</ele>
        <time>2022-07-23T15:37:50.636Z</time>
      </trkpt>
      <trkpt lat="44.88439" lon="5.36442">
        <ele>1072.571334</ele>
        <time>2022-07-23T15:38:19.011Z</time>
      </trkpt>
      <trkpt lat="44.88423" lon="5.36432">
        <ele>1073.586079</ele>
        <time>2022-07-23T15:38:30.476Z</time>
      </trkpt>
      <trkpt lat="44.88361" lon="5.36422">
        <ele>1077.169448</ele>
        <time>2022-07-23T15:39:07.838Z</time>
      </trkpt>
      <trkpt lat="44.8828" lon="5.36398">
        <ele>1082.497593</ele>
        <time>2022-07-23T15:39:58.350Z</time>
      </trkpt>
      <trkpt lat="44.88265" lon="5.36384">
        <ele>1083.64877</ele>
        <time>2022-07-23T15:40:09.216Z</time>
      </trkpt>
      <trkpt lat="44.88243" lon="5.3637">
        <ele>1085.241392</ele>
        <time>2022-07-23T15:40:25.905Z</time>
      </trkpt>
      <trkpt lat="44.88225" lon="5.36362">
        <ele>1086.452027</ele>
        <time>2022-07-23T15:40:38.552Z</time>
      </trkpt>
      <trkpt lat="44.88195" lon="5.36367">
        <ele>1088.420969</ele>
        <time>2022-07-23T15:40:58.979Z</time>
      </trkpt>
      <trkpt lat="44.88184" lon="5.36377">
        <ele>1089.399246</ele>
        <time>2022-07-23T15:41:08.687Z</time>
      </trkpt>
      <trkpt lat="44.88151" lon="5.36392">
        <ele>1091.934457</ele>
        <time>2022-07-23T15:41:32.367Z</time>
      </trkpt>
      <trkpt lat="44.88125" lon="5.36395">
        <ele>1093.921695</ele>
        <time>2022-07-23T15:41:50.486Z</time>
      </trkpt>
      <trkpt lat="44.88094" lon="5.36367">
        <ele>1096.660882</ele>
        <time>2022-07-23T15:42:16.749Z</time>
      </trkpt>
      <trkpt lat="44.88078" lon="5.36342">
        <ele>1098.494231</ele>
        <time>2022-07-23T15:42:34.149Z</time>
      </trkpt>
      <trkpt lat="44.88036" lon="5.36245">
        <ele>1103.677067</ele>
        <time>2022-07-23T15:43:29.069Z</time>
      </trkpt>
      <trkpt lat="44.88024" lon="5.36209">
        <ele>1105.170126</ele>
        <time>2022-07-23T15:43:46.215Z</time>
      </trkpt>
      <trkpt lat="44.88011" lon="5.36203">
        <ele>1105.881315</ele>
        <time>2022-07-23T15:43:54.320Z</time>
      </trkpt>
      <trkpt lat="44.87978" lon="5.36223">
        <ele>1107.802916</ele>
        <time>2022-07-23T15:44:14.699Z</time>
      </trkpt>
      <trkpt lat="44.87957" lon="5.36223">
        <ele>1108.898411</ele>
        <time>2022-07-23T15:44:25.495Z</time>
      </trkpt>
      <trkpt lat="44.87935" lon="5.36218">
        <ele>1110.113716</ele>
        <time>2022-07-23T15:44:37.654Z</time>
      </trkpt>
      <trkpt lat="44.87912" lon="5.36209">
        <ele>1111.322316</ele>
        <time>2022-07-23T15:44:49.682Z</time>
      </trkpt>
      <trkpt lat="44.87882" lon="5.36178">
        <ele>1112.732151</ele>
        <time>2022-07-23T15:45:07.514Z</time>
      </trkpt>
      <trkpt lat="44.87773" lon="5.36125">
        <ele>1117.097416</ele>
        <time>2022-07-23T15:46:05.440Z</time>
      </trkpt>
      <trkpt lat="44.87777" lon="5.36109">
        <ele>1117.55434</ele>
        <time>2022-07-23T15:46:10.383Z</time>
      </trkpt>
      <trkpt lat="44.87762" lon="5.36098">
        <ele>1118.198615</ele>
        <time>2022-07-23T15:46:17.257Z</time>
      </trkpt>
      <trkpt lat="44.87625" lon="5.36029">
        <ele>1124.563924</ele>
        <time>2022-07-23T15:47:18.133Z</time>
      </trkpt>
      <trkpt lat="44.87556" lon="5.36005">
        <ele>1127.640884</ele>
        <time>2022-07-23T15:47:50.030Z</time>
      </trkpt>
      <trkpt lat="44.87389" lon="5.35886">
        <ele>1135.861356</ele>
        <time>2022-07-23T15:49:05.828Z</time>
      </trkpt>
      <trkpt lat="44.87283" lon="5.35845">
        <ele>1141.085109</ele>
        <time>2022-07-23T15:49:53.491Z</time>
      </trkpt>
      <trkpt lat="44.87143" lon="5.35774">
        <ele>1149.366005</ele>
        <time>2022-07-23T15:51:09.378Z</time>
      </trkpt>
      <trkpt lat="44.87132" lon="5.35743">
        <ele>1150.734055</ele>
        <time>2022-07-23T15:51:23.106Z</time>
      </trkpt>
      <trkpt lat="44.87104" lon="5.35712">
        <ele>1152.405476</ele>
        <time>2022-07-23T15:51:41.015Z</time>
      </trkpt>
      <trkpt lat="44.8703" lon="5.35644">
        <ele>1152.466219</ele>
        <time>2022-07-23T15:52:08.694Z</time>
      </trkpt>
      <trkpt lat="44.87021" lon="5.35641">
        <ele>1152.472213</ele>
        <time>2022-07-23T15:52:10.335Z</time>
      </trkpt>
      <trkpt lat="44.87014" lon="5.35646">
        <ele>1152.477713</ele>
        <time>2022-07-23T15:52:12.977Z</time>
      </trkpt>
      <trkpt lat="44.87007" lon="5.35662">
        <ele>1152.48697</ele>
        <time>2022-07-23T15:52:15.046Z</time>
      </trkpt>
      <trkpt lat="44.87008" lon="5.35683">
        <ele>1152.497524</ele>
        <time>2022-07-23T15:52:17.664Z</time>
      </trkpt>
      <trkpt lat="44.87057" lon="5.36044">
        <ele>1142.037375</ele>
        <time>2022-07-23T15:52:53.728Z</time>
      </trkpt>
      <trkpt lat="44.87065" lon="5.36099">
        <ele>1141.436797</ele>
        <time>2022-07-23T15:52:59.910Z</time>
      </trkpt>
      <trkpt lat="44.87021" lon="5.36097">
        <ele>1140.772148</ele>
        <time>2022-07-23T15:53:07.708Z</time>
      </trkpt>
      <trkpt lat="44.87005" lon="5.36098">
        <ele>1140.535992</ele>
        <time>2022-07-23T15:53:11.531Z</time>
      </trkpt>
      <trkpt lat="44.8699" lon="5.36091">
        <ele>1140.293283</ele>
        <time>2022-07-23T15:53:15.382Z</time>
      </trkpt>
      <trkpt lat="44.86978" lon="5.36077">
        <ele>1140.060222</ele>
        <time>2022-07-23T15:53:20.554Z</time>
      </trkpt>
      <trkpt lat="44.86908" lon="5.35968">
        <ele>1144.019571</ele>
        <time>2022-07-23T15:53:59.749Z</time>
      </trkpt>
      <trkpt lat="44.8689" lon="5.35933">
        <ele>1145.321265</ele>
        <time>2022-07-23T15:54:12.167Z</time>
      </trkpt>
      <trkpt lat="44.8686" lon="5.35846">
        <ele>1148.634688</ele>
        <time>2022-07-23T15:54:45.076Z</time>
      </trkpt>
      <trkpt lat="44.86832" lon="5.35794">
        <ele>1151.817818</ele>
        <time>2022-07-23T15:55:09.179Z</time>
      </trkpt>
      <trkpt lat="44.86817" lon="5.35773">
        <ele>1153.260136</ele>
        <time>2022-07-23T15:55:21.203Z</time>
      </trkpt>
      <trkpt lat="44.86801" lon="5.35765">
        <ele>1154.386667</ele>
        <time>2022-07-23T15:55:29.355Z</time>
      </trkpt>
      <trkpt lat="44.86782" lon="5.35762">
        <ele>1155.710019</ele>
        <time>2022-07-23T15:55:39.693Z</time>
      </trkpt>
      <trkpt lat="44.86686" lon="5.35756">
        <ele>1162.939016</ele>
        <time>2022-07-23T15:56:33.641Z</time>
      </trkpt>
      <trkpt lat="44.86638" lon="5.35761">
        <ele>1167.17037</ele>
        <time>2022-07-23T15:57:04.619Z</time>
      </trkpt>
      <trkpt lat="44.86575" lon="5.35741">
        <ele>1172.856908</ele>
        <time>2022-07-23T15:57:45.495Z</time>
      </trkpt>
      <trkpt lat="44.86546" lon="5.35745">
        <ele>1175.38301</ele>
        <time>2022-07-23T15:58:04.885Z</time>
      </trkpt>
      <trkpt lat="44.86495" lon="5.35726">
        <ele>1181.440015</ele>
        <time>2022-07-23T15:58:42.459Z</time>
      </trkpt>
      <trkpt lat="44.86437" lon="5.35719">
        <ele>1188.017182</ele>
        <time>2022-07-23T15:59:24.777Z</time>
      </trkpt>
      <trkpt lat="44.86359" lon="5.35694">
        <ele>1197.320581</ele>
        <time>2022-07-23T16:00:33.029Z</time>
      </trkpt>
      <trkpt lat="44.86349" lon="5.35699">
        <ele>1198.840346</ele>
        <time>2022-07-23T16:00:43.769Z</time>
      </trkpt>
      <trkpt lat="44.86332" lon="5.35715">
        <ele>1201.535146</ele>
        <time>2022-07-23T16:01:03.419Z</time>
      </trkpt>
      <trkpt lat="44.86322" lon="5.35711">
        <ele>1202.890405</ele>
        <time>2022-07-23T16:01:13.110Z</time>
      </trkpt>
      <trkpt lat="44.86291" lon="5.35682">
        <ele>1207.838228</ele>
        <time>2022-07-23T16:01:49.574Z</time>
      </trkpt>
      <trkpt lat="44.86271" lon="5.35663">
        <ele>1210.975863</ele>
        <time>2022-07-23T16:02:14.519Z</time>
      </trkpt>
      <trkpt lat="44.86253" lon="5.35637">
        <ele>1214.36866</ele>
        <time>2022-07-23T16:02:40.238Z</time>
      </trkpt>
      <trkpt lat="44.86219" lon="5.3562">
        <ele>1219.145115</ele>
        <time>2022-07-23T16:03:15.173Z</time>
      </trkpt>
      <trkpt lat="44.86176" lon="5.3559">
        <ele>1225.108672</ele>
        <time>2022-07-23T16:04:01.301Z</time>
      </trkpt>
      <trkpt lat="44.86151" lon="5.3556">
        <ele>1229.093227</ele>
        <time>2022-07-23T16:04:33.226Z</time>
      </trkpt>
      <trkpt lat="44.86077" lon="5.35544">
        <ele>1238.287695</ele>
        <time>2022-07-23T16:05:41.213Z</time>
      </trkpt>
      <trkpt lat="44.86025" lon="5.35515">
        <ele>1244.598404</ele>
        <time>2022-07-23T16:06:30.906Z</time>
      </trkpt>
      <trkpt lat="44.85986" lon="5.35486">
        <ele>1249.156338</ele>
        <time>2022-07-23T16:07:11.237Z</time>
      </trkpt>
      <trkpt lat="44.85971" lon="5.35478">
        <ele>1250.797169</ele>
        <time>2022-07-23T16:07:24.824Z</time>
      </trkpt>
      <trkpt lat="44.85936" lon="5.35491">
        <ele>1254.474317</ele>
        <time>2022-07-23T16:07:53.010Z</time>
      </trkpt>
      <trkpt lat="44.85932" lon="5.35492">
        <ele>1254.932014</ele>
        <time>2022-07-23T16:07:56.442Z</time>
      </trkpt>
      <trkpt lat="44.85908" lon="5.35479">
        <ele>1257.580564</ele>
        <time>2022-07-23T16:08:15.273Z</time>
      </trkpt>
      <trkpt lat="44.85895" lon="5.35458">
        <ele>1259.607863</ele>
        <time>2022-07-23T16:08:32.502Z</time>
      </trkpt>
      <trkpt lat="44.85887" lon="5.3543">
        <ele>1261.598853</ele>
        <time>2022-07-23T16:08:50.169Z</time>
      </trkpt>
      <trkpt lat="44.8589" lon="5.35364">
        <ele>1265.560374</ele>
        <time>2022-07-23T16:09:25.092Z</time>
      </trkpt>
      <trkpt lat="44.85888" lon="5.35325">
        <ele>1267.958022</ele>
        <time>2022-07-23T16:09:43.762Z</time>
      </trkpt>
      <trkpt lat="44.85871" lon="5.35279">
        <ele>1271.012645</ele>
        <time>2022-07-23T16:10:10.973Z</time>
      </trkpt>
      <trkpt lat="44.8587" lon="5.35265">
        <ele>1271.889979</ele>
        <time>2022-07-23T16:10:19.906Z</time>
      </trkpt>
      <trkpt lat="44.85869" lon="5.3525">
        <ele>1272.810087</ele>
        <time>2022-07-23T16:10:28.448Z</time>
      </trkpt>
      <trkpt lat="44.85873" lon="5.35148">
        <ele>1278.711706</ele>
        <time>2022-07-23T16:11:19.018Z</time>
      </trkpt>
      <trkpt lat="44.8588" lon="5.35119">
        <ele>1280.407038</ele>
        <time>2022-07-23T16:11:34.008Z</time>
      </trkpt>
      <trkpt lat="44.85895" lon="5.35096">
        <ele>1282.212194</ele>
        <time>2022-07-23T16:11:50.591Z</time>
      </trkpt>
      <trkpt lat="44.85933" lon="5.35017">
        <ele>1287.508421</ele>
        <time>2022-07-23T16:12:35.374Z</time>
      </trkpt>
      <trkpt lat="44.85965" lon="5.34964">
        <ele>1291.583759</ele>
        <time>2022-07-23T16:13:14.923Z</time>
      </trkpt>
      <trkpt lat="44.85974" lon="5.34934">
        <ele>1293.648438</ele>
        <time>2022-07-23T16:13:32.182Z</time>
      </trkpt>
      <trkpt lat="44.86001" lon="5.34895">
        <ele>1297.086581</ele>
        <time>2022-07-23T16:13:58.697Z</time>
      </trkpt>
      <trkpt lat="44.86021" lon="5.34874">
        <ele>1299.352419</ele>
        <time>2022-07-23T16:14:17.474Z</time>
      </trkpt>
      <trkpt lat="44.86035" lon="5.34867">
        <ele>1300.64123</ele>
        <time>2022-07-23T16:14:26.044Z</time>
      </trkpt>
      <trkpt lat="44.86038" lon="5.34861">
        <ele>1301.116122</ele>
        <time>2022-07-23T16:14:31.629Z</time>
      </trkpt>
      <trkpt lat="44.86036" lon="5.34854">
        <ele>1301.586513</ele>
        <time>2022-07-23T16:14:38.237Z</time>
      </trkpt>
      <trkpt lat="44.85988" lon="5.34829">
        <ele>1306.194129</ele>
        <time>2022-07-23T16:15:19.603Z</time>
      </trkpt>
      <trkpt lat="44.8595" lon="5.34813">
        <ele>1310.164658</ele>
        <time>2022-07-23T16:15:51.615Z</time>
      </trkpt>
      <trkpt lat="44.85914" lon="5.34778">
        <ele>1314.571261</ele>
        <time>2022-07-23T16:16:27.581Z</time>
      </trkpt>
      <trkpt lat="44.85891" lon="5.34765">
        <ele>1317.061156</ele>
        <time>2022-07-23T16:16:50.068Z</time>
      </trkpt>
      <trkpt lat="44.85876" lon="5.34757">
        <ele>1318.592564</ele>
        <time>2022-07-23T16:17:01.627Z</time>
      </trkpt>
      <trkpt lat="44.85801" lon="5.34698">
        <ele>1326.941047</ele>
        <time>2022-07-23T16:18:10.618Z</time>
      </trkpt>
      <trkpt lat="44.85774" lon="5.34672">
        <ele>1329.942033</ele>
        <time>2022-07-23T16:18:38.368Z</time>
      </trkpt>
      <trkpt lat="44.85752" lon="5.34659">
        <ele>1332.143876</ele>
        <time>2022-07-23T16:18:58.924Z</time>
      </trkpt>
      <trkpt lat="44.85695" lon="5.34595">
        <ele>1338.782024</ele>
        <time>2022-07-23T16:19:49.954Z</time>
      </trkpt>
      <trkpt lat="44.85639" lon="5.3454">
        <ele>1344.978369</ele>
        <time>2022-07-23T16:20:42.232Z</time>
      </trkpt>
      <trkpt lat="44.85611" lon="5.34498">
        <ele>1348.59909</ele>
        <time>2022-07-23T16:21:13.457Z</time>
      </trkpt>
      <trkpt lat="44.85536" lon="5.34431">
        <ele>1356.52013</ele>
        <time>2022-07-23T16:22:19.812Z</time>
      </trkpt>
      <trkpt lat="44.85518" lon="5.34421">
        <ele>1358.786595</ele>
        <time>2022-07-23T16:22:36.124Z</time>
      </trkpt>
      <trkpt lat="44.85473" lon="5.3442">
        <ele>1363.819398</ele>
        <time>2022-07-23T16:23:15.309Z</time>
      </trkpt>
      <trkpt lat="44.85417" lon="5.34393">
        <ele>1370.677973</ele>
        <time>2022-07-23T16:24:10.644Z</time>
      </trkpt>
      <trkpt lat="44.85351" lon="5.34348">
        <ele>1378.382857</ele>
        <time>2022-07-23T16:25:21.302Z</time>
      </trkpt>
      <trkpt lat="44.85308" lon="5.34325">
        <ele>1381.810009</ele>
        <time>2022-07-23T16:25:58.458Z</time>
      </trkpt>
      <trkpt lat="44.85278" lon="5.34318">
        <ele>1384.133833</ele>
        <time>2022-07-23T16:26:22.346Z</time>
      </trkpt>
      <trkpt lat="44.85267" lon="5.34307">
        <ele>1385.163433</ele>
        <time>2022-07-23T16:26:31.056Z</time>
      </trkpt>
      <trkpt lat="44.85265" lon="5.34292">
        <ele>1385.952076</ele>
        <time>2022-07-23T16:26:40.943Z</time>
      </trkpt>
      <trkpt lat="44.8527" lon="5.34281">
        <ele>1386.669678</ele>
        <time>2022-07-23T16:26:45.335Z</time>
      </trkpt>
      <trkpt lat="44.85283" lon="5.34271">
        <ele>1387.765076</ele>
        <time>2022-07-23T16:26:52.484Z</time>
      </trkpt>
      <trkpt lat="44.85306" lon="5.34263">
        <ele>1389.59375</ele>
        <time>2022-07-23T16:27:05.773Z</time>
      </trkpt>
      <trkpt lat="44.85333" lon="5.34259">
        <ele>1390.533031</ele>
        <time>2022-07-23T16:27:18.167Z</time>
      </trkpt>
      <trkpt lat="44.85376" lon="5.34257">
        <ele>1390.017514</ele>
        <time>2022-07-23T16:27:31.903Z</time>
      </trkpt>
      <trkpt lat="44.85421" lon="5.34268">
        <ele>1389.479858</ele>
        <time>2022-07-23T16:27:44.469Z</time>
      </trkpt>
      <trkpt lat="44.85493" lon="5.34271">
        <ele>1388.625929</ele>
        <time>2022-07-23T16:28:02.776Z</time>
      </trkpt>
      <trkpt lat="44.85522" lon="5.34282">
        <ele>1388.466871</ele>
        <time>2022-07-23T16:28:10.528Z</time>
      </trkpt>
      <trkpt lat="44.85583" lon="5.34337">
        <ele>1388.218262</ele>
        <time>2022-07-23T16:28:30.897Z</time>
      </trkpt>
      <trkpt lat="44.85605" lon="5.3435">
        <ele>1388.135975</ele>
        <time>2022-07-23T16:28:38.943Z</time>
      </trkpt>
      <trkpt lat="44.85652" lon="5.34362">
        <ele>1387.971403</ele>
        <time>2022-07-23T16:28:57.929Z</time>
      </trkpt>
      <trkpt lat="44.8569" lon="5.34366">
        <ele>1389.416457</ele>
        <time>2022-07-23T16:29:15.085Z</time>
      </trkpt>
      <trkpt lat="44.85737" lon="5.34358">
        <ele>1392.176988</ele>
        <time>2022-07-23T16:29:39.023Z</time>
      </trkpt>
      <trkpt lat="44.85768" lon="5.34345">
        <ele>1394.05508</ele>
        <time>2022-07-23T16:29:59.442Z</time>
      </trkpt>
      <trkpt lat="44.85782" lon="5.34342">
        <ele>1394.917834</ele>
        <time>2022-07-23T16:30:10.322Z</time>
      </trkpt>
      <trkpt lat="44.85831" lon="5.34358">
        <ele>1397.813506</ele>
        <time>2022-07-23T16:30:47.276Z</time>
      </trkpt>
      <trkpt lat="44.85854" lon="5.34359">
        <ele>1399.415316</ele>
        <time>2022-07-23T16:31:04.930Z</time>
      </trkpt>
      <trkpt lat="44.85876" lon="5.34355">
        <ele>1401.133316</ele>
        <time>2022-07-23T16:31:21.377Z</time>
      </trkpt>
      <trkpt lat="44.8591" lon="5.34336">
        <ele>1403.90247</ele>
        <time>2022-07-23T16:31:48.140Z</time>
      </trkpt>
      <trkpt lat="44.85942" lon="5.3432">
        <ele>1406.457938</ele>
        <time>2022-07-23T16:32:12.420Z</time>
      </trkpt>
      <trkpt lat="44.86024" lon="5.343">
        <ele>1412.42336</ele>
        <time>2022-07-23T16:33:09.504Z</time>
      </trkpt>
      <trkpt lat="44.86108" lon="5.34294">
        <ele>1415.060022</ele>
        <time>2022-07-23T16:33:56.265Z</time>
      </trkpt>
      <trkpt lat="44.86183" lon="5.34281">
        <ele>1417.409117</ele>
        <time>2022-07-23T16:34:24.282Z</time>
      </trkpt>
      <trkpt lat="44.86203" lon="5.34284">
        <ele>1417.52697</ele>
        <time>2022-07-23T16:34:31.193Z</time>
      </trkpt>
      <trkpt lat="44.86234" lon="5.34282">
        <ele>1416.818715</ele>
        <time>2022-07-23T16:34:40.654Z</time>
      </trkpt>
      <trkpt lat="44.86252" lon="5.34283">
        <ele>1416.383758</ele>
        <time>2022-07-23T16:34:45.759Z</time>
      </trkpt>
      <trkpt lat="44.86306" lon="5.34299">
        <ele>1415.113931</ele>
        <time>2022-07-23T16:35:00.303Z</time>
      </trkpt>
      <trkpt lat="44.86362" lon="5.34328">
        <ele>1413.740931</ele>
        <time>2022-07-23T16:35:15.247Z</time>
      </trkpt>
      <trkpt lat="44.864" lon="5.34339">
        <ele>1412.793573</ele>
        <time>2022-07-23T16:35:24.660Z</time>
      </trkpt>
      <trkpt lat="44.86431" lon="5.34352">
        <ele>1411.96884</ele>
        <time>2022-07-23T16:35:32.958Z</time>
      </trkpt>
      <trkpt lat="44.86501" lon="5.3439">
        <ele>1410.106484</ele>
        <time>2022-07-23T16:35:52.291Z</time>
      </trkpt>
      <trkpt lat="44.86564" lon="5.34407">
        <ele>1409.987723</ele>
        <time>2022-07-23T16:36:12.300Z</time>
      </trkpt>
      <trkpt lat="44.8666" lon="5.34432">
        <ele>1413.614175</ele>
        <time>2022-07-23T16:36:58.352Z</time>
      </trkpt>
      <trkpt lat="44.86676" lon="5.34435">
        <ele>1414.225057</ele>
        <time>2022-07-23T16:37:09.699Z</time>
      </trkpt>
      <trkpt lat="44.86731" lon="5.34459">
        <ele>1417.126353</ele>
        <time>2022-07-23T16:37:46.167Z</time>
      </trkpt>
      <trkpt lat="44.86777" lon="5.34471">
        <ele>1421.207985</ele>
        <time>2022-07-23T16:38:21.406Z</time>
      </trkpt>
      <trkpt lat="44.86821" lon="5.34474">
        <ele>1425.047675</ele>
        <time>2022-07-23T16:38:56.001Z</time>
      </trkpt>
      <trkpt lat="44.86854" lon="5.34475">
        <ele>1428.006817</ele>
        <time>2022-07-23T16:39:21.092Z</time>
      </trkpt>
      <trkpt lat="44.86895" lon="5.34469">
        <ele>1431.537789</ele>
        <time>2022-07-23T16:39:54.322Z</time>
      </trkpt>
      <trkpt lat="44.86931" lon="5.34458">
        <ele>1434.556153</ele>
        <time>2022-07-23T16:40:25.618Z</time>
      </trkpt>
      <trkpt lat="44.86992" lon="5.34453">
        <ele>1439.411803</ele>
        <time>2022-07-23T16:41:12.980Z</time>
      </trkpt>
      <trkpt lat="44.8701" lon="5.34445">
        <ele>1440.959064</ele>
        <time>2022-07-23T16:41:27.425Z</time>
      </trkpt>
      <trkpt lat="44.87029" lon="5.34437">
        <ele>1442.481634</ele>
        <time>2022-07-23T16:41:40.668Z</time>
      </trkpt>
      <trkpt lat="44.8706" lon="5.34435">
        <ele>1444.97215</ele>
        <time>2022-07-23T16:41:59.600Z</time>
      </trkpt>
      <trkpt lat="44.8707" lon="5.34436">
        <ele>1445.832369</ele>
        <time>2022-07-23T16:42:06.941Z</time>
      </trkpt>
      <trkpt lat="44.87123" lon="5.34441">
        <ele>1446.357721</ele>
        <time>2022-07-23T16:42:35.196Z</time>
      </trkpt>
      <trkpt lat="44.87278" lon="5.34457">
        <ele>1446.295524</ele>
        <time>2022-07-23T16:43:21.444Z</time>
      </trkpt>
      <trkpt lat="44.87332" lon="5.3444">
        <ele>1444.23024</ele>
        <time>2022-07-23T16:43:34.121Z</time>
      </trkpt>
      <trkpt lat="44.8738" lon="5.34452">
        <ele>1442.394417</ele>
        <time>2022-07-23T16:43:45.828Z</time>
      </trkpt>
      <trkpt lat="44.87426" lon="5.34533">
        <ele>1440.516307</ele>
        <time>2022-07-23T16:44:04.699Z</time>
      </trkpt>
      <trkpt lat="44.87552" lon="5.34578">
        <ele>1440.474273</ele>
        <time>2022-07-23T16:44:43.879Z</time>
      </trkpt>
      <trkpt lat="44.87603" lon="5.3462">
        <ele>1442.778058</ele>
        <time>2022-07-23T16:45:16.995Z</time>
      </trkpt>
      <trkpt lat="44.87647" lon="5.34639">
        <ele>1445.917276</ele>
        <time>2022-07-23T16:45:47.482Z</time>
      </trkpt>
      <trkpt lat="44.87741" lon="5.34648">
        <ele>1452.348251</ele>
        <time>2022-07-23T16:46:54.038Z</time>
      </trkpt>
      <trkpt lat="44.8778" lon="5.34679">
        <ele>1456.737616</ele>
        <time>2022-07-23T16:47:29.233Z</time>
      </trkpt>
      <trkpt lat="44.87893" lon="5.34696">
        <ele>1468.424869</ele>
        <time>2022-07-23T16:49:08.013Z</time>
      </trkpt>
      <trkpt lat="44.87959" lon="5.34716">
        <ele>1475.52848</ele>
        <time>2022-07-23T16:50:04.739Z</time>
      </trkpt>
      <trkpt lat="44.88043" lon="5.34722">
        <ele>1484.491491</ele>
        <time>2022-07-23T16:51:15.417Z</time>
      </trkpt>
      <trkpt lat="44.8813" lon="5.34748">
        <ele>1493.542462</ele>
        <time>2022-07-23T16:52:34.524Z</time>
      </trkpt>
      <trkpt lat="44.88274" lon="5.34758">
        <ele>1506.835405</ele>
        <time>2022-07-23T16:54:27.600Z</time>
      </trkpt>
      <trkpt lat="44.88355" lon="5.34773">
        <ele>1509.266727</ele>
        <time>2022-07-23T16:55:14.611Z</time>
      </trkpt>
      <trkpt lat="44.88534" lon="5.34855">
        <ele>1513.604301</ele>
        <time>2022-07-23T16:56:14.887Z</time>
      </trkpt>
      <trkpt lat="44.88561" lon="5.34858">
        <ele>1514.075995</ele>
        <time>2022-07-23T16:56:25.563Z</time>
      </trkpt>
      <trkpt lat="44.88647" lon="5.34886">
        <ele>1516.342525</ele>
        <time>2022-07-23T16:57:09.319Z</time>
      </trkpt>
      <trkpt lat="44.88747" lon="5.34886">
        <ele>1521.465973</ele>
        <time>2022-07-23T16:58:10.891Z</time>
      </trkpt>
      <trkpt lat="44.88878" lon="5.34938">
        <ele>1526.389357</ele>
        <time>2022-07-23T16:59:27.325Z</time>
      </trkpt>
      <trkpt lat="44.88954" lon="5.34946">
        <ele>1528.362732</ele>
        <time>2022-07-23T16:59:56.768Z</time>
      </trkpt>
      <trkpt lat="44.89058" lon="5.34997">
        <ele>1528.258331</ele>
        <time>2022-07-23T17:00:30.290Z</time>
      </trkpt>
      <trkpt lat="44.89227" lon="5.35041">
        <ele>1524.73843</ele>
        <time>2022-07-23T17:01:19.067Z</time>
      </trkpt>
      <trkpt lat="44.89325" lon="5.35079">
        <ele>1521.1737</ele>
        <time>2022-07-23T17:01:43.570Z</time>
      </trkpt>
      <trkpt lat="44.89463" lon="5.35072">
        <ele>1512.827351</ele>
        <time>2022-07-23T17:02:15.826Z</time>
      </trkpt>
      <trkpt lat="44.89524" lon="5.35099">
        <ele>1509.984078</ele>
        <time>2022-07-23T17:02:30.272Z</time>
      </trkpt>
      <trkpt lat="44.8957" lon="5.35127">
        <ele>1509.319674</ele>
        <time>2022-07-23T17:02:43.291Z</time>
      </trkpt>
      <trkpt lat="44.89598" lon="5.35158">
        <ele>1508.844718</ele>
        <time>2022-07-23T17:02:53.785Z</time>
      </trkpt>
      <trkpt lat="44.89653" lon="5.35176">
        <ele>1508.088976</ele>
        <time>2022-07-23T17:03:14.052Z</time>
      </trkpt>
      <trkpt lat="44.8964" lon="5.35147">
        <ele>1508.151294</ele>
        <time>2022-07-23T17:03:25.235Z</time>
      </trkpt>
      <trkpt lat="44.89577" lon="5.3504">
        <ele>1511.732868</ele>
        <time>2022-07-23T17:04:15.798Z</time>
      </trkpt>
      <trkpt lat="44.89516" lon="5.34961">
        <ele>1514.319541</ele>
        <time>2022-07-23T17:05:02.578Z</time>
      </trkpt>
      <trkpt lat="44.89445" lon="5.34839">
        <ele>1513.455785</ele>
        <time>2022-07-23T17:05:45.785Z</time>
      </trkpt>
      <trkpt lat="44.89408" lon="5.34796">
        <ele>1513.083937</ele>
        <time>2022-07-23T17:05:57.349Z</time>
      </trkpt>
      <trkpt lat="44.89382" lon="5.34758">
        <ele>1510.446162</ele>
        <time>2022-07-23T17:06:05.689Z</time>
      </trkpt>
      <trkpt lat="44.89353" lon="5.34704">
        <ele>1505.738361</ele>
        <time>2022-07-23T17:06:16.365Z</time>
      </trkpt>
      <trkpt lat="44.89345" lon="5.34681">
        <ele>1503.986119</ele>
        <time>2022-07-23T17:06:20.204Z</time>
      </trkpt>
      <trkpt lat="44.89348" lon="5.34669">
        <ele>1503.14998</ele>
        <time>2022-07-23T17:06:22.215Z</time>
      </trkpt>
      <trkpt lat="44.89356" lon="5.34664">
        <ele>1502.330627</ele>
        <time>2022-07-23T17:06:23.993Z</time>
      </trkpt>
      <trkpt lat="44.89364" lon="5.34662">
        <ele>1501.493863</ele>
        <time>2022-07-23T17:06:25.682Z</time>
      </trkpt>
      <trkpt lat="44.89387" lon="5.34669">
        <ele>1499.268531</ele>
        <time>2022-07-23T17:06:30.874Z</time>
      </trkpt>
      <trkpt lat="44.89407" lon="5.34685">
        <ele>1497.056475</ele>
        <time>2022-07-23T17:06:35.639Z</time>
      </trkpt>
      <trkpt lat="44.89426" lon="5.34687">
        <ele>1495.075411</ele>
        <time>2022-07-23T17:06:39.613Z</time>
      </trkpt>
      <trkpt lat="44.89443" lon="5.34702">
        <ele>1492.359098</ele>
        <time>2022-07-23T17:06:43.875Z</time>
      </trkpt>
      <trkpt lat="44.89476" lon="5.34739">
        <ele>1486.789826</ele>
        <time>2022-07-23T17:06:52.548Z</time>
      </trkpt>
      <trkpt lat="44.89537" lon="5.34781">
        <ele>1477.814452</ele>
        <time>2022-07-23T17:07:06.675Z</time>
      </trkpt>
      <trkpt lat="44.89568" lon="5.34815">
        <ele>1472.643073</ele>
        <time>2022-07-23T17:07:14.554Z</time>
      </trkpt>
      <trkpt lat="44.89639" lon="5.34855">
        <ele>1461.723839</ele>
        <time>2022-07-23T17:07:29.877Z</time>
      </trkpt>
      <trkpt lat="44.8966" lon="5.34863">
        <ele>1458.580788</ele>
        <time>2022-07-23T17:07:34.340Z</time>
      </trkpt>
      <trkpt lat="44.89683" lon="5.34865">
        <ele>1455.268291</ele>
        <time>2022-07-23T17:07:38.969Z</time>
      </trkpt>
      <trkpt lat="44.89706" lon="5.34867">
        <ele>1451.952002</ele>
        <time>2022-07-23T17:07:43.602Z</time>
      </trkpt>
      <trkpt lat="44.8975" lon="5.34863">
        <ele>1445.548523</ele>
        <time>2022-07-23T17:07:52.917Z</time>
      </trkpt>
      <trkpt lat="44.89776" lon="5.34856">
        <ele>1442.721953</ele>
        <time>2022-07-23T17:07:58.258Z</time>
      </trkpt>
      <trkpt lat="44.89809" lon="5.34829">
        <ele>1438.499257</ele>
        <time>2022-07-23T17:08:06.251Z</time>
      </trkpt>
      <trkpt lat="44.89838" lon="5.34819">
        <ele>1435.254796</ele>
        <time>2022-07-23T17:08:12.460Z</time>
      </trkpt>
      <trkpt lat="44.89855" lon="5.34818">
        <ele>1433.385523</ele>
        <time>2022-07-23T17:08:16.238Z</time>
      </trkpt>
      <trkpt lat="44.89916" lon="5.34831">
        <ele>1426.655454</ele>
        <time>2022-07-23T17:08:30.045Z</time>
      </trkpt>
      <trkpt lat="44.89965" lon="5.34848">
        <ele>1420.818831</ele>
        <time>2022-07-23T17:08:40.548Z</time>
      </trkpt>
      <trkpt lat="44.90007" lon="5.34868">
        <ele>1415.520482</ele>
        <time>2022-07-23T17:08:50.058Z</time>
      </trkpt>
      <trkpt lat="44.90077" lon="5.34873">
        <ele>1407.233892</ele>
        <time>2022-07-23T17:09:04.608Z</time>
      </trkpt>
      <trkpt lat="44.90095" lon="5.34866">
        <ele>1404.950105</ele>
        <time>2022-07-23T17:09:08.428Z</time>
      </trkpt>
      <trkpt lat="44.9011" lon="5.34867">
        <ele>1403.037396</ele>
        <time>2022-07-23T17:09:11.517Z</time>
      </trkpt>
      <trkpt lat="44.90126" lon="5.34874">
        <ele>1400.864038</ele>
        <time>2022-07-23T17:09:14.855Z</time>
      </trkpt>
      <trkpt lat="44.90195" lon="5.3494">
        <ele>1390.061649</ele>
        <time>2022-07-23T17:09:31.964Z</time>
      </trkpt>
      <trkpt lat="44.90216" lon="5.34952">
        <ele>1387.096669</ele>
        <time>2022-07-23T17:09:36.619Z</time>
      </trkpt>
      <trkpt lat="44.90278" lon="5.34971">
        <ele>1379.80294</ele>
        <time>2022-07-23T17:09:50.219Z</time>
      </trkpt>
      <trkpt lat="44.90303" lon="5.35002">
        <ele>1376.873425</ele>
        <time>2022-07-23T17:09:57.440Z</time>
      </trkpt>
      <trkpt lat="44.90337" lon="5.35034">
        <ele>1373.33255</ele>
        <time>2022-07-23T17:10:06.181Z</time>
      </trkpt>
      <trkpt lat="44.9035" lon="5.3505">
        <ele>1371.774692</ele>
        <time>2022-07-23T17:10:10.169Z</time>
      </trkpt>
      <trkpt lat="44.90363" lon="5.35081">
        <ele>1369.566233</ele>
        <time>2022-07-23T17:10:15.886Z</time>
      </trkpt>
      <trkpt lat="44.90386" lon="5.35121">
        <ele>1366.354019</ele>
        <time>2022-07-23T17:10:24.165Z</time>
      </trkpt>
      <trkpt lat="44.90456" lon="5.35179">
        <ele>1362.481597</ele>
        <time>2022-07-23T17:10:42.397Z</time>
      </trkpt>
      <trkpt lat="44.9049" lon="5.35202">
        <ele>1360.763043</ele>
        <time>2022-07-23T17:10:51.519Z</time>
      </trkpt>
      <trkpt lat="44.90523" lon="5.35106">
        <ele>1358.029562</ele>
        <time>2022-07-23T17:11:11.744Z</time>
      </trkpt>
      <trkpt lat="44.90529" lon="5.35065">
        <ele>1359.073391</ele>
        <time>2022-07-23T17:11:21.750Z</time>
      </trkpt>
      <trkpt lat="44.90495" lon="5.34893">
        <ele>1363.45246</ele>
        <time>2022-07-23T17:12:29.826Z</time>
      </trkpt>
      <trkpt lat="44.90498" lon="5.34782">
        <ele>1368.872531</ele>
        <time>2022-07-23T17:13:24.647Z</time>
      </trkpt>
      <trkpt lat="44.90479" lon="5.34675">
        <ele>1374.95218</ele>
        <time>2022-07-23T17:14:20.354Z</time>
      </trkpt>
      <trkpt lat="44.90475" lon="5.34546">
        <ele>1383.211793</ele>
        <time>2022-07-23T17:15:28.807Z</time>
      </trkpt>
      <trkpt lat="44.90469" lon="5.34463">
        <ele>1389.152766</ele>
        <time>2022-07-23T17:16:17.614Z</time>
      </trkpt>
      <trkpt lat="44.90455" lon="5.34329">
        <ele>1398.684904</ele>
        <time>2022-07-23T17:17:42.410Z</time>
      </trkpt>
      <trkpt lat="44.90463" lon="5.34263">
        <ele>1403.311022</ele>
        <time>2022-07-23T17:18:23.468Z</time>
      </trkpt>
      <trkpt lat="44.90472" lon="5.34212">
        <ele>1406.930906</ele>
        <time>2022-07-23T17:18:52.437Z</time>
      </trkpt>
      <trkpt lat="44.90492" lon="5.34175">
        <ele>1410.130552</ele>
        <time>2022-07-23T17:19:17.544Z</time>
      </trkpt>
      <trkpt lat="44.9049" lon="5.34157">
        <ele>1411.368339</ele>
        <time>2022-07-23T17:19:27.994Z</time>
      </trkpt>
      <trkpt lat="44.90512" lon="5.34014">
        <ele>1419.319813</ele>
        <time>2022-07-23T17:20:41.076Z</time>
      </trkpt>
      <trkpt lat="44.90515" lon="5.33973">
        <ele>1421.426333</ele>
        <time>2022-07-23T17:20:58.930Z</time>
      </trkpt>
      <trkpt lat="44.90523" lon="5.33893">
        <ele>1425.532398</ele>
        <time>2022-07-23T17:21:34.821Z</time>
      </trkpt>
      <trkpt lat="44.9054" lon="5.33846">
        <ele>1427.908215</ele>
        <time>2022-07-23T17:22:00.794Z</time>
      </trkpt>
      <trkpt lat="44.90549" lon="5.33806">
        <ele>1429.685464</ele>
        <time>2022-07-23T17:22:22.251Z</time>
      </trkpt>
      <trkpt lat="44.90559" lon="5.3374">
        <ele>1432.552071</ele>
        <time>2022-07-23T17:22:55.740Z</time>
      </trkpt>
      <trkpt lat="44.90569" lon="5.33706">
        <ele>1434.113036</ele>
        <time>2022-07-23T17:23:10.644Z</time>
      </trkpt>
      <trkpt lat="44.90577" lon="5.33635">
        <ele>1437.104522</ele>
        <time>2022-07-23T17:23:29.955Z</time>
      </trkpt>
      <trkpt lat="44.90588" lon="5.33542">
        <ele>1437.143717</ele>
        <time>2022-07-23T17:23:54.455Z</time>
      </trkpt>
      <trkpt lat="44.90591" lon="5.33531">
        <ele>1437.148517</ele>
        <time>2022-07-23T17:23:55.691Z</time>
      </trkpt>
      <trkpt lat="44.90611" lon="5.33506">
        <ele>1437.164304</ele>
        <time>2022-07-23T17:24:04.869Z</time>
      </trkpt>
      <trkpt lat="44.90634" lon="5.33492">
        <ele>1437.178798</ele>
        <time>2022-07-23T17:24:08.642Z</time>
      </trkpt>
      <trkpt lat="44.90718" lon="5.33498">
        <ele>1435.403642</ele>
        <time>2022-07-23T17:24:20.207Z</time>
      </trkpt>
      <trkpt lat="44.90747" lon="5.3349">
        <ele>1433.75359</ele>
        <time>2022-07-23T17:24:23.910Z</time>
      </trkpt>
      <trkpt lat="44.90769" lon="5.33467">
        <ele>1432.210031</ele>
        <time>2022-07-23T17:24:27.475Z</time>
      </trkpt>
      <trkpt lat="44.90819" lon="5.33413">
        <ele>1428.649703</ele>
        <time>2022-07-23T17:24:35.687Z</time>
      </trkpt>
      <trkpt lat="44.90863" lon="5.33367">
        <ele>1426.503228</ele>
        <time>2022-07-23T17:24:42.692Z</time>
      </trkpt>
      <trkpt lat="44.90875" lon="5.33319">
        <ele>1425.698921</ele>
        <time>2022-07-23T17:24:47.413Z</time>
      </trkpt>
      <trkpt lat="44.90914" lon="5.33332">
        <ele>1424.811051</ele>
        <time>2022-07-23T17:24:57.379Z</time>
      </trkpt>
      <trkpt lat="44.90921" lon="5.33338">
        <ele>1424.641163</ele>
        <time>2022-07-23T17:24:59.290Z</time>
      </trkpt>
      <trkpt lat="44.91011" lon="5.33404">
        <ele>1424.791496</ele>
        <time>2022-07-23T17:25:42.441Z</time>
      </trkpt>
      <trkpt lat="44.91019" lon="5.3341">
        <ele>1425.25306</ele>
        <time>2022-07-23T17:25:46.722Z</time>
      </trkpt>
      <trkpt lat="44.9102" lon="5.33606">
        <ele>1432.359549</ele>
        <time>2022-07-23T17:27:15.847Z</time>
      </trkpt>
      <trkpt lat="44.91023" lon="5.33766">
        <ele>1435.043463</ele>
        <time>2022-07-23T17:28:20.223Z</time>
      </trkpt>
      <trkpt lat="44.91011" lon="5.33805">
        <ele>1435.746583</ele>
        <time>2022-07-23T17:28:29.378Z</time>
      </trkpt>
      <trkpt lat="44.91022" lon="5.33853">
        <ele>1436.597993</ele>
        <time>2022-07-23T17:28:38.794Z</time>
      </trkpt>
      <trkpt lat="44.9104" lon="5.33912">
        <ele>1434.657792</ele>
        <time>2022-07-23T17:28:50.032Z</time>
      </trkpt>
      <trkpt lat="44.91044" lon="5.33994">
        <ele>1432.133104</ele>
        <time>2022-07-23T17:29:03.919Z</time>
      </trkpt>
      <trkpt lat="44.91106" lon="5.34122">
        <ele>1428.547509</ele>
        <time>2022-07-23T17:29:30.512Z</time>
      </trkpt>
      <trkpt lat="44.91166" lon="5.34187">
        <ele>1427.946634</ele>
        <time>2022-07-23T17:29:51.520Z</time>
      </trkpt>
      <trkpt lat="44.91191" lon="5.34203">
        <ele>1427.730416</ele>
        <time>2022-07-23T17:30:00.713Z</time>
      </trkpt>
      <trkpt lat="44.9123" lon="5.34217">
        <ele>1427.40997</ele>
        <time>2022-07-23T17:30:18.501Z</time>
      </trkpt>
      <trkpt lat="44.9128" lon="5.34245">
        <ele>1429.714894</ele>
        <time>2022-07-23T17:30:48.271Z</time>
      </trkpt>
      <trkpt lat="44.91325" lon="5.34264">
        <ele>1431.856725</ele>
        <time>2022-07-23T17:31:16.187Z</time>
      </trkpt>
      <trkpt lat="44.9137" lon="5.34307">
        <ele>1434.34607</ele>
        <time>2022-07-23T17:31:47.612Z</time>
      </trkpt>
      <trkpt lat="44.91446" lon="5.34373">
        <ele>1438.078899</ele>
        <time>2022-07-23T17:32:34.844Z</time>
      </trkpt>
      <trkpt lat="44.91474" lon="5.34385">
        <ele>1439.239466</ele>
        <time>2022-07-23T17:32:50.085Z</time>
      </trkpt>
      <trkpt lat="44.91502" lon="5.34387">
        <ele>1440.36097</ele>
        <time>2022-07-23T17:33:04.050Z</time>
      </trkpt>
      <trkpt lat="44.91541" lon="5.3438">
        <ele>1441.905775</ele>
        <time>2022-07-23T17:33:22.321Z</time>
      </trkpt>
      <trkpt lat="44.91541" lon="5.3438">
        <ele>1441.905775</ele>
        <time>2022-07-23T17:33:22.324Z</time>
      </trkpt>
      <trkpt lat="44.91592" lon="5.3435">
        <ele>1444.887464</ele>
        <time>2022-07-23T17:33:51.126Z</time>
      </trkpt>
      <trkpt lat="44.91625" lon="5.34308">
        <ele>1447.597771</ele>
        <time>2022-07-23T17:34:16.264Z</time>
      </trkpt>
      <trkpt lat="44.91637" lon="5.34264">
        <ele>1449.679394</ele>
        <time>2022-07-23T17:34:37.962Z</time>
      </trkpt>
      <trkpt lat="44.91655" lon="5.34263">
        <ele>1450.778867</ele>
        <time>2022-07-23T17:34:50.713Z</time>
      </trkpt>
      <trkpt lat="44.91711" lon="5.34427">
        <ele>1458.53618</ele>
        <time>2022-07-23T17:36:23.806Z</time>
      </trkpt>
      <trkpt lat="44.91727" lon="5.3445">
        <ele>1459.853715</ele>
        <time>2022-07-23T17:36:39.796Z</time>
      </trkpt>
      <trkpt lat="44.91765" lon="5.34481">
        <ele>1462.450573</ele>
        <time>2022-07-23T17:37:07.359Z</time>
      </trkpt>
      <trkpt lat="44.91785" lon="5.34537">
        <ele>1464.216047</ele>
        <time>2022-07-23T17:37:28.117Z</time>
      </trkpt>
      <trkpt lat="44.91767" lon="5.34651">
        <ele>1460.674383</ele>
        <time>2022-07-23T17:37:50.851Z</time>
      </trkpt>
      <trkpt lat="44.91743" lon="5.34709">
        <ele>1458.669583</ele>
        <time>2022-07-23T17:38:01.523Z</time>
      </trkpt>
      <trkpt lat="44.91719" lon="5.34844">
        <ele>1452.089707</ele>
        <time>2022-07-23T17:38:22.970Z</time>
      </trkpt>
      <trkpt lat="44.9173" lon="5.34931">
        <ele>1446.771166</ele>
        <time>2022-07-23T17:38:36.441Z</time>
      </trkpt>
      <trkpt lat="44.91794" lon="5.35055">
        <ele>1440.882021</ele>
        <time>2022-07-23T17:39:01.631Z</time>
      </trkpt>
      <trkpt lat="44.9179" lon="5.35105">
        <ele>1440.23275</ele>
        <time>2022-07-23T17:39:11.258Z</time>
      </trkpt>
      <trkpt lat="44.91824" lon="5.35152">
        <ele>1439.376213</ele>
        <time>2022-07-23T17:39:26.493Z</time>
      </trkpt>
      <trkpt lat="44.91835" lon="5.3516">
        <ele>1439.143492</ele>
        <time>2022-07-23T17:39:30.804Z</time>
      </trkpt>
      <trkpt lat="44.91866" lon="5.35229">
        <ele>1438.543994</ele>
        <time>2022-07-23T17:39:54.606Z</time>
      </trkpt>
      <trkpt lat="44.91887" lon="5.3526">
        <ele>1438.609756</ele>
        <time>2022-07-23T17:40:05.457Z</time>
      </trkpt>
      <trkpt lat="44.91901" lon="5.35276">
        <ele>1438.649038</ele>
        <time>2022-07-23T17:40:13.949Z</time>
      </trkpt>
      <trkpt lat="44.91911" lon="5.35303">
        <ele>1438.69439</ele>
        <time>2022-07-23T17:40:20.417Z</time>
      </trkpt>
      <trkpt lat="44.91918" lon="5.35314">
        <ele>1438.716729</ele>
        <time>2022-07-23T17:40:24.755Z</time>
      </trkpt>
      <trkpt lat="44.91927" lon="5.35322">
        <ele>1438.739413</ele>
        <time>2022-07-23T17:40:28.409Z</time>
      </trkpt>
      <trkpt lat="44.91938" lon="5.35323">
        <ele>1438.764076</ele>
        <time>2022-07-23T17:40:31.505Z</time>
      </trkpt>
      <trkpt lat="44.91958" lon="5.35318">
        <ele>1438.806948</ele>
        <time>2022-07-23T17:40:39.407Z</time>
      </trkpt>
      <trkpt lat="44.9196" lon="5.35317">
        <ele>1438.812194</ele>
        <time>2022-07-23T17:40:40.105Z</time>
      </trkpt>
      <trkpt lat="44.91947" lon="5.35398">
        <ele>1437.478489</ele>
        <time>2022-07-23T17:40:56.532Z</time>
      </trkpt>
      <trkpt lat="44.91933" lon="5.35437">
        <ele>1435.795711</ele>
        <time>2022-07-23T17:41:04.730Z</time>
      </trkpt>
      <trkpt lat="44.9192" lon="5.35463">
        <ele>1434.570082</ele>
        <time>2022-07-23T17:41:10.441Z</time>
      </trkpt>
      <trkpt lat="44.91914" lon="5.35494">
        <ele>1433.333743</ele>
        <time>2022-07-23T17:41:15.786Z</time>
      </trkpt>
      <trkpt lat="44.91917" lon="5.35539">
        <ele>1431.601292</ele>
        <time>2022-07-23T17:41:22.801Z</time>
      </trkpt>
      <trkpt lat="44.91925" lon="5.35583">
        <ele>1429.857434</ele>
        <time>2022-07-23T17:41:29.886Z</time>
      </trkpt>
      <trkpt lat="44.91934" lon="5.35609">
        <ele>1428.600944</ele>
        <time>2022-07-23T17:41:34.491Z</time>
      </trkpt>
      <trkpt lat="44.91945" lon="5.35623">
        <ele>1427.532237</ele>
        <time>2022-07-23T17:41:37.635Z</time>
      </trkpt>
      <trkpt lat="44.92019" lon="5.35587">
        <ele>1421.643131</ele>
        <time>2022-07-23T17:41:55.178Z</time>
      </trkpt>
      <trkpt lat="44.92071" lon="5.35566">
        <ele>1417.66112</ele>
        <time>2022-07-23T17:42:07.266Z</time>
      </trkpt>
      <trkpt lat="44.92085" lon="5.35563">
        <ele>1416.614641</ele>
        <time>2022-07-23T17:42:10.390Z</time>
      </trkpt>
      <trkpt lat="44.92099" lon="5.35564">
        <ele>1415.692464</ele>
        <time>2022-07-23T17:42:13.858Z</time>
      </trkpt>
      <trkpt lat="44.92117" lon="5.35569">
        <ele>1415.362898</ele>
        <time>2022-07-23T17:42:18.009Z</time>
      </trkpt>
      <trkpt lat="44.92133" lon="5.35581">
        <ele>1415.023361</ele>
        <time>2022-07-23T17:42:22.574Z</time>
      </trkpt>
      <trkpt lat="44.92182" lon="5.35659">
        <ele>1413.670741</ele>
        <time>2022-07-23T17:42:42.869Z</time>
      </trkpt>
      <trkpt lat="44.92192" lon="5.35669">
        <ele>1413.44249</ele>
        <time>2022-07-23T17:42:46.524Z</time>
      </trkpt>
      <trkpt lat="44.92251" lon="5.35682">
        <ele>1412.718504</ele>
        <time>2022-07-23T17:43:07.493Z</time>
      </trkpt>
      <trkpt lat="44.92295" lon="5.35703">
        <ele>1415.274389</ele>
        <time>2022-07-23T17:43:27.780Z</time>
      </trkpt>
      <trkpt lat="44.9231" lon="5.35873">
        <ele>1421.950614</ele>
        <time>2022-07-23T17:44:45.601Z</time>
      </trkpt>
      <trkpt lat="44.92319" lon="5.3592">
        <ele>1425.600603</ele>
        <time>2022-07-23T17:45:12.388Z</time>
      </trkpt>
      <trkpt lat="44.92332" lon="5.35951">
        <ele>1428.560426</ele>
        <time>2022-07-23T17:45:35.889Z</time>
      </trkpt>
      <trkpt lat="44.92333" lon="5.35974">
        <ele>1430.444573</ele>
        <time>2022-07-23T17:45:50.537Z</time>
      </trkpt>
      <trkpt lat="44.92323" lon="5.36079">
        <ele>1439.237506</ele>
        <time>2022-07-23T17:47:03.980Z</time>
      </trkpt>
      <trkpt lat="44.92323" lon="5.36118">
        <ele>1442.476629</ele>
        <time>2022-07-23T17:47:31.293Z</time>
      </trkpt>
      <trkpt lat="44.92329" lon="5.36178">
        <ele>1445.796351</ele>
        <time>2022-07-23T17:48:16.075Z</time>
      </trkpt>
      <trkpt lat="44.92362" lon="5.3631">
        <ele>1452.633368</ele>
        <time>2022-07-23T17:49:26.339Z</time>
      </trkpt>
      <trkpt lat="44.9238" lon="5.36369">
        <ele>1455.739857</ele>
        <time>2022-07-23T17:49:46.200Z</time>
      </trkpt>
      <trkpt lat="44.9239" lon="5.3638">
        <ele>1455.120464</ele>
        <time>2022-07-23T17:49:49.269Z</time>
      </trkpt>
      <trkpt lat="44.92397" lon="5.36388">
        <ele>1454.644128</ele>
        <time>2022-07-23T17:49:51.565Z</time>
      </trkpt>
      <trkpt lat="44.92421" lon="5.36433">
        <ele>1452.616556</ele>
        <time>2022-07-23T17:50:01.441Z</time>
      </trkpt>
      <trkpt lat="44.92469" lon="5.36565">
        <ele>1447.285795</ele>
        <time>2022-07-23T17:50:25.338Z</time>
      </trkpt>
      <trkpt lat="44.92488" lon="5.36631">
        <ele>1445.39857</ele>
        <time>2022-07-23T17:50:36.762Z</time>
      </trkpt>
      <trkpt lat="44.92498" lon="5.36652">
        <ele>1444.801973</ele>
        <time>2022-07-23T17:50:40.793Z</time>
      </trkpt>
      <trkpt lat="44.92511" lon="5.36672">
        <ele>1444.165339</ele>
        <time>2022-07-23T17:50:45.612Z</time>
      </trkpt>
      <trkpt lat="44.92519" lon="5.36677">
        <ele>1443.867031</ele>
        <time>2022-07-23T17:50:47.569Z</time>
      </trkpt>
      <trkpt lat="44.92548" lon="5.36685">
        <ele>1442.883797</ele>
        <time>2022-07-23T17:50:55.608Z</time>
      </trkpt>
      <trkpt lat="44.926" lon="5.36652">
        <ele>1440.999812</ele>
        <time>2022-07-23T17:51:12.606Z</time>
      </trkpt>
      <trkpt lat="44.92622" lon="5.36588">
        <ele>1441.381514</ele>
        <time>2022-07-23T17:51:32.250Z</time>
      </trkpt>
      <trkpt lat="44.92685" lon="5.36511">
        <ele>1442.860244</ele>
        <time>2022-07-23T17:52:06.387Z</time>
      </trkpt>
      <trkpt lat="44.92748" lon="5.36487">
        <ele>1444.157799</ele>
        <time>2022-07-23T17:52:35.117Z</time>
      </trkpt>
      <trkpt lat="44.92791" lon="5.36388">
        <ele>1446.648281</ele>
        <time>2022-07-23T17:53:15.052Z</time>
      </trkpt>
      <trkpt lat="44.92817" lon="5.36223">
        <ele>1449.90723</ele>
        <time>2022-07-23T17:54:11.664Z</time>
      </trkpt>
      <trkpt lat="44.92823" lon="5.36124">
        <ele>1451.174007</ele>
        <time>2022-07-23T17:54:41.532Z</time>
      </trkpt>
      <trkpt lat="44.92855" lon="5.36045">
        <ele>1452.341281</ele>
        <time>2022-07-23T17:55:06.103Z</time>
      </trkpt>
      <trkpt lat="44.9284" lon="5.36013">
        <ele>1452.72505</ele>
        <time>2022-07-23T17:55:15.172Z</time>
      </trkpt>
      <trkpt lat="44.9284" lon="5.35938">
        <ele>1453.252372</ele>
        <time>2022-07-23T17:55:32.433Z</time>
      </trkpt>
      <trkpt lat="44.92858" lon="5.35888">
        <ele>1453.643852</ele>
        <time>2022-07-23T17:55:46.916Z</time>
      </trkpt>
      <trkpt lat="44.92884" lon="5.35869">
        <ele>1453.933398</ele>
        <time>2022-07-23T17:55:57.338Z</time>
      </trkpt>
      <trkpt lat="44.92891" lon="5.35805">
        <ele>1454.426122</ele>
        <time>2022-07-23T17:56:15.457Z</time>
      </trkpt>
      <trkpt lat="44.92909" lon="5.35779">
        <ele>1455.192222</ele>
        <time>2022-07-23T17:56:26.016Z</time>
      </trkpt>
      <trkpt lat="44.92932" lon="5.35783">
        <ele>1455.853932</ele>
        <time>2022-07-23T17:56:36.638Z</time>
      </trkpt>
      <trkpt lat="44.92956" lon="5.35714">
        <ele>1457.46046</ele>
        <time>2022-07-23T17:57:00.760Z</time>
      </trkpt>
      <trkpt lat="44.92989" lon="5.35668">
        <ele>1458.841776</ele>
        <time>2022-07-23T17:57:24.944Z</time>
      </trkpt>
      <trkpt lat="44.9302" lon="5.35692">
        <ele>1459.939768</ele>
        <time>2022-07-23T17:57:43.524Z</time>
      </trkpt>
      <trkpt lat="44.93051" lon="5.35783">
        <ele>1462.569106</ele>
        <time>2022-07-23T17:58:18.388Z</time>
      </trkpt>
      <trkpt lat="44.93052" lon="5.35777">
        <ele>1462.718669</ele>
        <time>2022-07-23T17:58:21.468Z</time>
      </trkpt>
      <trkpt lat="44.93122" lon="5.35667">
        <ele>1466.500015</ele>
        <time>2022-07-23T17:59:14.116Z</time>
      </trkpt>
      <trkpt lat="44.93145" lon="5.35647">
        <ele>1467.024036</ele>
        <time>2022-07-23T17:59:26.862Z</time>
      </trkpt>
      <trkpt lat="44.93178" lon="5.35637">
        <ele>1467.691919</ele>
        <time>2022-07-23T17:59:43.044Z</time>
      </trkpt>
      <trkpt lat="44.93205" lon="5.35622">
        <ele>1468.266124</ele>
        <time>2022-07-23T17:59:55.587Z</time>
      </trkpt>
      <trkpt lat="44.93213" lon="5.35608">
        <ele>1468.517579</ele>
        <time>2022-07-23T18:00:00.933Z</time>
      </trkpt>
      <trkpt lat="44.9328" lon="5.35592">
        <ele>1469.858093</ele>
        <time>2022-07-23T18:00:26.349Z</time>
      </trkpt>
      <trkpt lat="44.93292" lon="5.35586">
        <ele>1469.697562</ele>
        <time>2022-07-23T18:00:30.722Z</time>
      </trkpt>
      <trkpt lat="44.93327" lon="5.3549">
        <ele>1468.094288</ele>
        <time>2022-07-23T18:00:52.864Z</time>
      </trkpt>
      <trkpt lat="44.93436" lon="5.3552">
        <ele>1465.475393</ele>
        <time>2022-07-23T18:01:21.225Z</time>
      </trkpt>
      <trkpt lat="44.93502" lon="5.35487">
        <ele>1462.856884</ele>
        <time>2022-07-23T18:01:38.343Z</time>
      </trkpt>
      <trkpt lat="44.93519" lon="5.35457">
        <ele>1461.85493</ele>
        <time>2022-07-23T18:01:44.963Z</time>
      </trkpt>
      <trkpt lat="44.93571" lon="5.35425">
        <ele>1459.718629</ele>
        <time>2022-07-23T18:01:59.395Z</time>
      </trkpt>
      <trkpt lat="44.93621" lon="5.35345">
        <ele>1458.112722</ele>
        <time>2022-07-23T18:02:19.783Z</time>
      </trkpt>
      <trkpt lat="44.93668" lon="5.3533">
        <ele>1457.180967</ele>
        <time>2022-07-23T18:02:34.398Z</time>
      </trkpt>
      <trkpt lat="44.93675" lon="5.35186">
        <ele>1453.622454</ele>
        <time>2022-07-23T18:03:02.658Z</time>
      </trkpt>
      <trkpt lat="44.93663" lon="5.35137">
        <ele>1451.358487</ele>
        <time>2022-07-23T18:03:11.487Z</time>
      </trkpt>
      <trkpt lat="44.93685" lon="5.34999">
        <ele>1445.182753</ele>
        <time>2022-07-23T18:03:34.753Z</time>
      </trkpt>
      <trkpt lat="44.93685" lon="5.34999">
        <ele>1445.182753</ele>
        <time>2022-07-23T18:03:35.073Z</time>
      </trkpt>
      <trkpt lat="44.93685" lon="5.34999">
        <ele>1445.182753</ele>
        <time>2022-07-23T18:03:35.073Z</time>
      </trkpt>
      <trkpt lat="44.93688" lon="5.34984">
        <ele>1443.886603</ele>
        <time>2022-07-23T18:03:39.849Z</time>
      </trkpt>
      <trkpt lat="44.93709" lon="5.35005">
        <ele>1439.192413</ele>
        <time>2022-07-23T18:03:45.217Z</time>
      </trkpt>
      <trkpt lat="44.93756" lon="5.35077">
        <ele>1426.63442</ele>
        <time>2022-07-23T18:03:59.006Z</time>
      </trkpt>
      <trkpt lat="44.93757" lon="5.35297">
        <ele>1392.116866</ele>
        <time>2022-07-23T18:04:29.275Z</time>
      </trkpt>
      <trkpt lat="44.93783" lon="5.35308">
        <ele>1385.111161</ele>
        <time>2022-07-23T18:04:34.549Z</time>
      </trkpt>
      <trkpt lat="44.93887" lon="5.35466">
        <ele>1347.561615</ele>
        <time>2022-07-23T18:05:04.222Z</time>
      </trkpt>
      <trkpt lat="44.93985" lon="5.35558">
        <ele>1320.829771</ele>
        <time>2022-07-23T18:05:27.119Z</time>
      </trkpt>
      <trkpt lat="44.94074" lon="5.35634">
        <ele>1300.734645</ele>
        <time>2022-07-23T18:05:47.844Z</time>
      </trkpt>
      <trkpt lat="44.94093" lon="5.35685">
        <ele>1292.884654</ele>
        <time>2022-07-23T18:05:55.738Z</time>
      </trkpt>
      <trkpt lat="44.94232" lon="5.35887">
        <ele>1253.098186</ele>
        <time>2022-07-23T18:06:34.604Z</time>
      </trkpt>
      <trkpt lat="44.9427" lon="5.35911">
        <ele>1248.30096</ele>
        <time>2022-07-23T18:06:43.025Z</time>
      </trkpt>
      <trkpt lat="44.94267" lon="5.35927">
        <ele>1247.002321</ele>
        <time>2022-07-23T18:06:45.439Z</time>
      </trkpt>
      <trkpt lat="44.9431" lon="5.36036">
        <ele>1237.171446</ele>
        <time>2022-07-23T18:07:04.461Z</time>
      </trkpt>
      <trkpt lat="44.94326" lon="5.36161">
        <ele>1229.374912</ele>
        <time>2022-07-23T18:07:24.591Z</time>
      </trkpt>
      <trkpt lat="44.94338" lon="5.36187">
        <ele>1227.893841</ele>
        <time>2022-07-23T18:07:29.670Z</time>
      </trkpt>
      <trkpt lat="44.94352" lon="5.36208">
        <ele>1226.557851</ele>
        <time>2022-07-23T18:07:34.191Z</time>
      </trkpt>
      <trkpt lat="44.94391" lon="5.36226">
        <ele>1223.798392</ele>
        <time>2022-07-23T18:07:43.811Z</time>
      </trkpt>
      <trkpt lat="44.94404" lon="5.36233">
        <ele>1222.924177</ele>
        <time>2022-07-23T18:07:46.941Z</time>
      </trkpt>
      <trkpt lat="44.94414" lon="5.36244">
        <ele>1222.088391</ele>
        <time>2022-07-23T18:07:49.896Z</time>
      </trkpt>
      <trkpt lat="44.94416" lon="5.36241">
        <ele>1221.881923</ele>
        <time>2022-07-23T18:07:50.370Z</time>
      </trkpt>
      <trkpt lat="44.94418" lon="5.36237">
        <ele>1221.644843</ele>
        <time>2022-07-23T18:07:50.861Z</time>
      </trkpt>
      <trkpt lat="44.94419" lon="5.36235">
        <ele>1221.545156</ele>
        <time>2022-07-23T18:07:51.062Z</time>
      </trkpt>
      <trkpt lat="44.94428" lon="5.3622">
        <ele>1220.667327</ele>
        <time>2022-07-23T18:07:52.992Z</time>
      </trkpt>
      <trkpt lat="44.94428" lon="5.36208">
        <ele>1220.486801</ele>
        <time>2022-07-23T18:07:54.909Z</time>
      </trkpt>
      <trkpt lat="44.94433" lon="5.36194">
        <ele>1220.247754</ele>
        <time>2022-07-23T18:07:57.793Z</time>
      </trkpt>
      <trkpt lat="44.94436" lon="5.36174">
        <ele>1219.92603</ele>
        <time>2022-07-23T18:08:01.568Z</time>
      </trkpt>
      <trkpt lat="44.94436" lon="5.36156">
        <ele>1219.656155</ele>
        <time>2022-07-23T18:08:04.561Z</time>
      </trkpt>
      <trkpt lat="44.94424" lon="5.36117">
        <ele>1218.992218</ele>
        <time>2022-07-23T18:08:12.539Z</time>
      </trkpt>
      <trkpt lat="44.94394" lon="5.36046">
        <ele>1217.717597</ele>
        <time>2022-07-23T18:08:29.792Z</time>
      </trkpt>
      <trkpt lat="44.94378" lon="5.36027">
        <ele>1217.269563</ele>
        <time>2022-07-23T18:08:35.691Z</time>
      </trkpt>
      <trkpt lat="44.94368" lon="5.36001">
        <ele>1216.814162</ele>
        <time>2022-07-23T18:08:42.899Z</time>
      </trkpt>
      <trkpt lat="44.94364" lon="5.35979">
        <ele>1216.688492</ele>
        <time>2022-07-23T18:08:47.732Z</time>
      </trkpt>
      <trkpt lat="44.94365" lon="5.35961">
        <ele>1216.612278</ele>
        <time>2022-07-23T18:08:52.120Z</time>
      </trkpt>
      <trkpt lat="44.94373" lon="5.35946">
        <ele>1216.533762</ele>
        <time>2022-07-23T18:08:56.002Z</time>
      </trkpt>
      <trkpt lat="44.94389" lon="5.35927">
        <ele>1216.409085</ele>
        <time>2022-07-23T18:09:02.486Z</time>
      </trkpt>
      <trkpt lat="44.94406" lon="5.35886">
        <ele>1216.207064</ele>
        <time>2022-07-23T18:09:12.399Z</time>
      </trkpt>
      <trkpt lat="44.94439" lon="5.35788">
        <ele>1215.750279</ele>
        <time>2022-07-23T18:09:34.924Z</time>
      </trkpt>
      <trkpt lat="44.94443" lon="5.3576">
        <ele>1216.043424</ele>
        <time>2022-07-23T18:09:40.957Z</time>
      </trkpt>
      <trkpt lat="44.94443" lon="5.35721">
        <ele>1216.766981</ele>
        <time>2022-07-23T18:09:49.901Z</time>
      </trkpt>
      <trkpt lat="44.94458" lon="5.35662">
        <ele>1217.944691</ele>
        <time>2022-07-23T18:10:06.941Z</time>
      </trkpt>
      <trkpt lat="44.94468" lon="5.35601">
        <ele>1219.117747</ele>
        <time>2022-07-23T18:10:28.474Z</time>
      </trkpt>
      <trkpt lat="44.94435" lon="5.35504">
        <ele>1222.108982</ele>
        <time>2022-07-23T18:11:13.500Z</time>
      </trkpt>
      <trkpt lat="44.9442" lon="5.3547">
        <ele>1223.897621</ele>
        <time>2022-07-23T18:11:32.094Z</time>
      </trkpt>
      <trkpt lat="44.94371" lon="5.35403">
        <ele>1228.30576</ele>
        <time>2022-07-23T18:12:15.721Z</time>
      </trkpt>
      <trkpt lat="44.94321" lon="5.35331">
        <ele>1233.495985</ele>
        <time>2022-07-23T18:13:00.486Z</time>
      </trkpt>
      <trkpt lat="44.94319" lon="5.35328">
        <ele>1233.78947</ele>
        <time>2022-07-23T18:13:03.390Z</time>
      </trkpt>
      <trkpt lat="44.94266" lon="5.35279">
        <ele>1240.680943</ele>
        <time>2022-07-23T18:13:52.730Z</time>
      </trkpt>
      <trkpt lat="44.94254" lon="5.35256">
        <ele>1242.865315</ele>
        <time>2022-07-23T18:14:11.715Z</time>
      </trkpt>
      <trkpt lat="44.94243" lon="5.35226">
        <ele>1245.454296</ele>
        <time>2022-07-23T18:14:33.819Z</time>
      </trkpt>
      <trkpt lat="44.94232" lon="5.3521">
        <ele>1247.265589</ele>
        <time>2022-07-23T18:14:50.014Z</time>
      </trkpt>
      <trkpt lat="44.94219" lon="5.35198">
        <ele>1248.894324</ele>
        <time>2022-07-23T18:15:03.516Z</time>
      </trkpt>
      <trkpt lat="44.94174" lon="5.35127">
        <ele>1257.720284</ele>
        <time>2022-07-23T18:16:11.266Z</time>
      </trkpt>
      <trkpt lat="44.94139" lon="5.35071">
        <ele>1265.400349</ele>
        <time>2022-07-23T18:17:09.452Z</time>
      </trkpt>
      <trkpt lat="44.94102" lon="5.35001">
        <ele>1274.403931</ele>
        <time>2022-07-23T18:18:20.176Z</time>
      </trkpt>
      <trkpt lat="44.94071" lon="5.34879">
        <ele>1284.323656</ele>
        <time>2022-07-23T18:19:44.775Z</time>
      </trkpt>
      <trkpt lat="44.9407" lon="5.34804">
        <ele>1289.387946</ele>
        <time>2022-07-23T18:20:28.133Z</time>
      </trkpt>
      <trkpt lat="44.94081" lon="5.34693">
        <ele>1294.614099</ele>
        <time>2022-07-23T18:21:18.724Z</time>
      </trkpt>
      <trkpt lat="44.94063" lon="5.34634">
        <ele>1293.969206</ele>
        <time>2022-07-23T18:21:40.158Z</time>
      </trkpt>
      <trkpt lat="44.94045" lon="5.34547">
        <ele>1293.065795</ele>
        <time>2022-07-23T18:21:57.355Z</time>
      </trkpt>
      <trkpt lat="44.9404" lon="5.34505">
        <ele>1292.634476</ele>
        <time>2022-07-23T18:22:04.569Z</time>
      </trkpt>
      <trkpt lat="44.9404" lon="5.34492">
        <ele>1292.509151</ele>
        <time>2022-07-23T18:22:06.623Z</time>
      </trkpt>
      <trkpt lat="44.94047" lon="5.34458">
        <ele>1290.187935</ele>
        <time>2022-07-23T18:22:12.229Z</time>
      </trkpt>
      <trkpt lat="44.94047" lon="5.34368">
        <ele>1281.687874</ele>
        <time>2022-07-23T18:22:25.185Z</time>
      </trkpt>
      <trkpt lat="44.94052" lon="5.34317">
        <ele>1276.713741</ele>
        <time>2022-07-23T18:22:32.664Z</time>
      </trkpt>
      <trkpt lat="44.94057" lon="5.34291">
        <ele>1274.155738</ele>
        <time>2022-07-23T18:22:36.481Z</time>
      </trkpt>
      <trkpt lat="44.94082" lon="5.34225">
        <ele>1267.022287</ele>
        <time>2022-07-23T18:22:47.062Z</time>
      </trkpt>
      <trkpt lat="44.94086" lon="5.34206">
        <ele>1264.98253</ele>
        <time>2022-07-23T18:22:49.982Z</time>
      </trkpt>
      <trkpt lat="44.94091" lon="5.34159">
        <ele>1260.406327</ele>
        <time>2022-07-23T18:22:56.618Z</time>
      </trkpt>
      <trkpt lat="44.941" lon="5.34123">
        <ele>1256.569974</ele>
        <time>2022-07-23T18:23:02.210Z</time>
      </trkpt>
      <trkpt lat="44.94124" lon="5.34068">
        <ele>1250.26873</ele>
        <time>2022-07-23T18:23:11.384Z</time>
      </trkpt>
      <trkpt lat="44.94139" lon="5.34047">
        <ele>1247.279536</ele>
        <time>2022-07-23T18:23:15.889Z</time>
      </trkpt>
      <trkpt lat="44.94159" lon="5.34031">
        <ele>1244.068246</ele>
        <time>2022-07-23T18:23:20.722Z</time>
      </trkpt>
      <trkpt lat="44.94184" lon="5.34014">
        <ele>1241.729191</ele>
        <time>2022-07-23T18:23:26.531Z</time>
      </trkpt>
      <trkpt lat="44.94246" lon="5.33982">
        <ele>1237.15104</ele>
        <time>2022-07-23T18:23:41.219Z</time>
      </trkpt>
      <trkpt lat="44.94243" lon="5.33973">
        <ele>1236.68258</ele>
        <time>2022-07-23T18:23:42.744Z</time>
      </trkpt>
      <trkpt lat="44.94244" lon="5.33962">
        <ele>1236.126099</ele>
        <time>2022-07-23T18:23:44.640Z</time>
      </trkpt>
      <trkpt lat="44.94249" lon="5.33951">
        <ele>1235.474465</ele>
        <time>2022-07-23T18:23:46.819Z</time>
      </trkpt>
      <trkpt lat="44.94261" lon="5.33936">
        <ele>1234.356305</ele>
        <time>2022-07-23T18:23:50.665Z</time>
      </trkpt>
      <trkpt lat="44.94282" lon="5.33895">
        <ele>1231.870108</ele>
        <time>2022-07-23T18:23:59.408Z</time>
      </trkpt>
      <trkpt lat="44.94303" lon="5.33864">
        <ele>1230.235515</ele>
        <time>2022-07-23T18:24:06.884Z</time>
      </trkpt>
      <trkpt lat="44.94306" lon="5.33854">
        <ele>1229.946615</ele>
        <time>2022-07-23T18:24:09.067Z</time>
      </trkpt>
      <trkpt lat="44.94306" lon="5.33845">
        <ele>1229.72482</ele>
        <time>2022-07-23T18:24:10.723Z</time>
      </trkpt>
      <trkpt lat="44.94303" lon="5.33835">
        <ele>1229.480813</ele>
        <time>2022-07-23T18:24:12.556Z</time>
      </trkpt>
      <trkpt lat="44.94297" lon="5.33826">
        <ele>1229.157051</ele>
        <time>2022-07-23T18:24:14.969Z</time>
      </trkpt>
      <trkpt lat="44.94206" lon="5.33732">
        <ele>1225.224282</ele>
        <time>2022-07-23T18:24:45.414Z</time>
      </trkpt>
      <trkpt lat="44.94198" lon="5.33722">
        <ele>1224.848316</ele>
        <time>2022-07-23T18:24:48.503Z</time>
      </trkpt>
      <trkpt lat="44.94179" lon="5.33687">
        <ele>1222.818888</ele>
        <time>2022-07-23T18:24:55.472Z</time>
      </trkpt>
      <trkpt lat="44.94171" lon="5.33661">
        <ele>1221.039228</ele>
        <time>2022-07-23T18:25:00.437Z</time>
      </trkpt>
      <trkpt lat="44.94161" lon="5.3359">
        <ele>1216.617551</ele>
        <time>2022-07-23T18:25:11.418Z</time>
      </trkpt>
      <trkpt lat="44.94154" lon="5.3356">
        <ele>1214.655997</ele>
        <time>2022-07-23T18:25:16.741Z</time>
      </trkpt>
      <trkpt lat="44.94148" lon="5.33544">
        <ele>1213.526631</ele>
        <time>2022-07-23T18:25:19.379Z</time>
      </trkpt>
      <trkpt lat="44.94133" lon="5.33519">
        <ele>1211.518985</ele>
        <time>2022-07-23T18:25:24.485Z</time>
      </trkpt>
      <trkpt lat="44.94136" lon="5.33501">
        <ele>1210.402783</ele>
        <time>2022-07-23T18:25:27.006Z</time>
      </trkpt>
      <trkpt lat="44.94146" lon="5.33486">
        <ele>1209.089075</ele>
        <time>2022-07-23T18:25:30.480Z</time>
      </trkpt>
      <trkpt lat="44.94185" lon="5.33439">
        <ele>1203.37582</ele>
        <time>2022-07-23T18:25:41.052Z</time>
      </trkpt>
      <trkpt lat="44.94209" lon="5.33419">
        <ele>1200.255544</ele>
        <time>2022-07-23T18:25:47.095Z</time>
      </trkpt>
      <trkpt lat="44.9424" lon="5.334">
        <ele>1196.485994</ele>
        <time>2022-07-23T18:25:54.085Z</time>
      </trkpt>
      <trkpt lat="44.94239" lon="5.3339">
        <ele>1195.619173</ele>
        <time>2022-07-23T18:25:55.581Z</time>
      </trkpt>
      <trkpt lat="44.94245" lon="5.33376">
        <ele>1194.306852</ele>
        <time>2022-07-23T18:25:58.019Z</time>
      </trkpt>
      <trkpt lat="44.94262" lon="5.33357">
        <ele>1191.898695</ele>
        <time>2022-07-23T18:26:02.621Z</time>
      </trkpt>
      <trkpt lat="44.94284" lon="5.33314">
        <ele>1187.756821</ele>
        <time>2022-07-23T18:26:10.700Z</time>
      </trkpt>
      <trkpt lat="44.94291" lon="5.33293">
        <ele>1185.964301</ele>
        <time>2022-07-23T18:26:14.327Z</time>
      </trkpt>
      <trkpt lat="44.9431" lon="5.33268">
        <ele>1183.113709</ele>
        <time>2022-07-23T18:26:19.914Z</time>
      </trkpt>
      <trkpt lat="44.94339" lon="5.3321">
        <ele>1177.546236</ele>
        <time>2022-07-23T18:26:30.994Z</time>
      </trkpt>
      <trkpt lat="44.94347" lon="5.33187">
        <ele>1175.581037</ele>
        <time>2022-07-23T18:26:35.011Z</time>
      </trkpt>
      <trkpt lat="44.94346" lon="5.3317">
        <ele>1174.287348</ele>
        <time>2022-07-23T18:26:37.548Z</time>
      </trkpt>
      <trkpt lat="44.94349" lon="5.3316">
        <ele>1173.451472</ele>
        <time>2022-07-23T18:26:39.237Z</time>
      </trkpt>
      <trkpt lat="44.94356" lon="5.33165">
        <ele>1172.563425</ele>
        <time>2022-07-23T18:26:41.024Z</time>
      </trkpt>
      <trkpt lat="44.94363" lon="5.3316">
        <ele>1171.751975</ele>
        <time>2022-07-23T18:26:42.512Z</time>
      </trkpt>
      <trkpt lat="44.94376" lon="5.33126">
        <ele>1168.747591</ele>
        <time>2022-07-23T18:26:48.071Z</time>
      </trkpt>
      <trkpt lat="44.94393" lon="5.33093">
        <ele>1164.250846</ele>
        <time>2022-07-23T18:26:53.784Z</time>
      </trkpt>
      <trkpt lat="44.94418" lon="5.33067">
        <ele>1159.383922</ele>
        <time>2022-07-23T18:26:59.985Z</time>
      </trkpt>
      <trkpt lat="44.94427" lon="5.33047">
        <ele>1156.80204</ele>
        <time>2022-07-23T18:27:03.364Z</time>
      </trkpt>
      <trkpt lat="44.94439" lon="5.33005">
        <ele>1151.732021</ele>
        <time>2022-07-23T18:27:09.931Z</time>
      </trkpt>
      <trkpt lat="44.94449" lon="5.32988">
        <ele>1149.29345</ele>
        <time>2022-07-23T18:27:12.983Z</time>
      </trkpt>
      <trkpt lat="44.94458" lon="5.32942">
        <ele>1144.080322</ele>
        <time>2022-07-23T18:27:19.723Z</time>
      </trkpt>
      <trkpt lat="44.94465" lon="5.32919">
        <ele>1141.312712</ele>
        <time>2022-07-23T18:27:23.419Z</time>
      </trkpt>
      <trkpt lat="44.94467" lon="5.32899">
        <ele>1139.646993</ele>
        <time>2022-07-23T18:27:26.301Z</time>
      </trkpt>
      <trkpt lat="44.94483" lon="5.32852">
        <ele>1135.958601</ele>
        <time>2022-07-23T18:27:33.754Z</time>
      </trkpt>
      <trkpt lat="44.94485" lon="5.32812">
        <ele>1133.107053</ele>
        <time>2022-07-23T18:27:39.657Z</time>
      </trkpt>
      <trkpt lat="44.94481" lon="5.32746">
        <ele>1128.461921</ele>
        <time>2022-07-23T18:27:49.452Z</time>
      </trkpt>
      <trkpt lat="44.94484" lon="5.32714">
        <ele>1126.123986</ele>
        <time>2022-07-23T18:27:55.254Z</time>
      </trkpt>
      <trkpt lat="44.94499" lon="5.32716">
        <ele>1124.620572</ele>
        <time>2022-07-23T18:27:59.046Z</time>
      </trkpt>
      <trkpt lat="44.94514" lon="5.32715">
        <ele>1123.105114</ele>
        <time>2022-07-23T18:28:02.885Z</time>
      </trkpt>
      <trkpt lat="44.94573" lon="5.32691">
        <ele>1120.877825</ele>
        <time>2022-07-23T18:28:19.233Z</time>
      </trkpt>
      <trkpt lat="44.94593" lon="5.32679">
        <ele>1120.204374</ele>
        <time>2022-07-23T18:28:25.030Z</time>
      </trkpt>
      <trkpt lat="44.94612" lon="5.32671">
        <ele>1119.560926</ele>
        <time>2022-07-23T18:28:30.792Z</time>
      </trkpt>
      <trkpt lat="44.94649" lon="5.32627">
        <ele>1118.027527</ele>
        <time>2022-07-23T18:28:44.771Z</time>
      </trkpt>
      <trkpt lat="44.94649" lon="5.32627">
        <ele>1118.027527</ele>
        <time>2022-07-23T18:28:44.773Z</time>
      </trkpt>
      <trkpt lat="44.94661" lon="5.32618">
        <ele>1117.580256</ele>
        <time>2022-07-23T18:28:48.269Z</time>
      </trkpt>
      <trkpt lat="44.94682" lon="5.32609">
        <ele>1116.754278</ele>
        <time>2022-07-23T18:28:53.234Z</time>
      </trkpt>
      <trkpt lat="44.94704" lon="5.3259">
        <ele>1114.646634</ele>
        <time>2022-07-23T18:28:59.249Z</time>
      </trkpt>
      <trkpt lat="44.94729" lon="5.32581">
        <ele>1112.589533</ele>
        <time>2022-07-23T18:29:04.928Z</time>
      </trkpt>
      <trkpt lat="44.94752" lon="5.32582">
        <ele>1110.680093</ele>
        <time>2022-07-23T18:29:10.205Z</time>
      </trkpt>
      <trkpt lat="44.94763" lon="5.32578">
        <ele>1109.795432</ele>
        <time>2022-07-23T18:29:12.610Z</time>
      </trkpt>
      <trkpt lat="44.94775" lon="5.32571">
        <ele>1108.730236</ele>
        <time>2022-07-23T18:29:15.600Z</time>
      </trkpt>
      <trkpt lat="44.94786" lon="5.3256">
        <ele>1107.649899</ele>
        <time>2022-07-23T18:29:18.491Z</time>
      </trkpt>
      <trkpt lat="44.94822" lon="5.32535">
        <ele>1104.370834</ele>
        <time>2022-07-23T18:29:27.276Z</time>
      </trkpt>
      <trkpt lat="44.94852" lon="5.32508">
        <ele>1101.416591</ele>
        <time>2022-07-23T18:29:34.864Z</time>
      </trkpt>
      <trkpt lat="44.94866" lon="5.32483">
        <ele>1099.37157</ele>
        <time>2022-07-23T18:29:39.652Z</time>
      </trkpt>
      <trkpt lat="44.94874" lon="5.32453">
        <ele>1097.28466</ele>
        <time>2022-07-23T18:29:44.372Z</time>
      </trkpt>
      <trkpt lat="44.94876" lon="5.32419">
        <ele>1095.093484</ele>
        <time>2022-07-23T18:29:49.378Z</time>
      </trkpt>
      <trkpt lat="44.94873" lon="5.32396">
        <ele>1093.587329</ele>
        <time>2022-07-23T18:29:52.830Z</time>
      </trkpt>
      <trkpt lat="44.94865" lon="5.3236">
        <ele>1091.107812</ele>
        <time>2022-07-23T18:29:58.663Z</time>
      </trkpt>
      <trkpt lat="44.94842" lon="5.32318">
        <ele>1087.676622</ele>
        <time>2022-07-23T18:30:07.450Z</time>
      </trkpt>
      <trkpt lat="44.94839" lon="5.32308">
        <ele>1087.009261</ele>
        <time>2022-07-23T18:30:09.215Z</time>
      </trkpt>
      <trkpt lat="44.94839" lon="5.32265">
        <ele>1085.218878</ele>
        <time>2022-07-23T18:30:16.549Z</time>
      </trkpt>
      <trkpt lat="44.94917" lon="5.32229">
        <ele>1081.816118</ele>
        <time>2022-07-23T18:30:27.784Z</time>
      </trkpt>
      <trkpt lat="44.94928" lon="5.32223">
        <ele>1081.347462</ele>
        <time>2022-07-23T18:30:29.370Z</time>
      </trkpt>
      <trkpt lat="44.94935" lon="5.32213">
        <ele>1080.947685</ele>
        <time>2022-07-23T18:30:30.693Z</time>
      </trkpt>
      <trkpt lat="44.94976" lon="5.32253">
        <ele>1078.912509</ele>
        <time>2022-07-23T18:30:37.702Z</time>
      </trkpt>
      <trkpt lat="44.95031" lon="5.32296">
        <ele>1077.422393</ele>
        <time>2022-07-23T18:30:47.610Z</time>
      </trkpt>
      <trkpt lat="44.95057" lon="5.32316">
        <ele>1076.790743</ele>
        <time>2022-07-23T18:30:53.869Z</time>
      </trkpt>
      <trkpt lat="44.95152" lon="5.32395">
        <ele>1074.568877</ele>
        <time>2022-07-23T18:31:10.731Z</time>
      </trkpt>
      <trkpt lat="44.95207" lon="5.32441">
        <ele>1073.860251</ele>
        <time>2022-07-23T18:31:20.937Z</time>
      </trkpt>
      <trkpt lat="44.95223" lon="5.32452">
        <ele>1073.670109</ele>
        <time>2022-07-23T18:31:23.700Z</time>
      </trkpt>
      <trkpt lat="44.95232" lon="5.32458">
        <ele>1073.559312</ele>
        <time>2022-07-23T18:31:25.390Z</time>
      </trkpt>
      <trkpt lat="44.95255" lon="5.32472">
        <ele>1073.277249</ele>
        <time>2022-07-23T18:31:31.217Z</time>
      </trkpt>
      <trkpt lat="44.9529" lon="5.32488">
        <ele>1072.868502</ele>
        <time>2022-07-23T18:31:40.106Z</time>
      </trkpt>
      <trkpt lat="44.95317" lon="5.32502">
        <ele>1073.209362</ele>
        <time>2022-07-23T18:31:47.658Z</time>
      </trkpt>
      <trkpt lat="44.95337" lon="5.32516">
        <ele>1073.757896</ele>
        <time>2022-07-23T18:31:54.023Z</time>
      </trkpt>
      <trkpt lat="44.95354" lon="5.32531">
        <ele>1074.265346</ele>
        <time>2022-07-23T18:32:00.238Z</time>
      </trkpt>
      <trkpt lat="44.95363" lon="5.32525">
        <ele>1074.496877</ele>
        <time>2022-07-23T18:32:02.835Z</time>
      </trkpt>
      <trkpt lat="44.95367" lon="5.32526">
        <ele>1074.616952</ele>
        <time>2022-07-23T18:32:04.073Z</time>
      </trkpt>
      <trkpt lat="44.95555" lon="5.32592">
        <ele>1081.69788</ele>
        <time>2022-07-23T18:33:18.959Z</time>
      </trkpt>
      <trkpt lat="44.95566" lon="5.32569">
        <ele>1082.675234</ele>
        <time>2022-07-23T18:33:28.445Z</time>
      </trkpt>
      <trkpt lat="44.95573" lon="5.32571">
        <ele>1083.034907</ele>
        <time>2022-07-23T18:33:32.924Z</time>
      </trkpt>
      <trkpt lat="44.95595" lon="5.32554">
        <ele>1084.310075</ele>
        <time>2022-07-23T18:33:45.953Z</time>
      </trkpt>
      <trkpt lat="44.95602" lon="5.3254">
        <ele>1084.910857</ele>
        <time>2022-07-23T18:33:53.042Z</time>
      </trkpt>
      <trkpt lat="44.95606" lon="5.32515">
        <ele>1085.841372</ele>
        <time>2022-07-23T18:34:02.097Z</time>
      </trkpt>
      <trkpt lat="44.95612" lon="5.32495">
        <ele>1086.908544</ele>
        <time>2022-07-23T18:34:12.696Z</time>
      </trkpt>
      <trkpt lat="44.95621" lon="5.32478">
        <ele>1088.288506</ele>
        <time>2022-07-23T18:34:20.756Z</time>
      </trkpt>
      <trkpt lat="44.95634" lon="5.32464">
        <ele>1089.784455</ele>
        <time>2022-07-23T18:34:32.366Z</time>
      </trkpt>
      <trkpt lat="44.95647" lon="5.32459">
        <ele>1090.992455</ele>
        <time>2022-07-23T18:34:41.444Z</time>
      </trkpt>
      <trkpt lat="44.95708" lon="5.32502">
        <ele>1097.346626</ele>
        <time>2022-07-23T18:35:37.099Z</time>
      </trkpt>
      <trkpt lat="44.95716" lon="5.32568">
        <ele>1101.783026</ele>
        <time>2022-07-23T18:36:19.230Z</time>
      </trkpt>
      <trkpt lat="44.95792" lon="5.32546">
        <ele>1109.598521</ele>
        <time>2022-07-23T18:37:27.556Z</time>
      </trkpt>
      <trkpt lat="44.95876" lon="5.32546">
        <ele>1118.160257</ele>
        <time>2022-07-23T18:38:39.998Z</time>
      </trkpt>
      <trkpt lat="44.95981" lon="5.32565">
        <ele>1124.446481</ele>
        <time>2022-07-23T18:39:52.840Z</time>
      </trkpt>
      <trkpt lat="44.95966" lon="5.32487">
        <ele>1126.867623</ele>
        <time>2022-07-23T18:40:19.793Z</time>
      </trkpt>
      <trkpt lat="44.95978" lon="5.32481">
        <ele>1127.401517</ele>
        <time>2022-07-23T18:40:24.695Z</time>
      </trkpt>
      <trkpt lat="44.96005" lon="5.32552">
        <ele>1128.389612</ele>
        <time>2022-07-23T18:40:43.858Z</time>
      </trkpt>
      <trkpt lat="44.96068" lon="5.32579">
        <ele>1127.086604</ele>
        <time>2022-07-23T18:41:02.864Z</time>
      </trkpt>
      <trkpt lat="44.96282" lon="5.32789">
        <ele>1119.650579</ele>
        <time>2022-07-23T18:42:08.973Z</time>
      </trkpt>
      <trkpt lat="44.96261" lon="5.32904">
        <ele>1118.289087</ele>
        <time>2022-07-23T18:42:31.746Z</time>
      </trkpt>
      <trkpt lat="44.96386" lon="5.32946">
        <ele>1116.241082</ele>
        <time>2022-07-23T18:43:10.821Z</time>
      </trkpt>
      <trkpt lat="44.96455" lon="5.32959">
        <ele>1114.330303</ele>
        <time>2022-07-23T18:43:31.215Z</time>
      </trkpt>
      <trkpt lat="44.96487" lon="5.32999">
        <ele>1113.171766</ele>
        <time>2022-07-23T18:43:42.490Z</time>
      </trkpt>
      <trkpt lat="44.96502" lon="5.33036">
        <ele>1112.354531</ele>
        <time>2022-07-23T18:43:49.899Z</time>
      </trkpt>
      <trkpt lat="44.96589" lon="5.32965">
        <ele>1105.396864</ele>
        <time>2022-07-23T18:44:12.569Z</time>
      </trkpt>
      <trkpt lat="44.96613" lon="5.32797">
        <ele>1097.105006</ele>
        <time>2022-07-23T18:44:39.099Z</time>
      </trkpt>
      <trkpt lat="44.96693" lon="5.32736">
        <ele>1093.682237</ele>
        <time>2022-07-23T18:45:00.980Z</time>
      </trkpt>
      <trkpt lat="44.96775" lon="5.32763">
        <ele>1091.466382</ele>
        <time>2022-07-23T18:45:27.564Z</time>
      </trkpt>
      <trkpt lat="44.9686" lon="5.32713">
        <ele>1092.207229</ele>
        <time>2022-07-23T18:46:07.456Z</time>
      </trkpt>
      <trkpt lat="44.96892" lon="5.3271">
        <ele>1092.463939</ele>
        <time>2022-07-23T18:46:19.291Z</time>
      </trkpt>
      <trkpt lat="44.9697" lon="5.32704">
        <ele>1091.84592</ele>
        <time>2022-07-23T18:46:42.179Z</time>
      </trkpt>
      <trkpt lat="44.97088" lon="5.32901">
        <ele>1088.641731</ele>
        <time>2022-07-23T18:47:30.238Z</time>
      </trkpt>
      <trkpt lat="44.97166" lon="5.32919">
        <ele>1088.063579</ele>
        <time>2022-07-23T18:47:53.585Z</time>
      </trkpt>
      <trkpt lat="44.97231" lon="5.32853">
        <ele>1088.01854</ele>
        <time>2022-07-23T18:48:23.237Z</time>
      </trkpt>
      <trkpt lat="44.97268" lon="5.32759">
        <ele>1089.139938</ele>
        <time>2022-07-23T18:48:54.375Z</time>
      </trkpt>
      <trkpt lat="44.97388" lon="5.32705">
        <ele>1091.947421</ele>
        <time>2022-07-23T18:49:42.836Z</time>
      </trkpt>
      <trkpt lat="44.97507" lon="5.32734">
        <ele>1096.201928</ele>
        <time>2022-07-23T18:50:45.568Z</time>
      </trkpt>
      <trkpt lat="44.97524" lon="5.32733">
        <ele>1096.979348</ele>
        <time>2022-07-23T18:50:55.330Z</time>
      </trkpt>
      <trkpt lat="44.97577" lon="5.32702">
        <ele>1100.816544</ele>
        <time>2022-07-23T18:51:31.175Z</time>
      </trkpt>
      <trkpt lat="44.97632" lon="5.32705">
        <ele>1104.433951</ele>
        <time>2022-07-23T18:52:06.652Z</time>
      </trkpt>
      <trkpt lat="44.97667" lon="5.32775">
        <ele>1108.489933</ele>
        <time>2022-07-23T18:52:50.831Z</time>
      </trkpt>
      <trkpt lat="44.97781" lon="5.32817">
        <ele>1117.819963</ele>
        <time>2022-07-23T18:54:11.981Z</time>
      </trkpt>
      <trkpt lat="44.97849" lon="5.32799">
        <ele>1123.35624</ele>
        <time>2022-07-23T18:55:03.407Z</time>
      </trkpt>
      <trkpt lat="44.97926" lon="5.32762">
        <ele>1130.590289</ele>
        <time>2022-07-23T18:56:06.413Z</time>
      </trkpt>
      <trkpt lat="44.9797" lon="5.3275">
        <ele>1134.587425</ele>
        <time>2022-07-23T18:56:40.729Z</time>
      </trkpt>
      <trkpt lat="44.97974" lon="5.32732">
        <ele>1135.74858</ele>
        <time>2022-07-23T18:56:53.461Z</time>
      </trkpt>
      <trkpt lat="44.97981" lon="5.32698">
        <ele>1138.005488</ele>
        <time>2022-07-23T18:57:11.200Z</time>
      </trkpt>
      <trkpt lat="44.97981" lon="5.32679">
        <ele>1139.171076</ele>
        <time>2022-07-23T18:57:22.816Z</time>
      </trkpt>
      <trkpt lat="44.97979" lon="5.32656">
        <ele>1140.412517</ele>
        <time>2022-07-23T18:57:32.184Z</time>
      </trkpt>
      <trkpt lat="44.97974" lon="5.32634">
        <ele>1141.601056</ele>
        <time>2022-07-23T18:57:45.464Z</time>
      </trkpt>
      <trkpt lat="44.97956" lon="5.32606">
        <ele>1143.597617</ele>
        <time>2022-07-23T18:58:02.830Z</time>
      </trkpt>
      <trkpt lat="44.97964" lon="5.32566">
        <ele>1145.756213</ele>
        <time>2022-07-23T18:58:22.251Z</time>
      </trkpt>
      <trkpt lat="44.97953" lon="5.32544">
        <ele>1147.194906</ele>
        <time>2022-07-23T18:58:39.383Z</time>
      </trkpt>
      <trkpt lat="44.97959" lon="5.32523">
        <ele>1148.424453</ele>
        <time>2022-07-23T18:58:45.358Z</time>
      </trkpt>
      <trkpt lat="44.97962" lon="5.32492">
        <ele>1150.073791</ele>
        <time>2022-07-23T18:58:59.522Z</time>
      </trkpt>
      <trkpt lat="44.97976" lon="5.32499">
        <ele>1151.200494</ele>
        <time>2022-07-23T18:59:06.264Z</time>
      </trkpt>
      <trkpt lat="44.98011" lon="5.32495">
        <ele>1153.457429</ele>
        <time>2022-07-23T18:59:28.982Z</time>
      </trkpt>
      <trkpt lat="44.98031" lon="5.32496">
        <ele>1154.549483</ele>
        <time>2022-07-23T18:59:44.955Z</time>
      </trkpt>
      <trkpt lat="44.98093" lon="5.3249">
        <ele>1158.024406</ele>
        <time>2022-07-23T19:00:22.195Z</time>
      </trkpt>
      <trkpt lat="44.98103" lon="5.32498">
        <ele>1158.644717</ele>
        <time>2022-07-23T19:00:28.607Z</time>
      </trkpt>
      <trkpt lat="44.98112" lon="5.32499">
        <ele>1159.146257</ele>
        <time>2022-07-23T19:00:33.213Z</time>
      </trkpt>
      <trkpt lat="44.98135" lon="5.32489">
        <ele>1160.502846</ele>
        <time>2022-07-23T19:00:47.213Z</time>
      </trkpt>
      <trkpt lat="44.98154" lon="5.32487">
        <ele>1161.556156</ele>
        <time>2022-07-23T19:00:57.299Z</time>
      </trkpt>
      <trkpt lat="44.9818" lon="5.32499">
        <ele>1162.582128</ele>
        <time>2022-07-23T19:01:13.056Z</time>
      </trkpt>
      <trkpt lat="44.98191" lon="5.32506">
        <ele>1162.792464</ele>
        <time>2022-07-23T19:01:19.407Z</time>
      </trkpt>
      <trkpt lat="44.98207" lon="5.32521">
        <ele>1163.120903</ele>
        <time>2022-07-23T19:01:28.831Z</time>
      </trkpt>
      <trkpt lat="44.98219" lon="5.3254">
        <ele>1163.427679</ele>
        <time>2022-07-23T19:01:37.355Z</time>
      </trkpt>
      <trkpt lat="44.98229" lon="5.32574">
        <ele>1163.875991</ele>
        <time>2022-07-23T19:01:48.468Z</time>
      </trkpt>
      <trkpt lat="44.98236" lon="5.32584">
        <ele>1164.041778</ele>
        <time>2022-07-23T19:01:52.432Z</time>
      </trkpt>
      <trkpt lat="44.98287" lon="5.32598">
        <ele>1164.915867</ele>
        <time>2022-07-23T19:02:10.073Z</time>
      </trkpt>
      <trkpt lat="44.98306" lon="5.3261">
        <ele>1165.270065</ele>
        <time>2022-07-23T19:02:16.539Z</time>
      </trkpt>
      <trkpt lat="44.98321" lon="5.32626">
        <ele>1165.120932</ele>
        <time>2022-07-23T19:02:22.158Z</time>
      </trkpt>
      <trkpt lat="44.98338" lon="5.32659">
        <ele>1164.177366</ele>
        <time>2022-07-23T19:02:30.248Z</time>
      </trkpt>
      <trkpt lat="44.98347" lon="5.32667">
        <ele>1163.829382</ele>
        <time>2022-07-23T19:02:33.139Z</time>
      </trkpt>
      <trkpt lat="44.9836" lon="5.32668">
        <ele>1163.416281</ele>
        <time>2022-07-23T19:02:36.564Z</time>
      </trkpt>
      <trkpt lat="44.98382" lon="5.32658">
        <ele>1162.664953</ele>
        <time>2022-07-23T19:02:42.608Z</time>
      </trkpt>
      <trkpt lat="44.98397" lon="5.32661">
        <ele>1162.142822</ele>
        <time>2022-07-23T19:02:46.735Z</time>
      </trkpt>
      <trkpt lat="44.98403" lon="5.3267">
        <ele>1161.863815</ele>
        <time>2022-07-23T19:02:48.968Z</time>
      </trkpt>
      <trkpt lat="44.984" lon="5.3271">
        <ele>1160.938581</ele>
        <time>2022-07-23T19:02:56.149Z</time>
      </trkpt>
      <trkpt lat="44.98401" lon="5.32725">
        <ele>1160.591909</ele>
        <time>2022-07-23T19:02:58.595Z</time>
      </trkpt>
      <trkpt lat="44.98406" lon="5.32736">
        <ele>1160.272889</ele>
        <time>2022-07-23T19:03:00.801Z</time>
      </trkpt>
      <trkpt lat="44.9843" lon="5.32745">
        <ele>1159.442092</ele>
        <time>2022-07-23T19:03:06.379Z</time>
      </trkpt>
      <trkpt lat="44.98468" lon="5.32743">
        <ele>1157.333258</ele>
        <time>2022-07-23T19:03:15.089Z</time>
      </trkpt>
      <trkpt lat="44.98527" lon="5.32771">
        <ele>1153.872977</ele>
        <time>2022-07-23T19:03:29.776Z</time>
      </trkpt>
      <trkpt lat="44.98551" lon="5.32788">
        <ele>1152.38093</ele>
        <time>2022-07-23T19:03:36.115Z</time>
      </trkpt>
      <trkpt lat="44.98548" lon="5.32766">
        <ele>1151.514491</ele>
        <time>2022-07-23T19:03:39.827Z</time>
      </trkpt>
      <trkpt lat="44.98547" lon="5.32708">
        <ele>1149.273797</ele>
        <time>2022-07-23T19:03:50.066Z</time>
      </trkpt>
      <trkpt lat="44.98539" lon="5.32661">
        <ele>1147.746615</ele>
        <time>2022-07-23T19:03:58.329Z</time>
      </trkpt>
      <trkpt lat="44.98542" lon="5.32632">
        <ele>1146.813113</ele>
        <time>2022-07-23T19:04:03.371Z</time>
      </trkpt>
      <trkpt lat="44.98549" lon="5.32601">
        <ele>1145.783273</ele>
        <time>2022-07-23T19:04:08.833Z</time>
      </trkpt>
      <trkpt lat="44.98557" lon="5.32581">
        <ele>1145.02946</ele>
        <time>2022-07-23T19:04:12.922Z</time>
      </trkpt>
      <trkpt lat="44.98573" lon="5.32565">
        <ele>1144.131707</ele>
        <time>2022-07-23T19:04:18.142Z</time>
      </trkpt>
      <trkpt lat="44.98595" lon="5.32558">
        <ele>1143.13188</ele>
        <time>2022-07-23T19:04:24.134Z</time>
      </trkpt>
      <trkpt lat="44.98728" lon="5.32588">
        <ele>1133.593949</ele>
        <time>2022-07-23T19:04:55.989Z</time>
      </trkpt>
      <trkpt lat="44.98775" lon="5.32583">
        <ele>1129.837559</ele>
        <time>2022-07-23T19:05:05.906Z</time>
      </trkpt>
      <trkpt lat="44.9879" lon="5.32576">
        <ele>1128.500055</ele>
        <time>2022-07-23T19:05:09.416Z</time>
      </trkpt>
      <trkpt lat="44.98816" lon="5.32541">
        <ele>1125.000954</ele>
        <time>2022-07-23T19:05:16.872Z</time>
      </trkpt>
      <trkpt lat="44.9882" lon="5.32517">
        <ele>1122.880853</ele>
        <time>2022-07-23T19:05:20.529Z</time>
      </trkpt>
      <trkpt lat="44.98782" lon="5.32364">
        <ele>1108.985503</ele>
        <time>2022-07-23T19:05:44.355Z</time>
      </trkpt>
      <trkpt lat="44.98774" lon="5.32345">
        <ele>1107.049822</ele>
        <time>2022-07-23T19:05:47.863Z</time>
      </trkpt>
      <trkpt lat="44.98756" lon="5.32327">
        <ele>1104.684156</ele>
        <time>2022-07-23T19:05:52.251Z</time>
      </trkpt>
      <trkpt lat="44.98743" lon="5.32306">
        <ele>1103.216135</ele>
        <time>2022-07-23T19:05:56.575Z</time>
      </trkpt>
      <trkpt lat="44.98716" lon="5.3228">
        <ele>1100.735449</ele>
        <time>2022-07-23T19:06:03.574Z</time>
      </trkpt>
      <trkpt lat="44.98706" lon="5.32255">
        <ele>1099.19721</ele>
        <time>2022-07-23T19:06:07.789Z</time>
      </trkpt>
      <trkpt lat="44.98704" lon="5.3223">
        <ele>1097.840535</ele>
        <time>2022-07-23T19:06:12.431Z</time>
      </trkpt>
      <trkpt lat="44.98706" lon="5.3221">
        <ele>1096.757022</ele>
        <time>2022-07-23T19:06:15.493Z</time>
      </trkpt>
      <trkpt lat="44.98673" lon="5.32189">
        <ele>1094.062674</ele>
        <time>2022-07-23T19:06:20.569Z</time>
      </trkpt>
      <trkpt lat="44.98661" lon="5.32188">
        <ele>1093.097564</ele>
        <time>2022-07-23T19:06:22.522Z</time>
      </trkpt>
      <trkpt lat="44.98637" lon="5.32196">
        <ele>1091.400333</ele>
        <time>2022-07-23T19:06:26.094Z</time>
      </trkpt>
      <trkpt lat="44.98621" lon="5.32195">
        <ele>1091.019709</ele>
        <time>2022-07-23T19:06:28.619Z</time>
      </trkpt>
      <trkpt lat="44.98604" lon="5.32188">
        <ele>1090.569164</ele>
        <time>2022-07-23T19:06:31.184Z</time>
      </trkpt>
      <trkpt lat="44.98591" lon="5.32182">
        <ele>1090.229941</ele>
        <time>2022-07-23T19:06:33.314Z</time>
      </trkpt>
      <trkpt lat="44.98583" lon="5.32174">
        <ele>1089.990933</ele>
        <time>2022-07-23T19:06:35.181Z</time>
      </trkpt>
      <trkpt lat="44.98575" lon="5.32157">
        <ele>1089.640076</ele>
        <time>2022-07-23T19:06:37.103Z</time>
      </trkpt>
      <trkpt lat="44.98574" lon="5.3214">
        <ele>1089.340878</ele>
        <time>2022-07-23T19:06:40.352Z</time>
      </trkpt>
      <trkpt lat="44.98569" lon="5.32115">
        <ele>1088.882574</ele>
        <time>2022-07-23T19:06:47.488Z</time>
      </trkpt>
      <trkpt lat="44.98569" lon="5.32095">
        <ele>1088.543872</ele>
        <time>2022-07-23T19:06:51.445Z</time>
      </trkpt>
      <trkpt lat="44.98572" lon="5.32057">
        <ele>1087.865905</ele>
        <time>2022-07-23T19:06:59.748Z</time>
      </trkpt>
      <trkpt lat="44.98577" lon="5.32049">
        <ele>1087.69286</ele>
        <time>2022-07-23T19:07:01.476Z</time>
      </trkpt>
      <trkpt lat="44.98596" lon="5.32038">
        <ele>1087.171301</ele>
        <time>2022-07-23T19:07:07.265Z</time>
      </trkpt>
      <trkpt lat="44.98608" lon="5.32028">
        <ele>1086.876361</ele>
        <time>2022-07-23T19:07:11.165Z</time>
      </trkpt>
      <trkpt lat="44.98652" lon="5.3201">
        <ele>1085.983144</ele>
        <time>2022-07-23T19:07:23.036Z</time>
      </trkpt>
      <trkpt lat="44.9871" lon="5.32011">
        <ele>1084.841997</ele>
        <time>2022-07-23T19:07:39.063Z</time>
      </trkpt>
      <trkpt lat="44.98767" lon="5.32007">
        <ele>1083.709305</ele>
        <time>2022-07-23T19:07:54.810Z</time>
      </trkpt>
      <trkpt lat="44.98789" lon="5.32002">
        <ele>1083.370498</ele>
        <time>2022-07-23T19:08:01.172Z</time>
      </trkpt>
      <trkpt lat="44.98808" lon="5.31991">
        <ele>1083.148371</ele>
        <time>2022-07-23T19:08:06.592Z</time>
      </trkpt>
      <trkpt lat="44.98842" lon="5.31951">
        <ele>1082.650722</ele>
        <time>2022-07-23T19:08:19.703Z</time>
      </trkpt>
      <trkpt lat="44.98877" lon="5.31938">
        <ele>1082.235239</ele>
        <time>2022-07-23T19:08:31.092Z</time>
      </trkpt>
      <trkpt lat="44.98914" lon="5.31939">
        <ele>1081.829128</ele>
        <time>2022-07-23T19:08:42.362Z</time>
      </trkpt>
      <trkpt lat="44.98929" lon="5.31934">
        <ele>1081.646984</ele>
        <time>2022-07-23T19:08:47.170Z</time>
      </trkpt>
      <trkpt lat="44.98953" lon="5.31913">
        <ele>1080.877554</ele>
        <time>2022-07-23T19:08:55.498Z</time>
      </trkpt>
      <trkpt lat="44.98999" lon="5.31897">
        <ele>1078.832864</ele>
        <time>2022-07-23T19:09:07.590Z</time>
      </trkpt>
      <trkpt lat="44.9902" lon="5.31885">
        <ele>1077.831028</ele>
        <time>2022-07-23T19:09:13.173Z</time>
      </trkpt>
      <trkpt lat="44.99025" lon="5.31878">
        <ele>1077.522308</ele>
        <time>2022-07-23T19:09:14.932Z</time>
      </trkpt>
      <trkpt lat="44.99033" lon="5.31834">
        <ele>1076.130635</ele>
        <time>2022-07-23T19:09:22.628Z</time>
      </trkpt>
      <trkpt lat="44.99072" lon="5.31809">
        <ele>1074.275795</ele>
        <time>2022-07-23T19:09:32.719Z</time>
      </trkpt>
      <trkpt lat="44.99095" lon="5.31798">
        <ele>1072.718683</ele>
        <time>2022-07-23T19:09:38.360Z</time>
      </trkpt>
      <trkpt lat="44.99139" lon="5.31759">
        <ele>1068.081722</ele>
        <time>2022-07-23T19:09:50.022Z</time>
      </trkpt>
      <trkpt lat="44.99152" lon="5.31741">
        <ele>1066.506473</ele>
        <time>2022-07-23T19:09:53.865Z</time>
      </trkpt>
      <trkpt lat="44.99158" lon="5.31736">
        <ele>1065.82841</ele>
        <time>2022-07-23T19:09:55.507Z</time>
      </trkpt>
      <trkpt lat="44.99171" lon="5.31731">
        <ele>1064.651829</ele>
        <time>2022-07-23T19:09:58.393Z</time>
      </trkpt>
      <trkpt lat="44.99186" lon="5.31734">
        <ele>1063.242727</ele>
        <time>2022-07-23T19:10:01.770Z</time>
      </trkpt>
      <trkpt lat="44.99204" lon="5.31729">
        <ele>1061.643501</ele>
        <time>2022-07-23T19:10:05.615Z</time>
      </trkpt>
      <trkpt lat="44.99217" lon="5.31731">
        <ele>1060.474395</ele>
        <time>2022-07-23T19:10:08.415Z</time>
      </trkpt>
      <trkpt lat="44.99243" lon="5.31728">
        <ele>1058.107032</ele>
        <time>2022-07-23T19:10:14.040Z</time>
      </trkpt>
      <trkpt lat="44.99263" lon="5.31733">
        <ele>1055.788263</ele>
        <time>2022-07-23T19:10:18.157Z</time>
      </trkpt>
      <trkpt lat="44.99278" lon="5.31745">
        <ele>1053.468974</ele>
        <time>2022-07-23T19:10:21.946Z</time>
      </trkpt>
      <trkpt lat="44.99292" lon="5.31748">
        <ele>1051.604252</ele>
        <time>2022-07-23T19:10:24.932Z</time>
      </trkpt>
      <trkpt lat="44.99316" lon="5.31749">
        <ele>1048.436647</ele>
        <time>2022-07-23T19:10:30.086Z</time>
      </trkpt>
      <trkpt lat="44.99351" lon="5.31743">
        <ele>1043.87453</ele>
        <time>2022-07-23T19:10:37.430Z</time>
      </trkpt>
      <trkpt lat="44.99369" lon="5.31745">
        <ele>1041.57679</ele>
        <time>2022-07-23T19:10:41.077Z</time>
      </trkpt>
      <trkpt lat="44.99397" lon="5.31731">
        <ele>1037.581773</ele>
        <time>2022-07-23T19:10:47.126Z</time>
      </trkpt>
      <trkpt lat="44.99436" lon="5.31698">
        <ele>1031.255612</ele>
        <time>2022-07-23T19:10:56.084Z</time>
      </trkpt>
      <trkpt lat="44.99466" lon="5.31665">
        <ele>1025.212911</ele>
        <time>2022-07-23T19:11:03.853Z</time>
      </trkpt>
      <trkpt lat="44.99477" lon="5.31657">
        <ele>1023.233565</ele>
        <time>2022-07-23T19:11:06.327Z</time>
      </trkpt>
      <trkpt lat="44.9949" lon="5.31653">
        <ele>1021.153514</ele>
        <time>2022-07-23T19:11:09.017Z</time>
      </trkpt>
      <trkpt lat="44.99501" lon="5.31639">
        <ele>1018.9093</ele>
        <time>2022-07-23T19:11:12.063Z</time>
      </trkpt>
      <trkpt lat="44.99501" lon="5.31633">
        <ele>1018.223092</ele>
        <time>2022-07-23T19:11:12.920Z</time>
      </trkpt>
      <trkpt lat="44.99511" lon="5.31603">
        <ele>1014.596752</ele>
        <time>2022-07-23T19:11:17.628Z</time>
      </trkpt>
      <trkpt lat="44.99509" lon="5.31582">
        <ele>1012.125543</ele>
        <time>2022-07-23T19:11:20.799Z</time>
      </trkpt>
      <trkpt lat="44.99502" lon="5.31573">
        <ele>1010.688636</ele>
        <time>2022-07-23T19:11:22.661Z</time>
      </trkpt>
      <trkpt lat="44.99495" lon="5.31556">
        <ele>1008.51022</ele>
        <time>2022-07-23T19:11:25.501Z</time>
      </trkpt>
      <trkpt lat="44.99486" lon="5.31554">
        <ele>1007.163765</ele>
        <time>2022-07-23T19:11:27.223Z</time>
      </trkpt>
      <trkpt lat="44.9946" lon="5.31513">
        <ele>1001.551324</ele>
        <time>2022-07-23T19:11:35.142Z</time>
      </trkpt>
      <trkpt lat="44.99457" lon="5.31496">
        <ele>999.921515</ele>
        <time>2022-07-23T19:11:37.539Z</time>
      </trkpt>
      <trkpt lat="44.99429" lon="5.3146">
        <ele>994.670109</ele>
        <time>2022-07-23T19:11:45.221Z</time>
      </trkpt>
      <trkpt lat="44.99422" lon="5.31436">
        <ele>992.12461</ele>
        <time>2022-07-23T19:11:49.119Z</time>
      </trkpt>
      <trkpt lat="44.99418" lon="5.31374">
        <ele>986.088713</ele>
        <time>2022-07-23T19:11:58.531Z</time>
      </trkpt>
      <trkpt lat="44.99421" lon="5.31319">
        <ele>980.826368</ele>
        <time>2022-07-23T19:12:06.612Z</time>
      </trkpt>
      <trkpt lat="44.99414" lon="5.31283">
        <ele>977.496689</ele>
        <time>2022-07-23T19:12:12.053Z</time>
      </trkpt>
      <trkpt lat="44.99415" lon="5.31279">
        <ele>977.029399</ele>
        <time>2022-07-23T19:12:12.831Z</time>
      </trkpt>
      <trkpt lat="44.99414" lon="5.31267">
        <ele>975.971484</ele>
        <time>2022-07-23T19:12:14.564Z</time>
      </trkpt>
      <trkpt lat="44.99417" lon="5.3124">
        <ele>973.549445</ele>
        <time>2022-07-23T19:12:18.504Z</time>
      </trkpt>
      <trkpt lat="44.99419" lon="5.31231">
        <ele>972.731185</ele>
        <time>2022-07-23T19:12:19.839Z</time>
      </trkpt>
      <trkpt lat="44.99429" lon="5.31216">
        <ele>970.948002</ele>
        <time>2022-07-23T19:12:22.774Z</time>
      </trkpt>
      <trkpt lat="44.99441" lon="5.31173">
        <ele>966.776623</ele>
        <time>2022-07-23T19:12:29.641Z</time>
      </trkpt>
      <trkpt lat="44.99452" lon="5.31149">
        <ele>964.268165</ele>
        <time>2022-07-23T19:12:33.783Z</time>
      </trkpt>
      <trkpt lat="44.99476" lon="5.31127">
        <ele>960.66356</ele>
        <time>2022-07-23T19:12:39.748Z</time>
      </trkpt>
      <trkpt lat="44.99501" lon="5.3112">
        <ele>957.328197</ele>
        <time>2022-07-23T19:12:45.192Z</time>
      </trkpt>
      <trkpt lat="44.99522" lon="5.31107">
        <ele>954.271704</ele>
        <time>2022-07-23T19:12:49.985Z</time>
      </trkpt>
      <trkpt lat="44.99561" lon="5.31088">
        <ele>948.727285</ele>
        <time>2022-07-23T19:12:58.686Z</time>
      </trkpt>
      <trkpt lat="44.99579" lon="5.31067">
        <ele>945.649789</ele>
        <time>2022-07-23T19:13:03.477Z</time>
      </trkpt>
      <trkpt lat="44.99587" lon="5.3105">
        <ele>943.711258</ele>
        <time>2022-07-23T19:13:06.510Z</time>
      </trkpt>
      <trkpt lat="44.99595" lon="5.31044">
        <ele>942.398524</ele>
        <time>2022-07-23T19:13:08.438Z</time>
      </trkpt>
      <trkpt lat="44.99604" lon="5.31029">
        <ele>940.572355</ele>
        <time>2022-07-23T19:13:11.324Z</time>
      </trkpt>
      <trkpt lat="44.99608" lon="5.30998">
        <ele>937.570795</ele>
        <time>2022-07-23T19:13:15.787Z</time>
      </trkpt>
      <trkpt lat="44.99616" lon="5.30977">
        <ele>935.319985</ele>
        <time>2022-07-23T19:13:19.443Z</time>
      </trkpt>
      <trkpt lat="44.99632" lon="5.30958">
        <ele>932.60458</ele>
        <time>2022-07-23T19:13:23.655Z</time>
      </trkpt>
      <trkpt lat="44.99644" lon="5.30886">
        <ele>926.007719</ele>
        <time>2022-07-23T19:13:34.629Z</time>
      </trkpt>
      <trkpt lat="44.99648" lon="5.30876">
        <ele>925.008159</ele>
        <time>2022-07-23T19:13:36.386Z</time>
      </trkpt>
      <trkpt lat="44.99655" lon="5.3087">
        <ele>924.044874</ele>
        <time>2022-07-23T19:13:37.873Z</time>
      </trkpt>
      <trkpt lat="44.99677" lon="5.3093">
        <ele>918.001401</ele>
        <time>2022-07-23T19:13:47.997Z</time>
      </trkpt>
      <trkpt lat="44.99683" lon="5.30942">
        <ele>916.668023</ele>
        <time>2022-07-23T19:13:50.411Z</time>
      </trkpt>
      <trkpt lat="44.99692" lon="5.30957">
        <ele>914.975181</ele>
        <time>2022-07-23T19:13:53.017Z</time>
      </trkpt>
      <trkpt lat="44.99715" lon="5.30981">
        <ele>911.481399</ele>
        <time>2022-07-23T19:13:59.603Z</time>
      </trkpt>
      <trkpt lat="44.99735" lon="5.31017">
        <ele>908.498779</ele>
        <time>2022-07-23T19:14:06.390Z</time>
      </trkpt>
      <trkpt lat="44.99748" lon="5.31025">
        <ele>907.224586</ele>
        <time>2022-07-23T19:14:09.102Z</time>
      </trkpt>
      <trkpt lat="44.9977" lon="5.31079">
        <ele>903.146285</ele>
        <time>2022-07-23T19:14:19.378Z</time>
      </trkpt>
      <trkpt lat="44.99781" lon="5.31092">
        <ele>901.778481</ele>
        <time>2022-07-23T19:14:22.738Z</time>
      </trkpt>
      <trkpt lat="44.99792" lon="5.311">
        <ele>900.690112</ele>
        <time>2022-07-23T19:14:25.356Z</time>
      </trkpt>
      <trkpt lat="44.99824" lon="5.31107">
        <ele>897.726614</ele>
        <time>2022-07-23T19:14:32.432Z</time>
      </trkpt>
      <trkpt lat="44.99839" lon="5.31115">
        <ele>896.208572</ele>
        <time>2022-07-23T19:14:36.042Z</time>
      </trkpt>
      <trkpt lat="44.99847" lon="5.31125">
        <ele>895.255156</ele>
        <time>2022-07-23T19:14:38.315Z</time>
      </trkpt>
      <trkpt lat="44.99855" lon="5.31142">
        <ele>893.830296</ele>
        <time>2022-07-23T19:14:41.475Z</time>
      </trkpt>
      <trkpt lat="44.99867" lon="5.31155">
        <ele>892.353835</ele>
        <time>2022-07-23T19:14:44.773Z</time>
      </trkpt>
      <trkpt lat="44.99895" lon="5.31196">
        <ele>888.390704</ele>
        <time>2022-07-23T19:14:53.532Z</time>
      </trkpt>
      <trkpt lat="44.99912" lon="5.31226">
        <ele>885.713613</ele>
        <time>2022-07-23T19:14:59.457Z</time>
      </trkpt>
      <trkpt lat="44.99934" lon="5.31227">
        <ele>883.6375</ele>
        <time>2022-07-23T19:15:04.030Z</time>
      </trkpt>
      <trkpt lat="44.99984" lon="5.31215">
        <ele>878.655322</ele>
        <time>2022-07-23T19:15:15.000Z</time>
      </trkpt>
      <trkpt lat="45.00029" lon="5.31224">
        <ele>874.475617</ele>
        <time>2022-07-23T19:15:24.747Z</time>
      </trkpt>
      <trkpt lat="45.00064" lon="5.31247">
        <ele>870.993989</ele>
        <time>2022-07-23T19:15:33.013Z</time>
      </trkpt>
      <trkpt lat="45.00085" lon="5.31256">
        <ele>869.059794</ele>
        <time>2022-07-23T19:15:37.672Z</time>
      </trkpt>
      <trkpt lat="45.00125" lon="5.3129">
        <ele>864.798962</ele>
        <time>2022-07-23T19:15:48.074Z</time>
      </trkpt>
      <trkpt lat="45.00164" lon="5.31316">
        <ele>861.108165</ele>
        <time>2022-07-23T19:15:57.781Z</time>
      </trkpt>
      <trkpt lat="45.00197" lon="5.3135">
        <ele>858.638574</ele>
        <time>2022-07-23T19:16:07.041Z</time>
      </trkpt>
      <trkpt lat="45.00235" lon="5.31381">
        <ele>856.024545</ele>
        <time>2022-07-23T19:16:16.818Z</time>
      </trkpt>
      <trkpt lat="45.00251" lon="5.31389">
        <ele>855.023803</ele>
        <time>2022-07-23T19:16:20.730Z</time>
      </trkpt>
      <trkpt lat="45.00285" lon="5.31422">
        <ele>852.501753</ele>
        <time>2022-07-23T19:16:30.756Z</time>
      </trkpt>
      <trkpt lat="45.00293" lon="5.3143">
        <ele>851.938533</ele>
        <time>2022-07-23T19:16:33.284Z</time>
      </trkpt>
      <trkpt lat="45.00295" lon="5.31438">
        <ele>851.571895</ele>
        <time>2022-07-23T19:16:34.530Z</time>
      </trkpt>
      <trkpt lat="45.00295" lon="5.31449">
        <ele>851.097511</ele>
        <time>2022-07-23T19:16:36.716Z</time>
      </trkpt>
      <trkpt lat="45.00357" lon="5.31623">
        <ele>848.69593</ele>
        <time>2022-07-23T19:17:14.477Z</time>
      </trkpt>
      <trkpt lat="45.00376" lon="5.31653">
        <ele>848.258821</ele>
        <time>2022-07-23T19:17:25.072Z</time>
      </trkpt>
      <trkpt lat="45.00392" lon="5.31712">
        <ele>847.452655</ele>
        <time>2022-07-23T19:17:41.199Z</time>
      </trkpt>
      <trkpt lat="45.00395" lon="5.31756">
        <ele>846.814995</ele>
        <time>2022-07-23T19:17:52.222Z</time>
      </trkpt>
      <trkpt lat="45.00417" lon="5.31821">
        <ele>845.767391</ele>
        <time>2022-07-23T19:18:07.448Z</time>
      </trkpt>
      <trkpt lat="45.00446" lon="5.31859">
        <ele>844.946696</ele>
        <time>2022-07-23T19:18:18.012Z</time>
      </trkpt>
      <trkpt lat="45.00479" lon="5.31893">
        <ele>843.585307</ele>
        <time>2022-07-23T19:18:27.763Z</time>
      </trkpt>
      <trkpt lat="45.00479" lon="5.31893">
        <ele>843.585307</ele>
        <time>2022-07-23T19:18:27.769Z</time>
      </trkpt>
      <trkpt lat="45.00502" lon="5.31906">
        <ele>841.137902</ele>
        <time>2022-07-23T19:18:33.347Z</time>
      </trkpt>
      <trkpt lat="45.00527" lon="5.31914">
        <ele>838.657422</ele>
        <time>2022-07-23T19:18:38.887Z</time>
      </trkpt>
      <trkpt lat="45.00527" lon="5.31929">
        <ele>837.66517</ele>
        <time>2022-07-23T19:18:41.035Z</time>
      </trkpt>
      <trkpt lat="45.00534" lon="5.31938">
        <ele>836.711782</ele>
        <time>2022-07-23T19:18:43.194Z</time>
      </trkpt>
      <trkpt lat="45.00532" lon="5.31948">
        <ele>835.961497</ele>
        <time>2022-07-23T19:18:44.814Z</time>
      </trkpt>
      <trkpt lat="45.00522" lon="5.3195">
        <ele>834.987629</ele>
        <time>2022-07-23T19:18:46.027Z</time>
      </trkpt>
      <trkpt lat="45.00509" lon="5.32001">
        <ele>831.267905</ele>
        <time>2022-07-23T19:18:54.175Z</time>
      </trkpt>
      <trkpt lat="45.00491" lon="5.32049">
        <ele>827.49444</ele>
        <time>2022-07-23T19:19:02.291Z</time>
      </trkpt>
      <trkpt lat="45.00523" lon="5.32051">
        <ele>822.986505</ele>
        <time>2022-07-23T19:19:08.953Z</time>
      </trkpt>
      <trkpt lat="45.0054" lon="5.32019">
        <ele>818.580896</ele>
        <time>2022-07-23T19:19:14.808Z</time>
      </trkpt>
      <trkpt lat="45.00552" lon="5.32007">
        <ele>816.388727</ele>
        <time>2022-07-23T19:19:17.716Z</time>
      </trkpt>
      <trkpt lat="45.00562" lon="5.32006">
        <ele>814.814659</ele>
        <time>2022-07-23T19:19:19.771Z</time>
      </trkpt>
      <trkpt lat="45.00573" lon="5.32013">
        <ele>812.939863</ele>
        <time>2022-07-23T19:19:22.232Z</time>
      </trkpt>
      <trkpt lat="45.00591" lon="5.32043">
        <ele>808.643077</ele>
        <time>2022-07-23T19:19:27.829Z</time>
      </trkpt>
      <trkpt lat="45.0065" lon="5.32065">
        <ele>799.355579</ele>
        <time>2022-07-23T19:19:39.815Z</time>
      </trkpt>
      <trkpt lat="45.00683" lon="5.32091">
        <ele>791.288528</ele>
        <time>2022-07-23T19:19:47.263Z</time>
      </trkpt>
      <trkpt lat="45.007" lon="5.32098">
        <ele>787.42451</ele>
        <time>2022-07-23T19:19:50.714Z</time>
      </trkpt>
      <trkpt lat="45.00719" lon="5.32096">
        <ele>783.282077</ele>
        <time>2022-07-23T19:19:54.396Z</time>
      </trkpt>
      <trkpt lat="45.00744" lon="5.32086">
        <ele>777.496899</ele>
        <time>2022-07-23T19:19:59.556Z</time>
      </trkpt>
      <trkpt lat="45.00804" lon="5.32081">
        <ele>764.502082</ele>
        <time>2022-07-23T19:20:11.116Z</time>
      </trkpt>
      <trkpt lat="45.00872" lon="5.32058">
        <ele>749.110571</ele>
        <time>2022-07-23T19:20:24.700Z</time>
      </trkpt>
      <trkpt lat="45.00884" lon="5.32048">
        <ele>746.008714</ele>
        <time>2022-07-23T19:20:27.439Z</time>
      </trkpt>
      <trkpt lat="45.00896" lon="5.32046">
        <ele>743.482279</ele>
        <time>2022-07-23T19:20:29.665Z</time>
      </trkpt>
      <trkpt lat="45.00931" lon="5.32024">
        <ele>735.036729</ele>
        <time>2022-07-23T19:20:37.090Z</time>
      </trkpt>
      <trkpt lat="45.00947" lon="5.32005">
        <ele>730.297843</ele>
        <time>2022-07-23T19:20:41.264Z</time>
      </trkpt>
      <trkpt lat="45.00959" lon="5.31999">
        <ele>727.583704</ele>
        <time>2022-07-23T19:20:43.631Z</time>
      </trkpt>
      <trkpt lat="45.00964" lon="5.31991">
        <ele>725.90232</ele>
        <time>2022-07-23T19:20:45.134Z</time>
      </trkpt>
      <trkpt lat="45.00965" lon="5.31974">
        <ele>723.237625</ele>
        <time>2022-07-23T19:20:47.572Z</time>
      </trkpt>
      <trkpt lat="45.0098" lon="5.31949">
        <ele>719.19333</ele>
        <time>2022-07-23T19:20:52.092Z</time>
      </trkpt>
      <trkpt lat="45.00979" lon="5.31913">
        <ele>716.351676</ele>
        <time>2022-07-23T19:21:05.062Z</time>
      </trkpt>
      <trkpt lat="45.00974" lon="5.31882">
        <ele>713.916242</ele>
        <time>2022-07-23T19:21:16.735Z</time>
      </trkpt>
      <trkpt lat="45.00958" lon="5.31828">
        <ele>709.323336</ele>
        <time>2022-07-23T19:21:38.229Z</time>
      </trkpt>
      <trkpt lat="45.00932" lon="5.31776">
        <ele>704.299793</ele>
        <time>2022-07-23T19:22:02.371Z</time>
      </trkpt>
      <trkpt lat="45.00911" lon="5.31728">
        <ele>700.109851</ele>
        <time>2022-07-23T19:22:25.714Z</time>
      </trkpt>
      <trkpt lat="45.0087" lon="5.31664">
        <ele>696.567623</ele>
        <time>2022-07-23T19:23:06.730Z</time>
      </trkpt>
      <trkpt lat="45.00839" lon="5.31599">
        <ele>693.297769</ele>
        <time>2022-07-23T19:23:39.969Z</time>
      </trkpt>
      <trkpt lat="45.00814" lon="5.31531">
        <ele>690.143394</ele>
        <time>2022-07-23T19:24:09.804Z</time>
      </trkpt>
      <trkpt lat="45.00791" lon="5.31479">
        <ele>685.111097</ele>
        <time>2022-07-23T19:24:32.560Z</time>
      </trkpt>
      <trkpt lat="45.00776" lon="5.31425">
        <ele>680.10256</ele>
        <time>2022-07-23T19:24:53.568Z</time>
      </trkpt>
      <trkpt lat="45.00765" lon="5.31361">
        <ele>674.307141</ele>
        <time>2022-07-23T19:25:18.302Z</time>
      </trkpt>
      <trkpt lat="45.00765" lon="5.31361">
        <ele>674.307141</ele>
        <time>2022-07-23T19:25:18.392Z</time>
      </trkpt>
      <trkpt lat="45.00767" lon="5.31283">
        <ele>667.389187</ele>
        <time>2022-07-23T19:25:46.890Z</time>
      </trkpt>
      <trkpt lat="45.00769" lon="5.31277">
        <ele>666.603369</ele>
        <time>2022-07-23T19:25:48.960Z</time>
      </trkpt>
      <trkpt lat="45.00779" lon="5.31307">
        <ele>662.355691</ele>
        <time>2022-07-23T19:26:00.741Z</time>
      </trkpt>
      <trkpt lat="45.00791" lon="5.31324">
        <ele>659.249693</ele>
        <time>2022-07-23T19:26:08.852Z</time>
      </trkpt>
      <trkpt lat="45.00802" lon="5.31351">
        <ele>655.137342</ele>
        <time>2022-07-23T19:26:19.717Z</time>
      </trkpt>
      <trkpt lat="45.00805" lon="5.31356">
        <ele>654.293529</ele>
        <time>2022-07-23T19:26:21.890Z</time>
      </trkpt>
      <trkpt lat="45.00806" lon="5.31351">
        <ele>653.638991</ele>
        <time>2022-07-23T19:26:23.600Z</time>
      </trkpt>
      <trkpt lat="45.00799" lon="5.31326">
        <ele>650.086417</ele>
        <time>2022-07-23T19:26:32.947Z</time>
      </trkpt>
      <trkpt lat="45.0079" lon="5.31274">
        <ele>643.073975</ele>
        <time>2022-07-23T19:26:51.268Z</time>
      </trkpt>
      <trkpt lat="45.0079" lon="5.31274">
        <ele>643.073975</ele>
        <time>2022-07-23T19:26:51.386Z</time>
      </trkpt>
      <trkpt lat="45.00786" lon="5.31211">
        <ele>634.809477</ele>
        <time>2022-07-23T19:27:13.200Z</time>
      </trkpt>
      <trkpt lat="45.00788" lon="5.31158">
        <ele>627.451119</ele>
        <time>2022-07-23T19:27:31.085Z</time>
      </trkpt>
      <trkpt lat="45.00785" lon="5.3111">
        <ele>620.571745</ele>
        <time>2022-07-23T19:27:47.532Z</time>
      </trkpt>
      <trkpt lat="45.00779" lon="5.31053">
        <ele>612.484803</ele>
        <time>2022-07-23T19:28:06.860Z</time>
      </trkpt>
      <trkpt lat="45.00768" lon="5.30992">
        <ele>603.475072</ele>
        <time>2022-07-23T19:28:28.508Z</time>
      </trkpt>
      <trkpt lat="45.00768" lon="5.30985">
        <ele>602.524969</ele>
        <time>2022-07-23T19:28:30.842Z</time>
      </trkpt>
      <trkpt lat="45.0088" lon="5.31131">
        <ele>575.402644</ele>
        <time>2022-07-23T19:29:47.626Z</time>
      </trkpt>
      <trkpt lat="45.00885" lon="5.31115">
        <ele>573.19595</ele>
        <time>2022-07-23T19:29:53.998Z</time>
      </trkpt>
      <trkpt lat="45.00891" lon="5.31088">
        <ele>569.718493</ele>
        <time>2022-07-23T19:29:57.889Z</time>
      </trkpt>
      <trkpt lat="45.00892" lon="5.31044">
        <ele>563.863683</ele>
        <time>2022-07-23T19:30:03.871Z</time>
      </trkpt>
      <trkpt lat="45.00889" lon="5.30925">
        <ele>546.485636</ele>
        <time>2022-07-23T19:30:20.281Z</time>
      </trkpt>
      <trkpt lat="45.00897" lon="5.30887">
        <ele>540.83088</ele>
        <time>2022-07-23T19:30:25.618Z</time>
      </trkpt>
      <trkpt lat="45.00899" lon="5.30857">
        <ele>536.413494</ele>
        <time>2022-07-23T19:30:29.825Z</time>
      </trkpt>
      <trkpt lat="45.0091" lon="5.30811">
        <ele>529.701928</ele>
        <time>2022-07-23T19:30:36.656Z</time>
      </trkpt>
      <trkpt lat="45.00908" lon="5.30786">
        <ele>527.307639</ele>
        <time>2022-07-23T19:30:40.426Z</time>
      </trkpt>
      <trkpt lat="45.00909" lon="5.30773">
        <ele>526.146346</ele>
        <time>2022-07-23T19:30:42.204Z</time>
      </trkpt>
      <trkpt lat="45.00937" lon="5.30704">
        <ele>518.770625</ele>
        <time>2022-07-23T19:30:53.453Z</time>
      </trkpt>
      <trkpt lat="45.00939" lon="5.30693">
        <ele>517.678432</ele>
        <time>2022-07-23T19:30:55.152Z</time>
      </trkpt>
      <trkpt lat="45.0094" lon="5.30678">
        <ele>516.305493</ele>
        <time>2022-07-23T19:30:57.270Z</time>
      </trkpt>
      <trkpt lat="45.00936" lon="5.30662">
        <ele>514.745367</ele>
        <time>2022-07-23T19:30:59.694Z</time>
      </trkpt>
      <trkpt lat="45.00924" lon="5.30648">
        <ele>512.71337</ele>
        <time>2022-07-23T19:31:03.171Z</time>
      </trkpt>
      <trkpt lat="45.00907" lon="5.30642">
        <ele>510.399635</ele>
        <time>2022-07-23T19:31:07.179Z</time>
      </trkpt>
      <trkpt lat="45.0089" lon="5.30644">
        <ele>508.200087</ele>
        <time>2022-07-23T19:31:11.033Z</time>
      </trkpt>
      <trkpt lat="45.00872" lon="5.30649">
        <ele>506.049498</ele>
        <time>2022-07-23T19:31:15.346Z</time>
      </trkpt>
      <trkpt lat="45.0085" lon="5.30665">
        <ele>503.859746</ele>
        <time>2022-07-23T19:31:20.916Z</time>
      </trkpt>
      <trkpt lat="45.00833" lon="5.30687">
        <ele>501.806831</ele>
        <time>2022-07-23T19:31:26.051Z</time>
      </trkpt>
      <trkpt lat="45.00818" lon="5.30695">
        <ele>500.389497</ele>
        <time>2022-07-23T19:31:29.544Z</time>
      </trkpt>
      <trkpt lat="45.00786" lon="5.30705">
        <ele>497.498233</ele>
        <time>2022-07-23T19:31:36.618Z</time>
      </trkpt>
      <trkpt lat="45.00722" lon="5.30697">
        <ele>491.790361</ele>
        <time>2022-07-23T19:31:50.496Z</time>
      </trkpt>
      <trkpt lat="45.00689" lon="5.30683">
        <ele>488.370464</ele>
        <time>2022-07-23T19:31:57.949Z</time>
      </trkpt>
      <trkpt lat="45.00594" lon="5.3063">
        <ele>477.745073</ele>
        <time>2022-07-23T19:32:19.703Z</time>
      </trkpt>
      <trkpt lat="45.00584" lon="5.30611">
        <ele>475.960926</ele>
        <time>2022-07-23T19:32:23.314Z</time>
      </trkpt>
      <trkpt lat="45.0055" lon="5.30568">
        <ele>471.177691</ele>
        <time>2022-07-23T19:32:33.126Z</time>
      </trkpt>
      <trkpt lat="45.00548" lon="5.30544">
        <ele>469.38917</ele>
        <time>2022-07-23T19:32:36.733Z</time>
      </trkpt>
      <trkpt lat="45.00575" lon="5.30474">
        <ele>463.359841</ele>
        <time>2022-07-23T19:32:48.681Z</time>
      </trkpt>
      <trkpt lat="45.00568" lon="5.30446">
        <ele>461.179926</ele>
        <time>2022-07-23T19:32:53.083Z</time>
      </trkpt>
      <trkpt lat="45.00561" lon="5.3043">
        <ele>459.762964</ele>
        <time>2022-07-23T19:32:55.874Z</time>
      </trkpt>
      <trkpt lat="45.00542" lon="5.30416">
        <ele>457.466541</ele>
        <time>2022-07-23T19:33:00.643Z</time>
      </trkpt>
      <trkpt lat="45.00527" lon="5.30398">
        <ele>455.337685</ele>
        <time>2022-07-23T19:33:04.808Z</time>
      </trkpt>
      <trkpt lat="45.00532" lon="5.3038">
        <ele>453.880355</ele>
        <time>2022-07-23T19:33:07.669Z</time>
      </trkpt>
      <trkpt lat="45.00562" lon="5.30363">
        <ele>450.147662</ele>
        <time>2022-07-23T19:33:14.541Z</time>
      </trkpt>
      <trkpt lat="45.00621" lon="5.30343">
        <ele>442.987949</ele>
        <time>2022-07-23T19:33:27.372Z</time>
      </trkpt>
      <trkpt lat="45.00638" lon="5.30321">
        <ele>440.306967</ele>
        <time>2022-07-23T19:33:32.135Z</time>
      </trkpt>
      <trkpt lat="45.00646" lon="5.3029">
        <ele>437.558236</ele>
        <time>2022-07-23T19:33:36.899Z</time>
      </trkpt>
      <trkpt lat="45.00646" lon="5.30229">
        <ele>432.524295</ele>
        <time>2022-07-23T19:33:45.881Z</time>
      </trkpt>
      <trkpt lat="45.00639" lon="5.30207">
        <ele>430.644628</ele>
        <time>2022-07-23T19:33:49.538Z</time>
      </trkpt>
      <trkpt lat="45.00643" lon="5.30185">
        <ele>429.007812</ele>
        <time>2022-07-23T19:33:52.925Z</time>
      </trkpt>
      <trkpt lat="45.00667" lon="5.30123">
        <ele>423.982499</ele>
        <time>2022-07-23T19:34:03.537Z</time>
      </trkpt>
      <trkpt lat="45.00677" lon="5.30044">
        <ele>418.193702</ele>
        <time>2022-07-23T19:34:15.849Z</time>
      </trkpt>
      <trkpt lat="45.00674" lon="5.3001">
        <ele>415.758795</ele>
        <time>2022-07-23T19:34:21.107Z</time>
      </trkpt>
      <trkpt lat="45.00655" lon="5.29964">
        <ele>412.097514</ele>
        <time>2022-07-23T19:34:29.213Z</time>
      </trkpt>
      <trkpt lat="45.00655" lon="5.29949">
        <ele>411.109526</ele>
        <time>2022-07-23T19:34:31.639Z</time>
      </trkpt>
      <trkpt lat="45.0064" lon="5.299">
        <ele>407.637598</ele>
        <time>2022-07-23T19:34:39.936Z</time>
      </trkpt>
      <trkpt lat="45.00615" lon="5.29841">
        <ele>403.155694</ele>
        <time>2022-07-23T19:34:50.557Z</time>
      </trkpt>
      <trkpt lat="45.00656" lon="5.2989">
        <ele>398.166521</ele>
        <time>2022-07-23T19:34:57.256Z</time>
      </trkpt>
      <trkpt lat="45.00709" lon="5.29989">
        <ele>386.960597</ele>
        <time>2022-07-23T19:35:07.582Z</time>
      </trkpt>
      <trkpt lat="45.00731" lon="5.3005">
        <ele>380.371421</ele>
        <time>2022-07-23T19:35:13.116Z</time>
      </trkpt>
      <trkpt lat="45.00733" lon="5.30079">
        <ele>377.601796</ele>
        <time>2022-07-23T19:35:15.481Z</time>
      </trkpt>
      <trkpt lat="45.0074" lon="5.30094">
        <ele>375.843837</ele>
        <time>2022-07-23T19:35:16.931Z</time>
      </trkpt>
      <trkpt lat="45.00747" lon="5.30097">
        <ele>374.932351</ele>
        <time>2022-07-23T19:35:17.711Z</time>
      </trkpt>
      <trkpt lat="45.00754" lon="5.30095">
        <ele>374.0159</ele>
        <time>2022-07-23T19:35:18.510Z</time>
      </trkpt>
      <trkpt lat="45.00759" lon="5.30086">
        <ele>372.867041</ele>
        <time>2022-07-23T19:35:19.462Z</time>
      </trkpt>
      <trkpt lat="45.00774" lon="5.30083">
        <ele>370.481246</ele>
        <time>2022-07-23T19:35:21.259Z</time>
      </trkpt>
      <trkpt lat="45.00788" lon="5.30073">
        <ele>368.022845</ele>
        <time>2022-07-23T19:35:23.139Z</time>
      </trkpt>
      <trkpt lat="45.00851" lon="5.29985">
        <ele>353.727938</ele>
        <time>2022-07-23T19:35:33.638Z</time>
      </trkpt>
      <trkpt lat="45.00873" lon="5.29979">
        <ele>350.204397</ele>
        <time>2022-07-23T19:35:36.247Z</time>
      </trkpt>
      <trkpt lat="45.00911" lon="5.29991">
        <ele>343.883355</ele>
        <time>2022-07-23T19:35:40.953Z</time>
      </trkpt>
      <trkpt lat="45.00918" lon="5.29981">
        <ele>343.249439</ele>
        <time>2022-07-23T19:35:42.164Z</time>
      </trkpt>
      <trkpt lat="45.00937" lon="5.29969">
        <ele>342.582718</ele>
        <time>2022-07-23T19:35:44.847Z</time>
      </trkpt>
      <trkpt lat="45.00952" lon="5.29966">
        <ele>342.083356</ele>
        <time>2022-07-23T19:35:46.875Z</time>
      </trkpt>
      <trkpt lat="45.00963" lon="5.2996">
        <ele>341.713393</ele>
        <time>2022-07-23T19:35:48.698Z</time>
      </trkpt>
      <trkpt lat="45.0097" lon="5.29946">
        <ele>341.315695</ele>
        <time>2022-07-23T19:35:50.318Z</time>
      </trkpt>
      <trkpt lat="45.0101" lon="5.29966">
        <ele>339.93419</ele>
        <time>2022-07-23T19:35:56.999Z</time>
      </trkpt>
      <trkpt lat="45.00999" lon="5.29993">
        <ele>339.241445</ele>
        <time>2022-07-23T19:36:02.885Z</time>
      </trkpt>
      <trkpt lat="45.00979" lon="5.30045">
        <ele>337.867508</ele>
        <time>2022-07-23T19:36:14.645Z</time>
      </trkpt>
      <trkpt lat="45.00961" lon="5.30063">
        <ele>338.649891</ele>
        <time>2022-07-23T19:36:26.189Z</time>
      </trkpt>
      <trkpt lat="45.01014" lon="5.30133">
        <ele>343.141229</ele>
        <time>2022-07-23T19:37:10.236Z</time>
      </trkpt>
      <trkpt lat="45.01066" lon="5.30175">
        <ele>346.851233</ele>
        <time>2022-07-23T19:37:48.902Z</time>
      </trkpt>
      <trkpt lat="45.01129" lon="5.3024">
        <ele>349.91503</ele>
        <time>2022-07-23T19:38:29.706Z</time>
      </trkpt>
      <trkpt lat="45.01149" lon="5.30284">
        <ele>350.818474</ele>
        <time>2022-07-23T19:38:45.321Z</time>
      </trkpt>
      <trkpt lat="45.01176" lon="5.30349">
        <ele>352.112983</ele>
        <time>2022-07-23T19:39:03.077Z</time>
      </trkpt>
      <trkpt lat="45.01198" lon="5.30378">
        <ele>352.824004</ele>
        <time>2022-07-23T19:39:10.669Z</time>
      </trkpt>
      <trkpt lat="45.01214" lon="5.30398">
        <ele>353.047613</ele>
        <time>2022-07-23T19:39:15.404Z</time>
      </trkpt>
      <trkpt lat="45.01275" lon="5.3046">
        <ele>352.10538</ele>
        <time>2022-07-23T19:39:31.362Z</time>
      </trkpt>
      <trkpt lat="45.01288" lon="5.30472">
        <ele>351.900358</ele>
        <time>2022-07-23T19:39:34.251Z</time>
      </trkpt>
      <trkpt lat="45.01379" lon="5.30515">
        <ele>350.669358</ele>
        <time>2022-07-23T19:39:50.691Z</time>
      </trkpt>
      <trkpt lat="45.01382" lon="5.30523">
        <ele>350.580083</ele>
        <time>2022-07-23T19:39:52.189Z</time>
      </trkpt>
      <trkpt lat="45.01414" lon="5.30581">
        <ele>349.812774</ele>
        <time>2022-07-23T19:40:08.418Z</time>
      </trkpt>
      <trkpt lat="45.01424" lon="5.30614">
        <ele>349.432819</ele>
        <time>2022-07-23T19:40:16.457Z</time>
      </trkpt>
      <trkpt lat="45.01466" lon="5.30679">
        <ele>348.516272</ele>
        <time>2022-07-23T19:40:34.046Z</time>
      </trkpt>
      <trkpt lat="45.01503" lon="5.30755">
        <ele>344.783669</ele>
        <time>2022-07-23T19:40:50.590Z</time>
      </trkpt>
      <trkpt lat="45.0154" lon="5.30799">
        <ele>341.111724</ele>
        <time>2022-07-23T19:40:57.104Z</time>
      </trkpt>
      <trkpt lat="45.01544" lon="5.30808">
        <ele>340.553804</ele>
        <time>2022-07-23T19:40:58.104Z</time>
      </trkpt>
      <trkpt lat="45.01544" lon="5.30821">
        <ele>339.841316</ele>
        <time>2022-07-23T19:40:59.342Z</time>
      </trkpt>
      <trkpt lat="45.01555" lon="5.3085">
        <ele>338.088504</ele>
        <time>2022-07-23T19:41:02.294Z</time>
      </trkpt>
      <trkpt lat="45.01566" lon="5.30853">
        <ele>337.249152</ele>
        <time>2022-07-23T19:41:03.725Z</time>
      </trkpt>
      <trkpt lat="45.01577" lon="5.30843">
        <ele>336.28819</ele>
        <time>2022-07-23T19:41:05.318Z</time>
      </trkpt>
      <trkpt lat="45.01588" lon="5.30817">
        <ele>334.618954</ele>
        <time>2022-07-23T19:41:08.049Z</time>
      </trkpt>
      <trkpt lat="45.01614" lon="5.30709">
        <ele>325.637815</ele>
        <time>2022-07-23T19:41:18.073Z</time>
      </trkpt>
      <trkpt lat="45.01625" lon="5.30657">
        <ele>321.372416</ele>
        <time>2022-07-23T19:41:22.830Z</time>
      </trkpt>
      <trkpt lat="45.01627" lon="5.3062">
        <ele>318.456847</ele>
        <time>2022-07-23T19:41:26.133Z</time>
      </trkpt>
      <trkpt lat="45.01621" lon="5.30561">
        <ele>313.938097</ele>
        <time>2022-07-23T19:41:31.466Z</time>
      </trkpt>
      <trkpt lat="45.01606" lon="5.30458">
        <ele>307.418583</ele>
        <time>2022-07-23T19:41:40.856Z</time>
      </trkpt>
      <trkpt lat="45.01572" lon="5.30327">
        <ele>298.75281</ele>
        <time>2022-07-23T19:41:53.978Z</time>
      </trkpt>
      <trkpt lat="45.01572" lon="5.30327">
        <ele>298.75281</ele>
        <time>2022-07-23T19:41:54.028Z</time>
      </trkpt>
      <trkpt lat="45.01572" lon="5.30285">
        <ele>296.875544</ele>
        <time>2022-07-23T19:41:58.109Z</time>
      </trkpt>
      <trkpt lat="45.01575" lon="5.30247">
        <ele>295.216767</ele>
        <time>2022-07-23T19:42:01.635Z</time>
      </trkpt>
      <trkpt lat="45.01606" lon="5.30185">
        <ele>291.837428</ele>
        <time>2022-07-23T19:42:09.012Z</time>
      </trkpt>
      <trkpt lat="45.01616" lon="5.30142">
        <ele>289.872946</ele>
        <time>2022-07-23T19:42:13.470Z</time>
      </trkpt>
      <trkpt lat="45.01634" lon="5.3007">
        <ele>286.968475</ele>
        <time>2022-07-23T19:42:21.059Z</time>
      </trkpt>
      <trkpt lat="45.01654" lon="5.30025">
        <ele>285.667581</ele>
        <time>2022-07-23T19:42:26.578Z</time>
      </trkpt>
      <trkpt lat="45.01671" lon="5.29997">
        <ele>284.757822</ele>
        <time>2022-07-23T19:42:30.432Z</time>
      </trkpt>
      <trkpt lat="45.01694" lon="5.29963">
        <ele>283.584055</ele>
        <time>2022-07-23T19:42:35.431Z</time>
      </trkpt>
      <trkpt lat="45.01707" lon="5.2993">
        <ele>282.64923</ele>
        <time>2022-07-23T19:42:39.735Z</time>
      </trkpt>
      <trkpt lat="45.01717" lon="5.29888">
        <ele>281.575202</ele>
        <time>2022-07-23T19:42:44.777Z</time>
      </trkpt>
      <trkpt lat="45.01728" lon="5.29818">
        <ele>280.88407</ele>
        <time>2022-07-23T19:42:53.282Z</time>
      </trkpt>
      <trkpt lat="45.01729" lon="5.29802">
        <ele>280.77379</ele>
        <time>2022-07-23T19:42:55.300Z</time>
      </trkpt>
      <trkpt lat="45.01723" lon="5.29792">
        <ele>280.679744</ele>
        <time>2022-07-23T19:42:56.951Z</time>
      </trkpt>
      <trkpt lat="45.01726" lon="5.29788">
        <ele>280.63355</ele>
        <time>2022-07-23T19:42:58.275Z</time>
      </trkpt>
      <trkpt lat="45.01731" lon="5.29781">
        <ele>280.567977</ele>
        <time>2022-07-23T19:43:06.378Z</time>
      </trkpt>
      <trkpt lat="45.01737" lon="5.29695">
        <ele>279.951514</ele>
        <time>2022-07-23T19:43:24.800Z</time>
      </trkpt>
      <trkpt lat="45.01739" lon="5.29616">
        <ele>279.25517</ele>
        <time>2022-07-23T19:43:41.948Z</time>
      </trkpt>
      <trkpt lat="45.01741" lon="5.29603">
        <ele>279.0551</ele>
        <time>2022-07-23T19:43:45.070Z</time>
      </trkpt>
      <trkpt lat="45.01751" lon="5.29616">
        <ele>278.773463</ele>
        <time>2022-07-23T19:43:49.098Z</time>
      </trkpt>
      <trkpt lat="45.01805" lon="5.29662">
        <ele>277.448764</ele>
        <time>2022-07-23T19:44:07.680Z</time>
      </trkpt>
      <trkpt lat="45.01825" lon="5.29679">
        <ele>276.97637</ele>
        <time>2022-07-23T19:44:13.716Z</time>
      </trkpt>
      <trkpt lat="45.01865" lon="5.29742">
        <ele>275.669026</ele>
        <time>2022-07-23T19:44:29.079Z</time>
      </trkpt>
      <trkpt lat="45.01871" lon="5.29758">
        <ele>275.040458</ele>
        <time>2022-07-23T19:44:32.082Z</time>
      </trkpt>
      <trkpt lat="45.01887" lon="5.29767">
        <ele>274.121682</ele>
        <time>2022-07-23T19:44:36.418Z</time>
      </trkpt>
      <trkpt lat="45.0203" lon="5.29926">
        <ele>266.471247</ele>
        <time>2022-07-23T19:45:19.130Z</time>
      </trkpt>
      <trkpt lat="45.02096" lon="5.29981">
        <ele>266.189052</ele>
        <time>2022-07-23T19:45:40.450Z</time>
      </trkpt>
      <trkpt lat="45.02099" lon="5.29989">
        <ele>266.165264</ele>
        <time>2022-07-23T19:45:42.369Z</time>
      </trkpt>
      <trkpt lat="45.02145" lon="5.30115">
        <ele>268.363455</ele>
        <time>2022-07-23T19:46:36.668Z</time>
      </trkpt>
      <trkpt lat="45.02125" lon="5.30128">
        <ele>269.770171</ele>
        <time>2022-07-23T19:46:48.261Z</time>
      </trkpt>
      <trkpt lat="45.02122" lon="5.30135">
        <ele>270.166176</ele>
        <time>2022-07-23T19:46:53.657Z</time>
      </trkpt>
      <trkpt lat="45.02119" lon="5.30203">
        <ele>273.318111</ele>
        <time>2022-07-23T19:47:19.842Z</time>
      </trkpt>
      <trkpt lat="45.02109" lon="5.3028">
        <ele>276.935251</ele>
        <time>2022-07-23T19:47:52.569Z</time>
      </trkpt>
      <trkpt lat="45.02097" lon="5.30356">
        <ele>281.045597</ele>
        <time>2022-07-23T19:48:27.828Z</time>
      </trkpt>
      <trkpt lat="45.02082" lon="5.30415">
        <ele>284.43184</ele>
        <time>2022-07-23T19:48:52.571Z</time>
      </trkpt>
      <trkpt lat="45.02054" lon="5.30535">
        <ele>291.28467</ele>
        <time>2022-07-23T19:49:43.044Z</time>
      </trkpt>
      <trkpt lat="45.02056" lon="5.30566">
        <ele>293.011038</ele>
        <time>2022-07-23T19:49:55.651Z</time>
      </trkpt>
      <trkpt lat="45.02063" lon="5.30588">
        <ele>294.384795</ele>
        <time>2022-07-23T19:50:07.954Z</time>
      </trkpt>
      <trkpt lat="45.02087" lon="5.30638">
        <ele>297.764747</ele>
        <time>2022-07-23T19:50:33.703Z</time>
      </trkpt>
      <trkpt lat="45.0209" lon="5.30652">
        <ele>298.579557</ele>
        <time>2022-07-23T19:50:39.077Z</time>
      </trkpt>
      <trkpt lat="45.02092" lon="5.30665">
        <ele>299.322916</ele>
        <time>2022-07-23T19:50:44.817Z</time>
      </trkpt>
      <trkpt lat="45.02072" lon="5.30727">
        <ele>303.171168</ele>
        <time>2022-07-23T19:51:16.394Z</time>
      </trkpt>
      <trkpt lat="45.02042" lon="5.30798">
        <ele>307.699792</ele>
        <time>2022-07-23T19:51:53.293Z</time>
      </trkpt>
      <trkpt lat="45.01992" lon="5.30829">
        <ele>311.837189</ele>
        <time>2022-07-23T19:52:31.732Z</time>
      </trkpt>
      <trkpt lat="45.01978" lon="5.3086">
        <ele>313.762971</ele>
        <time>2022-07-23T19:52:49.076Z</time>
      </trkpt>
      <trkpt lat="45.01969" lon="5.3091">
        <ele>316.502995</ele>
        <time>2022-07-23T19:53:11.348Z</time>
      </trkpt>
      <trkpt lat="45.01973" lon="5.30953">
        <ele>318.792855</ele>
        <time>2022-07-23T19:53:29.613Z</time>
      </trkpt>
      <trkpt lat="45.01955" lon="5.31032">
        <ele>319.712561</ele>
        <time>2022-07-23T19:54:05.783Z</time>
      </trkpt>
      <trkpt lat="45.01897" lon="5.31174">
        <ele>320.644476</ele>
        <time>2022-07-23T19:54:40.974Z</time>
      </trkpt>
      <trkpt lat="45.01889" lon="5.31222">
        <ele>319.108764</ele>
        <time>2022-07-23T19:54:49.601Z</time>
      </trkpt>
      <trkpt lat="45.01889" lon="5.31244">
        <ele>318.001265</ele>
        <time>2022-07-23T19:54:52.980Z</time>
      </trkpt>
      <trkpt lat="45.01885" lon="5.31254">
        <ele>317.44112</ele>
        <time>2022-07-23T19:54:54.949Z</time>
      </trkpt>
      <trkpt lat="45.01887" lon="5.31272">
        <ele>316.535574</ele>
        <time>2022-07-23T19:54:58.294Z</time>
      </trkpt>
      <trkpt lat="45.01881" lon="5.31333">
        <ele>313.445185</ele>
        <time>2022-07-23T19:55:07.801Z</time>
      </trkpt>
      <trkpt lat="45.01873" lon="5.31356">
        <ele>312.133186</ele>
        <time>2022-07-23T19:55:11.705Z</time>
      </trkpt>
      <trkpt lat="45.01869" lon="5.31378">
        <ele>311.007991</ele>
        <time>2022-07-23T19:55:15.352Z</time>
      </trkpt>
      <trkpt lat="45.0187" lon="5.31397">
        <ele>310.037667</ele>
        <time>2022-07-23T19:55:18.306Z</time>
      </trkpt>
      <trkpt lat="45.01861" lon="5.31441">
        <ele>307.899419</ele>
        <time>2022-07-23T19:55:25.239Z</time>
      </trkpt>
      <trkpt lat="45.01862" lon="5.31461">
        <ele>307.473863</ele>
        <time>2022-07-23T19:55:28.349Z</time>
      </trkpt>
      <trkpt lat="45.01867" lon="5.31472">
        <ele>307.208168</ele>
        <time>2022-07-23T19:55:30.713Z</time>
      </trkpt>
      <trkpt lat="45.01878" lon="5.31486">
        <ele>306.790019</ele>
        <time>2022-07-23T19:55:34.642Z</time>
      </trkpt>
      <trkpt lat="45.01881" lon="5.31497">
        <ele>306.536682</ele>
        <time>2022-07-23T19:55:36.436Z</time>
      </trkpt>
      <trkpt lat="45.01875" lon="5.31539">
        <ele>305.645784</ele>
        <time>2022-07-23T19:55:41.189Z</time>
      </trkpt>
      <trkpt lat="45.0187" lon="5.316">
        <ele>304.40098</ele>
        <time>2022-07-23T19:55:47.319Z</time>
      </trkpt>
      <trkpt lat="45.01863" lon="5.31781">
        <ele>306.865928</ele>
        <time>2022-07-23T19:56:32.841Z</time>
      </trkpt>
      <trkpt lat="45.01864" lon="5.31799">
        <ele>307.606854</ele>
        <time>2022-07-23T19:56:36.427Z</time>
      </trkpt>
      <trkpt lat="45.0186" lon="5.31807">
        <ele>308.002589</ele>
        <time>2022-07-23T19:56:44.821Z</time>
      </trkpt>
      <trkpt lat="45.01858" lon="5.3187">
        <ele>310.544893</ele>
        <time>2022-07-23T19:57:08.819Z</time>
      </trkpt>
      <trkpt lat="45.01852" lon="5.31898">
        <ele>311.750068</ele>
        <time>2022-07-23T19:57:17.813Z</time>
      </trkpt>
      <trkpt lat="45.0184" lon="5.31926">
        <ele>313.085238</ele>
        <time>2022-07-23T19:57:35.048Z</time>
      </trkpt>
      <trkpt lat="45.01827" lon="5.31976">
        <ele>315.702252</ele>
        <time>2022-07-23T19:57:59.804Z</time>
      </trkpt>
      <trkpt lat="45.01823" lon="5.32005">
        <ele>317.154021</ele>
        <time>2022-07-23T19:58:16.260Z</time>
      </trkpt>
      <trkpt lat="45.01829" lon="5.32021">
        <ele>318.016914</ele>
        <time>2022-07-23T19:58:23.067Z</time>
      </trkpt>
      <trkpt lat="45.01822" lon="5.32048">
        <ele>319.467453</ele>
        <time>2022-07-23T19:58:35.323Z</time>
      </trkpt>
      <trkpt lat="45.01798" lon="5.32108">
        <ele>322.869658</ele>
        <time>2022-07-23T19:58:58.771Z</time>
      </trkpt>
      <trkpt lat="45.01776" lon="5.32125">
        <ele>324.572445</ele>
        <time>2022-07-23T19:59:09.951Z</time>
      </trkpt>
      <trkpt lat="45.0176" lon="5.32143">
        <ele>325.925522</ele>
        <time>2022-07-23T19:59:18.390Z</time>
      </trkpt>
      <trkpt lat="45.01706" lon="5.32191">
        <ele>329.417452</ele>
        <time>2022-07-23T19:59:46.843Z</time>
      </trkpt>
      <trkpt lat="45.01684" lon="5.32223">
        <ele>331.117921</ele>
        <time>2022-07-23T20:00:00.722Z</time>
      </trkpt>
      <trkpt lat="45.01674" lon="5.32253">
        <ele>332.393356</ele>
        <time>2022-07-23T20:00:10.444Z</time>
      </trkpt>
      <trkpt lat="45.01662" lon="5.32307">
        <ele>334.597028</ele>
        <time>2022-07-23T20:00:29.886Z</time>
      </trkpt>
      <trkpt lat="45.01656" lon="5.32315">
        <ele>335.010927</ele>
        <time>2022-07-23T20:00:34.370Z</time>
      </trkpt>
      <trkpt lat="45.01624" lon="5.32337">
        <ele>338.139645</ele>
        <time>2022-07-23T20:00:55.355Z</time>
      </trkpt>
      <trkpt lat="45.01569" lon="5.32404">
        <ele>344.987172</ele>
        <time>2022-07-23T20:01:43.314Z</time>
      </trkpt>
      <trkpt lat="45.01533" lon="5.32438">
        <ele>349.091617</ele>
        <time>2022-07-23T20:02:15.877Z</time>
      </trkpt>
      <trkpt lat="45.01494" lon="5.32468">
        <ele>353.292596</ele>
        <time>2022-07-23T20:02:48.619Z</time>
      </trkpt>
      <trkpt lat="45.0146" lon="5.32499">
        <ele>357.442746</ele>
        <time>2022-07-23T20:03:20.107Z</time>
      </trkpt>
      <trkpt lat="45.01441" lon="5.32525">
        <ele>360.07932</ele>
        <time>2022-07-23T20:03:41.179Z</time>
      </trkpt>
      <trkpt lat="45.01427" lon="5.32561">
        <ele>362.995345</ele>
        <time>2022-07-23T20:04:04.098Z</time>
      </trkpt>
      <trkpt lat="45.01372" lon="5.32633">
        <ele>370.665988</ele>
        <time>2022-07-23T20:04:54.112Z</time>
      </trkpt>
      <trkpt lat="45.01345" lon="5.32649">
        <ele>372.033793</ele>
        <time>2022-07-23T20:05:10.465Z</time>
      </trkpt>
      <trkpt lat="45.01317" lon="5.32672">
        <ele>373.511279</ele>
        <time>2022-07-23T20:05:24.333Z</time>
      </trkpt>
      <trkpt lat="45.01296" lon="5.32681">
        <ele>374.554035</ele>
        <time>2022-07-23T20:05:33.816Z</time>
      </trkpt>
      <trkpt lat="45.01248" lon="5.32733">
        <ele>377.345074</ele>
        <time>2022-07-23T20:05:56.987Z</time>
      </trkpt>
      <trkpt lat="45.01237" lon="5.32749">
        <ele>378.094717</ele>
        <time>2022-07-23T20:06:04.259Z</time>
      </trkpt>
      <trkpt lat="45.01237" lon="5.32758">
        <ele>378.407803</ele>
        <time>2022-07-23T20:06:06.410Z</time>
      </trkpt>
      <trkpt lat="45.01251" lon="5.32791">
        <ele>379.376457</ele>
        <time>2022-07-23T20:06:15.140Z</time>
      </trkpt>
      <trkpt lat="45.01252" lon="5.32799">
        <ele>379.523425</ele>
        <time>2022-07-23T20:06:16.931Z</time>
      </trkpt>
      <trkpt lat="45.01247" lon="5.32808">
        <ele>379.729253</ele>
        <time>2022-07-23T20:06:18.214Z</time>
      </trkpt>
      <trkpt lat="45.01246" lon="5.32817">
        <ele>379.885827</ele>
        <time>2022-07-23T20:06:20.342Z</time>
      </trkpt>
      <trkpt lat="45.01235" lon="5.32837">
        <ele>380.353592</ele>
        <time>2022-07-23T20:06:26.019Z</time>
      </trkpt>
      <trkpt lat="45.01236" lon="5.32883">
        <ele>381.189554</ele>
        <time>2022-07-23T20:06:35.256Z</time>
      </trkpt>
      <trkpt lat="45.01233" lon="5.32902">
        <ele>381.534806</ele>
        <time>2022-07-23T20:06:38.215Z</time>
      </trkpt>
      <trkpt lat="45.01226" lon="5.32918">
        <ele>381.866648</ele>
        <time>2022-07-23T20:06:43.026Z</time>
      </trkpt>
      <trkpt lat="45.01193" lon="5.32961">
        <ele>383.026611</ele>
        <time>2022-07-23T20:06:57.986Z</time>
      </trkpt>
      <trkpt lat="45.0118" lon="5.32986">
        <ele>383.585915</ele>
        <time>2022-07-23T20:07:05.833Z</time>
      </trkpt>
      <trkpt lat="45.01174" lon="5.33013">
        <ele>383.964406</ele>
        <time>2022-07-23T20:07:14.811Z</time>
      </trkpt>
      <trkpt lat="45.01164" lon="5.33032">
        <ele>384.264341</ele>
        <time>2022-07-23T20:07:22.456Z</time>
      </trkpt>
      <trkpt lat="45.01116" lon="5.33095">
        <ele>385.459202</ele>
        <time>2022-07-23T20:07:50.580Z</time>
      </trkpt>
      <trkpt lat="45.01092" lon="5.3317">
        <ele>386.511816</ele>
        <time>2022-07-23T20:08:05.705Z</time>
      </trkpt>
      <trkpt lat="45.01054" lon="5.33222">
        <ele>384.052224</ele>
        <time>2022-07-23T20:08:13.662Z</time>
      </trkpt>
      <trkpt lat="45.01026" lon="5.33287">
        <ele>379.277554</ele>
        <time>2022-07-23T20:08:20.902Z</time>
      </trkpt>
      <trkpt lat="45.01065" lon="5.33253">
        <ele>375.222563</ele>
        <time>2022-07-23T20:08:45.204Z</time>
      </trkpt>
      <trkpt lat="45.0109" lon="5.33222">
        <ele>372.243868</ele>
        <time>2022-07-23T20:09:02.582Z</time>
      </trkpt>
      <trkpt lat="45.01137" lon="5.33189">
        <ele>364.556874</ele>
        <time>2022-07-23T20:09:28.922Z</time>
      </trkpt>
      <trkpt lat="45.0116" lon="5.33139">
        <ele>357.445488</ele>
        <time>2022-07-23T20:09:49.391Z</time>
      </trkpt>
      <trkpt lat="45.01198" lon="5.33126">
        <ele>350.760465</ele>
        <time>2022-07-23T20:10:08.595Z</time>
      </trkpt>
      <trkpt lat="45.01227" lon="5.33101">
        <ele>345.085673</ele>
        <time>2022-07-23T20:10:25.036Z</time>
      </trkpt>
      <trkpt lat="45.01235" lon="5.33058">
        <ele>339.882705</ele>
        <time>2022-07-23T20:10:40.477Z</time>
      </trkpt>
      <trkpt lat="45.01257" lon="5.33032">
        <ele>335.867524</ele>
        <time>2022-07-23T20:10:54.924Z</time>
      </trkpt>
      <trkpt lat="45.01297" lon="5.32995">
        <ele>329.293955</ele>
        <time>2022-07-23T20:11:18.926Z</time>
      </trkpt>
      <trkpt lat="45.01317" lon="5.3294">
        <ele>323.283376</ele>
        <time>2022-07-23T20:11:41.067Z</time>
      </trkpt>
      <trkpt lat="45.01345" lon="5.32903">
        <ele>317.988725</ele>
        <time>2022-07-23T20:12:01.144Z</time>
      </trkpt>
      <trkpt lat="45.01388" lon="5.32814">
        <ele>309.832426</ele>
        <time>2022-07-23T20:12:42.782Z</time>
      </trkpt>
      <trkpt lat="45.01388" lon="5.32814">
        <ele>309.832426</ele>
        <time>2022-07-23T20:12:42.854Z</time>
      </trkpt>
      <trkpt lat="45.01406" lon="5.32793">
        <ele>307.541858</ele>
        <time>2022-07-23T20:12:55.674Z</time>
      </trkpt>
      <trkpt lat="45.0142" lon="5.32766">
        <ele>305.224784</ele>
        <time>2022-07-23T20:13:08.581Z</time>
      </trkpt>
      <trkpt lat="45.0146" lon="5.32722">
        <ele>300.272793</ele>
        <time>2022-07-23T20:13:36.382Z</time>
      </trkpt>
      <trkpt lat="45.01483" lon="5.32691">
        <ele>296.920496</ele>
        <time>2022-07-23T20:13:53.431Z</time>
      </trkpt>
      <trkpt lat="45.01508" lon="5.32692">
        <ele>293.863891</ele>
        <time>2022-07-23T20:14:06.181Z</time>
      </trkpt>
      <trkpt lat="45.01518" lon="5.32694">
        <ele>292.621126</ele>
        <time>2022-07-23T20:14:08.321Z</time>
      </trkpt>
      <trkpt lat="45.01529" lon="5.32691">
        <ele>291.315334</ele>
        <time>2022-07-23T20:14:10.509Z</time>
      </trkpt>
      <trkpt lat="45.01583" lon="5.32632">
        <ele>283.052718</ele>
        <time>2022-07-23T20:14:24.637Z</time>
      </trkpt>
      <trkpt lat="45.01617" lon="5.32613">
        <ele>278.591042</ele>
        <time>2022-07-23T20:14:29.142Z</time>
      </trkpt>
      <trkpt lat="45.01632" lon="5.32607">
        <ele>276.662834</ele>
        <time>2022-07-23T20:14:31.045Z</time>
      </trkpt>
      <trkpt lat="45.01661" lon="5.32586">
        <ele>274.070589</ele>
        <time>2022-07-23T20:14:35.042Z</time>
      </trkpt>
      <trkpt lat="45.01683" lon="5.32578">
        <ele>272.368095</ele>
        <time>2022-07-23T20:14:38.106Z</time>
      </trkpt>
      <trkpt lat="45.01711" lon="5.32543">
        <ele>269.635168</ele>
        <time>2022-07-23T20:14:42.979Z</time>
      </trkpt>
      <trkpt lat="45.01727" lon="5.32534">
        <ele>268.385017</ele>
        <time>2022-07-23T20:14:45.182Z</time>
      </trkpt>
      <trkpt lat="45.01759" lon="5.32539">
        <ele>266.05757</ele>
        <time>2022-07-23T20:14:49.545Z</time>
      </trkpt>
      <trkpt lat="45.01774" lon="5.3255">
        <ele>264.833433</ele>
        <time>2022-07-23T20:14:52.143Z</time>
      </trkpt>
      <trkpt lat="45.01791" lon="5.32564">
        <ele>263.403958</ele>
        <time>2022-07-23T20:14:55.670Z</time>
      </trkpt>
      <trkpt lat="45.01813" lon="5.32568">
        <ele>262.94423</ele>
        <time>2022-07-23T20:14:59.491Z</time>
      </trkpt>
      <trkpt lat="45.01839" lon="5.32548">
        <ele>262.925881</ele>
        <time>2022-07-23T20:15:04.483Z</time>
      </trkpt>
      <trkpt lat="45.01852" lon="5.32532">
        <ele>262.91543</ele>
        <time>2022-07-23T20:15:08.302Z</time>
      </trkpt>
      <trkpt lat="45.01861" lon="5.32532">
        <ele>262.909802</ele>
        <time>2022-07-23T20:15:10.042Z</time>
      </trkpt>
      <trkpt lat="45.01903" lon="5.325">
        <ele>262.880045</ele>
        <time>2022-07-23T20:15:18.562Z</time>
      </trkpt>
      <trkpt lat="45.01913" lon="5.32499">
        <ele>262.873466</ele>
        <time>2022-07-23T20:15:21.446Z</time>
      </trkpt>
      <trkpt lat="45.01946" lon="5.32488">
        <ele>262.852109</ele>
        <time>2022-07-23T20:15:29.224Z</time>
      </trkpt>
      <trkpt lat="45.0198" lon="5.32474">
        <ele>263.811593</ele>
        <time>2022-07-23T20:15:40.593Z</time>
      </trkpt>
      <trkpt lat="45.01994" lon="5.32472">
        <ele>264.545701</ele>
        <time>2022-07-23T20:15:49.712Z</time>
      </trkpt>
      <trkpt lat="45.01999" lon="5.3246">
        <ele>265.039453</ele>
        <time>2022-07-23T20:15:51.392Z</time>
      </trkpt>
      <trkpt lat="45.0201" lon="5.32447">
        <ele>265.800952</ele>
        <time>2022-07-23T20:15:56.868Z</time>
      </trkpt>
      <trkpt lat="45.02068" lon="5.32392">
        <ele>269.397111</ele>
        <time>2022-07-23T20:16:27.397Z</time>
      </trkpt>
      <trkpt lat="45.02081" lon="5.32389">
        <ele>270.074654</ele>
        <time>2022-07-23T20:16:39.045Z</time>
      </trkpt>
      <trkpt lat="45.02097" lon="5.32391">
        <ele>270.914987</ele>
        <time>2022-07-23T20:16:45.206Z</time>
      </trkpt>
      <trkpt lat="45.02164" lon="5.32441">
        <ele>275.702726</ele>
        <time>2022-07-23T20:17:30.003Z</time>
      </trkpt>
      <trkpt lat="45.02192" lon="5.3245">
        <ele>277.713042</ele>
        <time>2022-07-23T20:17:49.318Z</time>
      </trkpt>
      <trkpt lat="45.02228" lon="5.32451">
        <ele>280.160175</ele>
        <time>2022-07-23T20:18:11.215Z</time>
      </trkpt>
      <trkpt lat="45.02337" lon="5.32415">
        <ele>285.853939</ele>
        <time>2022-07-23T20:19:01.126Z</time>
      </trkpt>
      <trkpt lat="45.02367" lon="5.32403">
        <ele>286.707946</ele>
        <time>2022-07-23T20:19:12.932Z</time>
      </trkpt>
      <trkpt lat="45.02391" lon="5.32386">
        <ele>287.449189</ele>
        <time>2022-07-23T20:19:19.768Z</time>
      </trkpt>
      <trkpt lat="45.02415" lon="5.32359">
        <ele>288.286917</ele>
        <time>2022-07-23T20:19:27.534Z</time>
      </trkpt>
      <trkpt lat="45.02449" lon="5.32321">
        <ele>289.479379</ele>
        <time>2022-07-23T20:19:40.345Z</time>
      </trkpt>
      <trkpt lat="45.02482" lon="5.32297">
        <ele>290.616908</ele>
        <time>2022-07-23T20:19:50.306Z</time>
      </trkpt>
      <trkpt lat="45.02483" lon="5.32296">
        <ele>290.669364</ele>
        <time>2022-07-23T20:19:50.634Z</time>
      </trkpt>
      <trkpt lat="45.02524" lon="5.32277">
        <ele>292.007516</ele>
        <time>2022-07-23T20:20:02.655Z</time>
      </trkpt>
      <trkpt lat="45.0257" lon="5.32249">
        <ele>293.55264</ele>
        <time>2022-07-23T20:20:20.877Z</time>
      </trkpt>
      <trkpt lat="45.02566" lon="5.32257">
        <ele>293.764115</ele>
        <time>2022-07-23T20:20:25.953Z</time>
      </trkpt>
      <trkpt lat="45.02536" lon="5.32289">
        <ele>294.934778</ele>
        <time>2022-07-23T20:20:46.912Z</time>
      </trkpt>
      <trkpt lat="45.02501" lon="5.32338">
        <ele>297.842363</ele>
        <time>2022-07-23T20:21:15.446Z</time>
      </trkpt>
      <trkpt lat="45.025" lon="5.32338">
        <ele>297.848455</ele>
        <time>2022-07-23T20:21:15.510Z</time>
      </trkpt>
      <trkpt lat="45.02496" lon="5.32356">
        <ele>298.644176</ele>
        <time>2022-07-23T20:21:22.977Z</time>
      </trkpt>
      <trkpt lat="45.02498" lon="5.3237">
        <ele>299.27012</ele>
        <time>2022-07-23T20:21:31.112Z</time>
      </trkpt>
      <trkpt lat="45.02447" lon="5.32451">
        <ele>303.957936</ele>
        <time>2022-07-23T20:22:08.813Z</time>
      </trkpt>
      <trkpt lat="45.02366" lon="5.32495">
        <ele>309.927359</ele>
        <time>2022-07-23T20:22:58.779Z</time>
      </trkpt>
      <trkpt lat="45.02329" lon="5.32519">
        <ele>312.924627</ele>
        <time>2022-07-23T20:23:24.461Z</time>
      </trkpt>
      <trkpt lat="45.02268" lon="5.32546">
        <ele>317.629403</ele>
        <time>2022-07-23T20:24:03.062Z</time>
      </trkpt>
      <trkpt lat="45.02244" lon="5.32551">
        <ele>319.302053</ele>
        <time>2022-07-23T20:24:16.109Z</time>
      </trkpt>
      <trkpt lat="45.02237" lon="5.32561">
        <ele>319.613236</ele>
        <time>2022-07-23T20:24:20.285Z</time>
      </trkpt>
      <trkpt lat="45.02243" lon="5.32678">
        <ele>322.43345</ele>
        <time>2022-07-23T20:24:55.340Z</time>
      </trkpt>
      <trkpt lat="45.02145" lon="5.32662">
        <ele>325.456566</ele>
        <time>2022-07-23T20:25:22.860Z</time>
      </trkpt>
      <trkpt lat="45.0206" lon="5.32653">
        <ele>326.381963</ele>
        <time>2022-07-23T20:25:42.844Z</time>
      </trkpt>
      <trkpt lat="45.0203" lon="5.3266">
        <ele>326.711937</ele>
        <time>2022-07-23T20:25:50.294Z</time>
      </trkpt>
      <trkpt lat="45.02016" lon="5.32681">
        <ele>326.936919</ele>
        <time>2022-07-23T20:25:55.265Z</time>
      </trkpt>
      <trkpt lat="45.02021" lon="5.32701">
        <ele>327.094617</ele>
        <time>2022-07-23T20:25:59.730Z</time>
      </trkpt>
      <trkpt lat="45.0198" lon="5.32743">
        <ele>327.523835</ele>
        <time>2022-07-23T20:26:20.288Z</time>
      </trkpt>
      <trkpt lat="45.01941" lon="5.32775">
        <ele>327.855297</ele>
        <time>2022-07-23T20:26:38.514Z</time>
      </trkpt>
      <trkpt lat="45.01773" lon="5.32859">
        <ele>328.627051</ele>
        <time>2022-07-23T20:27:35.140Z</time>
      </trkpt>
      <trkpt lat="45.01702" lon="5.32899">
        <ele>328.656172</ele>
        <time>2022-07-23T20:27:57.739Z</time>
      </trkpt>
      <trkpt lat="45.0157" lon="5.33029">
        <ele>334.478195</ele>
        <time>2022-07-23T20:29:03.285Z</time>
      </trkpt>
      <trkpt lat="45.01566" lon="5.33051">
        <ele>335.182338</ele>
        <time>2022-07-23T20:29:19.556Z</time>
      </trkpt>
      <trkpt lat="45.01568" lon="5.33068">
        <ele>335.70321</ele>
        <time>2022-07-23T20:29:27.380Z</time>
      </trkpt>
      <trkpt lat="45.01578" lon="5.33075">
        <ele>336.166366</ele>
        <time>2022-07-23T20:29:32.536Z</time>
      </trkpt>
      <trkpt lat="45.01601" lon="5.33046">
        <ele>340.516609</ele>
        <time>2022-07-23T20:30:02.364Z</time>
      </trkpt>
      <trkpt lat="45.01606" lon="5.33033">
        <ele>342.045471</ele>
        <time>2022-07-23T20:30:06.751Z</time>
      </trkpt>
      <trkpt lat="45.01609" lon="5.33023">
        <ele>343.319566</ele>
        <time>2022-07-23T20:30:18.016Z</time>
      </trkpt>
      <trkpt lat="45.01634" lon="5.3299">
        <ele>348.649017</ele>
        <time>2022-07-23T20:30:49.976Z</time>
      </trkpt>
      <trkpt lat="45.01666" lon="5.32971">
        <ele>354.037106</ele>
        <time>2022-07-23T20:31:17.572Z</time>
      </trkpt>
      <trkpt lat="45.01666" lon="5.32971">
        <ele>354.037106</ele>
        <time>2022-07-23T20:31:18.135Z</time>
      </trkpt>
      <trkpt lat="45.01666" lon="5.32971">
        <ele>354.037106</ele>
        <time>2022-07-23T20:31:18.135Z</time>
      </trkpt>
      <trkpt lat="45.01671" lon="5.32987">
        <ele>355.97306</ele>
        <time>2022-07-23T20:31:23.529Z</time>
      </trkpt>
      <trkpt lat="45.01688" lon="5.32988">
        <ele>358.635235</ele>
        <time>2022-07-23T20:31:30.896Z</time>
      </trkpt>
      <trkpt lat="45.01701" lon="5.32995">
        <ele>360.705115</ele>
        <time>2022-07-23T20:31:36.790Z</time>
      </trkpt>
      <trkpt lat="45.01705" lon="5.33002">
        <ele>361.73734</ele>
        <time>2022-07-23T20:31:39.655Z</time>
      </trkpt>
      <trkpt lat="45.01704" lon="5.33008">
        <ele>362.379018</ele>
        <time>2022-07-23T20:31:41.434Z</time>
      </trkpt>
      <trkpt lat="45.01688" lon="5.33032">
        <ele>366.532451</ele>
        <time>2022-07-23T20:31:51.790Z</time>
      </trkpt>
      <trkpt lat="45.01682" lon="5.33057">
        <ele>370.128834</ele>
        <time>2022-07-23T20:31:59.699Z</time>
      </trkpt>
      <trkpt lat="45.01681" lon="5.33084">
        <ele>373.81536</ele>
        <time>2022-07-23T20:32:07.962Z</time>
      </trkpt>
      <trkpt lat="45.01692" lon="5.33088">
        <ele>376.082299</ele>
        <time>2022-07-23T20:32:12.958Z</time>
      </trkpt>
      <trkpt lat="45.01709" lon="5.33079">
        <ele>379.531513</ele>
        <time>2022-07-23T20:32:20.576Z</time>
      </trkpt>
      <trkpt lat="45.01732" lon="5.33054">
        <ele>385.262176</ele>
        <time>2022-07-23T20:32:33.357Z</time>
      </trkpt>
      <trkpt lat="45.01741" lon="5.33053">
        <ele>387.088123</ele>
        <time>2022-07-23T20:32:37.401Z</time>
      </trkpt>
      <trkpt lat="45.01751" lon="5.33057">
        <ele>389.087408</ele>
        <time>2022-07-23T20:32:41.822Z</time>
      </trkpt>
      <trkpt lat="45.01781" lon="5.33095">
        <ele>396.907853</ele>
        <time>2022-07-23T20:32:59.083Z</time>
      </trkpt>
      <trkpt lat="45.01809" lon="5.33097">
        <ele>401.746905</ele>
        <time>2022-07-23T20:33:11.277Z</time>
      </trkpt>
      <trkpt lat="45.01836" lon="5.33083">
        <ele>406.073376</ele>
        <time>2022-07-23T20:33:23.879Z</time>
      </trkpt>
      <trkpt lat="45.01844" lon="5.33083">
        <ele>407.275144</ele>
        <time>2022-07-23T20:33:27.382Z</time>
      </trkpt>
      <trkpt lat="45.0186" lon="5.33107">
        <ele>410.673964</ele>
        <time>2022-07-23T20:33:37.246Z</time>
      </trkpt>
      <trkpt lat="45.01886" lon="5.33083">
        <ele>415.229151</ele>
        <time>2022-07-23T20:33:50.489Z</time>
      </trkpt>
      <trkpt lat="45.01923" lon="5.33085">
        <ele>420.735501</ele>
        <time>2022-07-23T20:34:06.467Z</time>
      </trkpt>
      <trkpt lat="45.01941" lon="5.33064">
        <ele>424.248081</ele>
        <time>2022-07-23T20:34:16.674Z</time>
      </trkpt>
      <trkpt lat="45.01958" lon="5.33052">
        <ele>426.957753</ele>
        <time>2022-07-23T20:34:24.596Z</time>
      </trkpt>
      <trkpt lat="45.01971" lon="5.33057">
        <ele>428.880725</ele>
        <time>2022-07-23T20:34:30.353Z</time>
      </trkpt>
      <trkpt lat="45.01982" lon="5.33068">
        <ele>430.811405</ele>
        <time>2022-07-23T20:34:36.150Z</time>
      </trkpt>
      <trkpt lat="45.01986" lon="5.33061">
        <ele>431.688026</ele>
        <time>2022-07-23T20:34:38.757Z</time>
      </trkpt>
      <trkpt lat="45.02051" lon="5.33142">
        <ele>444.231522</ele>
        <time>2022-07-23T20:36:00.141Z</time>
      </trkpt>
      <trkpt lat="45.0207" lon="5.33157">
        <ele>447.265992</ele>
        <time>2022-07-23T20:36:19.225Z</time>
      </trkpt>
      <trkpt lat="45.02114" lon="5.3317">
        <ele>453.286621</ele>
        <time>2022-07-23T20:36:58.243Z</time>
      </trkpt>
      <trkpt lat="45.02129" lon="5.33182">
        <ele>454.973081</ele>
        <time>2022-07-23T20:37:17.009Z</time>
      </trkpt>
      <trkpt lat="45.02136" lon="5.33201">
        <ele>456.478907</ele>
        <time>2022-07-23T20:37:33.047Z</time>
      </trkpt>
      <trkpt lat="45.02143" lon="5.33255">
        <ele>460.271672</ele>
        <time>2022-07-23T20:38:05.626Z</time>
      </trkpt>
      <trkpt lat="45.02145" lon="5.3328">
        <ele>461.984658</ele>
        <time>2022-07-23T20:38:17.709Z</time>
      </trkpt>
      <trkpt lat="45.02139" lon="5.33337">
        <ele>466.014223</ele>
        <time>2022-07-23T20:38:41.987Z</time>
      </trkpt>
      <trkpt lat="45.02141" lon="5.33358">
        <ele>467.462759</ele>
        <time>2022-07-23T20:38:49.972Z</time>
      </trkpt>
      <trkpt lat="45.02162" lon="5.33405">
        <ele>469.014713</ele>
        <time>2022-07-23T20:39:05.207Z</time>
      </trkpt>
      <trkpt lat="45.02173" lon="5.33403">
        <ele>468.410914</ele>
        <time>2022-07-23T20:39:07.857Z</time>
      </trkpt>
      <trkpt lat="45.02196" lon="5.33413">
        <ele>467.066986</ele>
        <time>2022-07-23T20:39:17.934Z</time>
      </trkpt>
      <trkpt lat="45.02206" lon="5.33428">
        <ele>466.21049</ele>
        <time>2022-07-23T20:39:21.810Z</time>
      </trkpt>
      <trkpt lat="45.02209" lon="5.33448">
        <ele>465.406625</ele>
        <time>2022-07-23T20:39:26.299Z</time>
      </trkpt>
      <trkpt lat="45.0223" lon="5.33481">
        <ele>463.61474</ele>
        <time>2022-07-23T20:39:34.643Z</time>
      </trkpt>
      <trkpt lat="45.02243" lon="5.33495">
        <ele>462.718389</ele>
        <time>2022-07-23T20:39:38.253Z</time>
      </trkpt>
      <trkpt lat="45.02259" lon="5.33503">
        <ele>461.777719</ele>
        <time>2022-07-23T20:39:41.677Z</time>
      </trkpt>
      <trkpt lat="45.02278" lon="5.33502">
        <ele>460.710874</ele>
        <time>2022-07-23T20:39:45.498Z</time>
      </trkpt>
      <trkpt lat="45.02297" lon="5.33506">
        <ele>459.333597</ele>
        <time>2022-07-23T20:39:49.305Z</time>
      </trkpt>
      <trkpt lat="45.02338" lon="5.33563">
        <ele>449.619966</ele>
        <time>2022-07-23T20:40:00.811Z</time>
      </trkpt>
      <trkpt lat="45.02351" lon="5.33565">
        <ele>447.447271</ele>
        <time>2022-07-23T20:40:03.379Z</time>
      </trkpt>
      <trkpt lat="45.02375" lon="5.33576">
        <ele>443.266987</ele>
        <time>2022-07-23T20:40:08.346Z</time>
      </trkpt>
      <trkpt lat="45.02394" lon="5.33578">
        <ele>440.088722</ele>
        <time>2022-07-23T20:40:11.223Z</time>
      </trkpt>
      <trkpt lat="45.02412" lon="5.33572">
        <ele>436.917902</ele>
        <time>2022-07-23T20:40:14.198Z</time>
      </trkpt>
      <trkpt lat="45.02445" lon="5.33551">
        <ele>430.922588</ele>
        <time>2022-07-23T20:40:19.652Z</time>
      </trkpt>
      <trkpt lat="45.02458" lon="5.33552">
        <ele>429.076887</ele>
        <time>2022-07-23T20:40:21.643Z</time>
      </trkpt>
      <trkpt lat="45.02478" lon="5.33572">
        <ele>426.534356</ele>
        <time>2022-07-23T20:40:25.428Z</time>
      </trkpt>
      <trkpt lat="45.02495" lon="5.33582">
        <ele>424.665741</ele>
        <time>2022-07-23T20:40:28.235Z</time>
      </trkpt>
      <trkpt lat="45.02517" lon="5.33578">
        <ele>422.382206</ele>
        <time>2022-07-23T20:40:31.654Z</time>
      </trkpt>
      <trkpt lat="45.02532" lon="5.33583">
        <ele>420.703755</ele>
        <time>2022-07-23T20:40:34.307Z</time>
      </trkpt>
      <trkpt lat="45.02552" lon="5.336">
        <ele>418.336483</ele>
        <time>2022-07-23T20:40:38.256Z</time>
      </trkpt>
      <trkpt lat="45.02565" lon="5.33604">
        <ele>416.946917</ele>
        <time>2022-07-23T20:40:41.069Z</time>
      </trkpt>
      <trkpt lat="45.02568" lon="5.33602">
        <ele>416.639239</ele>
        <time>2022-07-23T20:40:41.522Z</time>
      </trkpt>
      <trkpt lat="45.02586" lon="5.33626">
        <ele>414.072876</ele>
        <time>2022-07-23T20:40:48.266Z</time>
      </trkpt>
      <trkpt lat="45.02666" lon="5.33672">
        <ele>409.096622</ele>
        <time>2022-07-23T20:41:08.940Z</time>
      </trkpt>
      <trkpt lat="45.0281" lon="5.33736">
        <ele>404.396072</ele>
        <time>2022-07-23T20:41:48.765Z</time>
      </trkpt>
      <trkpt lat="45.02859" lon="5.33748">
        <ele>403.577241</ele>
        <time>2022-07-23T20:42:02.520Z</time>
      </trkpt>
      <trkpt lat="45.02866" lon="5.33738">
        <ele>403.416842</ele>
        <time>2022-07-23T20:42:05.210Z</time>
      </trkpt>
      <trkpt lat="45.02874" lon="5.33742">
        <ele>403.267557</ele>
        <time>2022-07-23T20:42:07.723Z</time>
      </trkpt>
      <trkpt lat="45.02924" lon="5.33802">
        <ele>402.198492</ele>
        <time>2022-07-23T20:42:26.701Z</time>
      </trkpt>
      <trkpt lat="45.02994" lon="5.33857">
        <ele>400.672254</ele>
        <time>2022-07-23T20:42:50.116Z</time>
      </trkpt>
      <trkpt lat="45.03042" lon="5.33881">
        <ele>399.662419</ele>
        <time>2022-07-23T20:43:04.652Z</time>
      </trkpt>
      <trkpt lat="45.03057" lon="5.33898">
        <ele>399.276143</ele>
        <time>2022-07-23T20:43:10.034Z</time>
      </trkpt>
      <trkpt lat="45.03189" lon="5.34002">
        <ele>395.193882</ele>
        <time>2022-07-23T20:43:48.277Z</time>
      </trkpt>
      <trkpt lat="45.03232" lon="5.34036">
        <ele>393.72606</ele>
        <time>2022-07-23T20:44:00.819Z</time>
      </trkpt>
      <trkpt lat="45.03263" lon="5.34047">
        <ele>392.823221</ele>
        <time>2022-07-23T20:44:09.664Z</time>
      </trkpt>
      <trkpt lat="45.0329" lon="5.34082">
        <ele>392.225083</ele>
        <time>2022-07-23T20:44:20.374Z</time>
      </trkpt>
      <trkpt lat="45.03303" lon="5.34137">
        <ele>391.569249</ele>
        <time>2022-07-23T20:44:32.973Z</time>
      </trkpt>
      <trkpt lat="45.03339" lon="5.34204">
        <ele>390.606693</ele>
        <time>2022-07-23T20:44:50.627Z</time>
      </trkpt>
      <trkpt lat="45.03393" lon="5.34264">
        <ele>387.82523</ele>
        <time>2022-07-23T20:45:08.388Z</time>
      </trkpt>
      <trkpt lat="45.03418" lon="5.34283">
        <ele>385.791816</ele>
        <time>2022-07-23T20:45:15.792Z</time>
      </trkpt>
      <trkpt lat="45.03443" lon="5.3431">
        <ele>383.588439</ele>
        <time>2022-07-23T20:45:23.342Z</time>
      </trkpt>
      <trkpt lat="45.03452" lon="5.34285">
        <ele>382.187605</ele>
        <time>2022-07-23T20:45:27.514Z</time>
      </trkpt>
      <trkpt lat="45.03459" lon="5.34181">
        <ele>376.848032</ele>
        <time>2022-07-23T20:45:43.474Z</time>
      </trkpt>
      <trkpt lat="45.03466" lon="5.34157">
        <ele>374.900536</ele>
        <time>2022-07-23T20:45:47.480Z</time>
      </trkpt>
      <trkpt lat="45.03486" lon="5.34163">
        <ele>372.782882</ele>
        <time>2022-07-23T20:45:51.521Z</time>
      </trkpt>
      <trkpt lat="45.03557" lon="5.34194">
        <ele>365.014699</ele>
        <time>2022-07-23T20:46:07.007Z</time>
      </trkpt>
      <trkpt lat="45.03631" lon="5.34201">
        <ele>357.982507</ele>
        <time>2022-07-23T20:46:23.260Z</time>
      </trkpt>
      <trkpt lat="45.03703" lon="5.34179">
        <ele>354.982498</ele>
        <time>2022-07-23T20:46:40.321Z</time>
      </trkpt>
      <trkpt lat="45.0375" lon="5.34193">
        <ele>353.014321</ele>
        <time>2022-07-23T20:46:52.738Z</time>
      </trkpt>
      <trkpt lat="45.03777" lon="5.34178">
        <ele>351.841532</ele>
        <time>2022-07-23T20:47:00.976Z</time>
      </trkpt>
      <trkpt lat="45.03841" lon="5.34211">
        <ele>352.090975</ele>
        <time>2022-07-23T20:47:26.696Z</time>
      </trkpt>
      <trkpt lat="45.03913" lon="5.34217">
        <ele>353.46048</ele>
        <time>2022-07-23T20:47:58.675Z</time>
      </trkpt>
      <trkpt lat="45.03947" lon="5.34217">
        <ele>354.10236</ele>
        <time>2022-07-23T20:48:14.621Z</time>
      </trkpt>
      <trkpt lat="45.03986" lon="5.3423">
        <ele>354.60757</ele>
        <time>2022-07-23T20:48:28.252Z</time>
      </trkpt>
      <trkpt lat="45.04046" lon="5.34284">
        <ele>354.936609</ele>
        <time>2022-07-23T20:48:49.510Z</time>
      </trkpt>
      <trkpt lat="45.04076" lon="5.34285">
        <ele>355.071964</ele>
        <time>2022-07-23T20:48:56.038Z</time>
      </trkpt>
      <trkpt lat="45.04098" lon="5.34279">
        <ele>355.174605</ele>
        <time>2022-07-23T20:49:00.625Z</time>
      </trkpt>
      <trkpt lat="45.04149" lon="5.34322">
        <ele>354.386668</ele>
        <time>2022-07-23T20:49:10.649Z</time>
      </trkpt>
      <trkpt lat="45.04278" lon="5.34317">
        <ele>348.261491</ele>
        <time>2022-07-23T20:49:28.827Z</time>
      </trkpt>
      <trkpt lat="45.04351" lon="5.34334">
        <ele>343.212535</ele>
        <time>2022-07-23T20:49:38.841Z</time>
      </trkpt>
      <trkpt lat="45.04448" lon="5.34387">
        <ele>334.521123</ele>
        <time>2022-07-23T20:49:52.466Z</time>
      </trkpt>
      <trkpt lat="45.04503" lon="5.34419">
        <ele>328.773647</ele>
        <time>2022-07-23T20:49:59.970Z</time>
      </trkpt>
      <trkpt lat="45.04619" lon="5.34474">
        <ele>314.504866</ele>
        <time>2022-07-23T20:50:15.223Z</time>
      </trkpt>
      <trkpt lat="45.04626" lon="5.34425">
        <ele>310.327376</ele>
        <time>2022-07-23T20:50:19.356Z</time>
      </trkpt>
      <trkpt lat="45.04649" lon="5.34365">
        <ele>304.443631</ele>
        <time>2022-07-23T20:50:25.007Z</time>
      </trkpt>
      <trkpt lat="45.04684" lon="5.3441">
        <ele>298.627248</ele>
        <time>2022-07-23T20:50:30.554Z</time>
      </trkpt>
      <trkpt lat="45.04688" lon="5.34408">
        <ele>298.060318</ele>
        <time>2022-07-23T20:50:31.066Z</time>
      </trkpt>
      <trkpt lat="45.0474" lon="5.34336">
        <ele>289.203271</ele>
        <time>2022-07-23T20:50:39.499Z</time>
      </trkpt>
      <trkpt lat="45.04752" lon="5.34331">
        <ele>287.955039</ele>
        <time>2022-07-23T20:50:40.995Z</time>
      </trkpt>
      <trkpt lat="45.04794" lon="5.34355">
        <ele>283.473928</ele>
        <time>2022-07-23T20:50:46.459Z</time>
      </trkpt>
      <trkpt lat="45.04834" lon="5.34364">
        <ele>279.495817</ele>
        <time>2022-07-23T20:50:51.315Z</time>
      </trkpt>
      <trkpt lat="45.04875" lon="5.34346">
        <ele>275.364634</ele>
        <time>2022-07-23T20:50:56.398Z</time>
      </trkpt>
      <trkpt lat="45.04906" lon="5.34317">
        <ele>271.664959</ele>
        <time>2022-07-23T20:51:00.963Z</time>
      </trkpt>
      <trkpt lat="45.0494" lon="5.34278">
        <ele>269.279638</ele>
        <time>2022-07-23T20:51:06.422Z</time>
      </trkpt>
      <trkpt lat="45.04959" lon="5.34267">
        <ele>268.231862</ele>
        <time>2022-07-23T20:51:09.032Z</time>
      </trkpt>
      <trkpt lat="45.04971" lon="5.3426">
        <ele>267.585453</ele>
        <time>2022-07-23T20:51:10.594Z</time>
      </trkpt>
      <trkpt lat="45.05063" lon="5.3424">
        <ele>262.841332</ele>
        <time>2022-07-23T20:51:23.877Z</time>
      </trkpt>
      <trkpt lat="45.05099" lon="5.34238">
        <ele>261.988837</ele>
        <time>2022-07-23T20:51:29.184Z</time>
      </trkpt>
      <trkpt lat="45.05125" lon="5.34242">
        <ele>261.770892</ele>
        <time>2022-07-23T20:51:32.984Z</time>
      </trkpt>
      <trkpt lat="45.05141" lon="5.34241">
        <ele>261.638371</ele>
        <time>2022-07-23T20:51:37.312Z</time>
      </trkpt>
      <trkpt lat="45.05149" lon="5.34234">
        <ele>261.562355</ele>
        <time>2022-07-23T20:51:39.330Z</time>
      </trkpt>
      <trkpt lat="45.05112" lon="5.34193">
        <ele>261.175153</ele>
        <time>2022-07-23T20:51:47.190Z</time>
      </trkpt>
      <trkpt lat="45.051" lon="5.34176">
        <ele>261.033002</ele>
        <time>2022-07-23T20:51:52.215Z</time>
      </trkpt>
      <trkpt lat="45.05108" lon="5.34171">
        <ele>260.963306</ele>
        <time>2022-07-23T20:51:54.298Z</time>
      </trkpt>
      <trkpt lat="45.05116" lon="5.34176">
        <ele>260.889868</ele>
        <time>2022-07-23T20:51:55.569Z</time>
      </trkpt>
      <trkpt lat="45.05155" lon="5.34215">
        <ele>260.728161</ele>
        <time>2022-07-23T20:52:08.035Z</time>
      </trkpt>
      <trkpt lat="45.05172" lon="5.34226">
        <ele>260.749642</ele>
        <time>2022-07-23T20:52:14.092Z</time>
      </trkpt>
      <trkpt lat="45.05181" lon="5.34227">
        <ele>260.759149</ele>
        <time>2022-07-23T20:52:15.878Z</time>
      </trkpt>
      <trkpt lat="45.05299" lon="5.34181">
        <ele>260.895769</ele>
        <time>2022-07-23T20:52:39.826Z</time>
      </trkpt>
      <trkpt lat="45.05368" lon="5.34158">
        <ele>260.490524</ele>
        <time>2022-07-23T20:52:53.793Z</time>
      </trkpt>
      <trkpt lat="45.05488" lon="5.34109">
        <ele>259.723045</ele>
        <time>2022-07-23T20:53:16.184Z</time>
      </trkpt>
      <trkpt lat="45.05509" lon="5.34108">
        <ele>259.602373</ele>
        <time>2022-07-23T20:53:20.142Z</time>
      </trkpt>
      <trkpt lat="45.05522" lon="5.34102">
        <ele>259.52343</ele>
        <time>2022-07-23T20:53:22.758Z</time>
      </trkpt>
      <trkpt lat="45.056" lon="5.34081">
        <ele>259.070172</ele>
        <time>2022-07-23T20:53:37.907Z</time>
      </trkpt>
      <trkpt lat="45.05614" lon="5.34074">
        <ele>258.98383</ele>
        <time>2022-07-23T20:53:40.937Z</time>
      </trkpt>
      <trkpt lat="45.05627" lon="5.34046">
        <ele>258.84853</ele>
        <time>2022-07-23T20:53:45.122Z</time>
      </trkpt>
      <trkpt lat="45.05656" lon="5.3402">
        <ele>258.509287</ele>
        <time>2022-07-23T20:53:51.474Z</time>
      </trkpt>
      <trkpt lat="45.05698" lon="5.33991">
        <ele>257.87824</ele>
        <time>2022-07-23T20:54:00.515Z</time>
      </trkpt>
      <trkpt lat="45.05743" lon="5.33975">
        <ele>257.257028</ele>
        <time>2022-07-23T20:54:09.291Z</time>
      </trkpt>
      <trkpt lat="45.0575" lon="5.33973">
        <ele>257.153889</ele>
        <time>2022-07-23T20:54:10.730Z</time>
      </trkpt>
      <trkpt lat="45.05758" lon="5.33978">
        <ele>257.037486</ele>
        <time>2022-07-23T20:54:13.043Z</time>
      </trkpt>
      <trkpt lat="45.05797" lon="5.33982">
        <ele>256.50846</ele>
        <time>2022-07-23T20:54:24.027Z</time>
      </trkpt>
      <trkpt lat="45.05832" lon="5.34003">
        <ele>254.196638</ele>
        <time>2022-07-23T20:54:33.487Z</time>
      </trkpt>
      <trkpt lat="45.05856" lon="5.34023">
        <ele>251.748388</ele>
        <time>2022-07-23T20:54:40.549Z</time>
      </trkpt>
      <trkpt lat="45.05891" lon="5.34029">
        <ele>248.748579</ele>
        <time>2022-07-23T20:54:48.737Z</time>
      </trkpt>
      <trkpt lat="45.05911" lon="5.34047">
        <ele>246.673478</ele>
        <time>2022-07-23T20:54:53.895Z</time>
      </trkpt>
      <trkpt lat="45.05924" lon="5.34051">
        <ele>245.569775</ele>
        <time>2022-07-23T20:54:56.668Z</time>
      </trkpt>
      <trkpt lat="45.05954" lon="5.34034">
        <ele>242.764126</ele>
        <time>2022-07-23T20:55:03.406Z</time>
      </trkpt>
      <trkpt lat="45.05971" lon="5.34034">
        <ele>241.275428</ele>
        <time>2022-07-23T20:55:06.797Z</time>
      </trkpt>
      <trkpt lat="45.05986" lon="5.34056">
        <ele>238.575993</ele>
        <time>2022-07-23T20:55:11.301Z</time>
      </trkpt>
      <trkpt lat="45.06013" lon="5.3411">
        <ele>232.212626</ele>
        <time>2022-07-23T20:55:20.638Z</time>
      </trkpt>
      <trkpt lat="45.05986" lon="5.34138">
        <ele>227.69526</ele>
        <time>2022-07-23T20:55:27.360Z</time>
      </trkpt>
      <trkpt lat="45.05974" lon="5.34154">
        <ele>225.474115</ele>
        <time>2022-07-23T20:55:47.724Z</time>
      </trkpt>
      <trkpt lat="45.05966" lon="5.34181">
        <ele>222.703972</ele>
        <time>2022-07-23T20:56:13.194Z</time>
      </trkpt>
      <trkpt lat="45.05955" lon="5.34191">
        <ele>220.899125</ele>
        <time>2022-07-23T20:56:15.885Z</time>
      </trkpt>
      <trkpt lat="45.05956" lon="5.34202">
        <ele>219.764137</ele>
        <time>2022-07-23T20:56:17.608Z</time>
      </trkpt>
      <trkpt lat="45.0596" lon="5.3424">
        <ele>216.357846</ele>
        <time>2022-07-23T20:56:23.420Z</time>
      </trkpt>
      <trkpt lat="45.05969" lon="5.34253">
        <ele>216.466721</ele>
        <time>2022-07-23T20:56:26.270Z</time>
      </trkpt>
      <trkpt lat="45.0597" lon="5.34258">
        <ele>216.500181</ele>
        <time>2022-07-23T20:56:27.092Z</time>
      </trkpt>
      <trkpt lat="45.05973" lon="5.34281">
        <ele>216.642142</ele>
        <time>2022-07-23T20:56:29.265Z</time>
      </trkpt>
      <trkpt lat="45.05974" lon="5.3429">
        <ele>216.698278</ele>
        <time>2022-07-23T20:56:30.150Z</time>
      </trkpt>
      <trkpt lat="45.05974" lon="5.34302">
        <ele>216.771248</ele>
        <time>2022-07-23T20:56:31.257Z</time>
      </trkpt>
      <trkpt lat="45.05995" lon="5.34333">
        <ele>217.026326</ele>
        <time>2022-07-23T20:56:39.431Z</time>
      </trkpt>
      <trkpt lat="45.06001" lon="5.34342">
        <ele>217.103168</ele>
        <time>2022-07-23T20:56:42.161Z</time>
      </trkpt>
      <trkpt lat="45.06012" lon="5.34348">
        <ele>217.201785</ele>
        <time>2022-07-23T20:56:45.538Z</time>
      </trkpt>
      <trkpt lat="45.06024" lon="5.34338">
        <ele>217.314418</ele>
        <time>2022-07-23T20:56:53.572Z</time>
      </trkpt>
      <trkpt lat="45.06041" lon="5.34337">
        <ele>217.46224</ele>
        <time>2022-07-23T20:57:00.351Z</time>
      </trkpt>
      <trkpt lat="45.06028" lon="5.3436">
        <ele>217.638081</ele>
        <time>2022-07-23T20:57:13.335Z</time>
      </trkpt>
      <trkpt lat="45.06029" lon="5.34406">
        <ele>218.301414</ele>
        <time>2022-07-23T20:57:38.602Z</time>
      </trkpt>
      <trkpt lat="45.06035" lon="5.34436">
        <ele>220.533843</ele>
        <time>2022-07-23T20:57:50.731Z</time>
      </trkpt>
      <trkpt lat="45.06033" lon="5.34448">
        <ele>221.428917</ele>
        <time>2022-07-23T20:58:02.980Z</time>
      </trkpt>
      <trkpt lat="45.06033" lon="5.34451">
        <ele>221.601551</ele>
        <time>2022-07-23T20:58:04.887Z</time>
      </trkpt>
      <trkpt lat="45.06027" lon="5.34466">
        <ele>222.831152</ele>
        <time>2022-07-23T20:58:14.255Z</time>
      </trkpt>
      <trkpt lat="45.06028" lon="5.34496">
        <ele>224.939909</ele>
        <time>2022-07-23T20:58:38.379Z</time>
      </trkpt>
      <trkpt lat="45.06025" lon="5.34518">
        <ele>226.472265</ele>
        <time>2022-07-23T20:58:53.160Z</time>
      </trkpt>
      <trkpt lat="45.06028" lon="5.34571">
        <ele>230.195432</ele>
        <time>2022-07-23T20:59:23.249Z</time>
      </trkpt>
      <trkpt lat="45.06027" lon="5.34591">
        <ele>231.635973</ele>
        <time>2022-07-23T20:59:32.667Z</time>
      </trkpt>
      <trkpt lat="45.06024" lon="5.34592">
        <ele>231.861097</ele>
        <time>2022-07-23T20:59:36.179Z</time>
      </trkpt>
      <trkpt lat="45.0602" lon="5.34581">
        <ele>232.796252</ele>
        <time>2022-07-23T20:59:47.815Z</time>
      </trkpt>
      <trkpt lat="45.06015" lon="5.34597">
        <ele>233.981246</ele>
        <time>2022-07-23T21:00:02.584Z</time>
      </trkpt>
      <trkpt lat="45.06013" lon="5.34589">
        <ele>234.572433</ele>
        <time>2022-07-23T21:00:09.921Z</time>
      </trkpt>
      <trkpt lat="45.06011" lon="5.34589">
        <ele>234.771766</ele>
        <time>2022-07-23T21:00:12.447Z</time>
      </trkpt>
      <trkpt lat="45.06007" lon="5.3459">
        <ele>235.18298</ele>
        <time>2022-07-23T21:00:13.588Z</time>
      </trkpt>
      <trkpt lat="45.06009" lon="5.34618">
        <ele>234.515537</ele>
        <time>2022-07-23T21:00:16.112Z</time>
      </trkpt>
      <trkpt lat="45.06009" lon="5.34618">
        <ele>234.515537</ele>
        <time>2022-07-23T21:00:16.363Z</time>
      </trkpt>
      <trkpt lat="45.06019" lon="5.34637">
        <ele>233.155745</ele>
        <time>2022-07-23T21:00:21.475Z</time>
      </trkpt>
      <trkpt lat="45.06025" lon="5.34649">
        <ele>232.325813</ele>
        <time>2022-07-23T21:00:24.662Z</time>
      </trkpt>
      <trkpt lat="45.06034" lon="5.34677">
        <ele>230.552012</ele>
        <time>2022-07-23T21:00:27.254Z</time>
      </trkpt>
      <trkpt lat="45.06045" lon="5.34672">
        <ele>229.669465</ele>
        <time>2022-07-23T21:00:34.827Z</time>
      </trkpt>
      <trkpt lat="45.0605" lon="5.34663">
        <ele>229.037278</ele>
        <time>2022-07-23T21:00:35.712Z</time>
      </trkpt>
      <trkpt lat="45.06055" lon="5.3464">
        <ele>227.66663</ele>
        <time>2022-07-23T21:00:37.952Z</time>
      </trkpt>
      <trkpt lat="45.06076" lon="5.34616">
        <ele>225.445397</ele>
        <time>2022-07-23T21:00:41.227Z</time>
      </trkpt>
      <trkpt lat="45.06088" lon="5.3459">
        <ele>223.724328</ele>
        <time>2022-07-23T21:00:44.018Z</time>
      </trkpt>
      <trkpt lat="45.06092" lon="5.34575">
        <ele>222.811461</ele>
        <time>2022-07-23T21:00:45.289Z</time>
      </trkpt>
      <trkpt lat="45.06092" lon="5.34573">
        <ele>222.660434</ele>
        <time>2022-07-23T21:00:45.573Z</time>
      </trkpt>
      <trkpt lat="45.06097" lon="5.34529">
        <ele>219.771853</ele>
        <time>2022-07-23T21:00:49.028Z</time>
      </trkpt>
      <trkpt lat="45.06097" lon="5.34519">
        <ele>218.925155</ele>
        <time>2022-07-23T21:00:49.906Z</time>
      </trkpt>
      <trkpt lat="45.061" lon="5.34489">
        <ele>216.528896</ele>
        <time>2022-07-23T21:00:52.367Z</time>
      </trkpt>
      <trkpt lat="45.06103" lon="5.34472">
        <ele>215.182648</ele>
        <time>2022-07-23T21:00:53.719Z</time>
      </trkpt>
      <trkpt lat="45.06107" lon="5.34456">
        <ele>213.850803</ele>
        <time>2022-07-23T21:00:55.238Z</time>
      </trkpt>
      <trkpt lat="45.06118" lon="5.34418">
        <ele>210.546917</ele>
        <time>2022-07-23T21:00:58.613Z</time>
      </trkpt>
      <trkpt lat="45.06138" lon="5.34376">
        <ele>206.552961</ele>
        <time>2022-07-23T21:01:02.757Z</time>
      </trkpt>
      <trkpt lat="45.06165" lon="5.3433">
        <ele>201.82275</ele>
        <time>2022-07-23T21:01:08.705Z</time>
      </trkpt>
      <trkpt lat="45.06183" lon="5.34299">
        <ele>200.81583</ele>
        <time>2022-07-23T21:01:13.080Z</time>
      </trkpt>
      <trkpt lat="45.06211" lon="5.34209">
        <ele>199.900498</ele>
        <time>2022-07-23T21:01:24.902Z</time>
      </trkpt>
      <trkpt lat="45.06215" lon="5.34188">
        <ele>199.695822</ele>
        <time>2022-07-23T21:01:27.668Z</time>
      </trkpt>
      <trkpt lat="45.06234" lon="5.34086">
        <ele>198.732448</ele>
        <time>2022-07-23T21:01:41.072Z</time>
      </trkpt>
      <trkpt lat="45.06244" lon="5.34057">
        <ele>198.661236</ele>
        <time>2022-07-23T21:01:45.107Z</time>
      </trkpt>
      <trkpt lat="45.06313" lon="5.33869">
        <ele>198.184262</ele>
        <time>2022-07-23T21:02:12.553Z</time>
      </trkpt>
      <trkpt lat="45.0635" lon="5.33807">
        <ele>198.332918</ele>
        <time>2022-07-23T21:02:23.282Z</time>
      </trkpt>
      <trkpt lat="45.06391" lon="5.33738">
        <ele>198.540955</ele>
        <time>2022-07-23T21:02:35.926Z</time>
      </trkpt>
      <trkpt lat="45.06411" lon="5.33695">
        <ele>198.657998</ele>
        <time>2022-07-23T21:02:44.604Z</time>
      </trkpt>
      <trkpt lat="45.06418" lon="5.33679">
        <ele>198.701561</ele>
        <time>2022-07-23T21:02:48.136Z</time>
      </trkpt>
      <trkpt lat="45.0642" lon="5.33673">
        <ele>198.715785</ele>
        <time>2022-07-23T21:02:48.999Z</time>
      </trkpt>
      <trkpt lat="45.06442" lon="5.33612">
        <ele>199.426181</ele>
        <time>2022-07-23T21:02:59.989Z</time>
      </trkpt>
      <trkpt lat="45.0645" lon="5.33579">
        <ele>199.856708</ele>
        <time>2022-07-23T21:03:06.110Z</time>
      </trkpt>
      <trkpt lat="45.0645" lon="5.33564">
        <ele>200.055794</ele>
        <time>2022-07-23T21:03:08.421Z</time>
      </trkpt>
      <trkpt lat="45.06458" lon="5.33548">
        <ele>200.294132</ele>
        <time>2022-07-23T21:03:14.429Z</time>
      </trkpt>
      <trkpt lat="45.0645" lon="5.33521">
        <ele>200.665457</ele>
        <time>2022-07-23T21:03:21.599Z</time>
      </trkpt>
      <trkpt lat="45.06431" lon="5.33487">
        <ele>201.212538</ele>
        <time>2022-07-23T21:03:34.049Z</time>
      </trkpt>
      <trkpt lat="45.06415" lon="5.33468">
        <ele>201.586254</ele>
        <time>2022-07-23T21:03:43.512Z</time>
      </trkpt>
      <trkpt lat="45.06397" lon="5.3344">
        <ele>202.381623</ele>
        <time>2022-07-23T21:03:55.037Z</time>
      </trkpt>
      <trkpt lat="45.06379" lon="5.33429">
        <ele>203.691803</ele>
        <time>2022-07-23T21:04:04.825Z</time>
      </trkpt>
      <trkpt lat="45.06294" lon="5.33389">
        <ele>209.870803</ele>
        <time>2022-07-23T21:04:59.888Z</time>
      </trkpt>
      <trkpt lat="45.06281" lon="5.33326">
        <ele>213.085667</ele>
        <time>2022-07-23T21:05:35.930Z</time>
      </trkpt>
      <trkpt lat="45.06262" lon="5.33269">
        <ele>217.594329</ele>
        <time>2022-07-23T21:06:15.469Z</time>
      </trkpt>
      <trkpt lat="45.06247" lon="5.33211">
        <ele>222.970487</ele>
        <time>2022-07-23T21:06:55.141Z</time>
      </trkpt>
      <trkpt lat="45.06246" lon="5.33157">
        <ele>227.695402</ele>
        <time>2022-07-23T21:07:31.954Z</time>
      </trkpt>
      <trkpt lat="45.0626" lon="5.33126">
        <ele>230.947271</ele>
        <time>2022-07-23T21:07:58.133Z</time>
      </trkpt>
      <trkpt lat="45.06279" lon="5.33099">
        <ele>234.259004</ele>
        <time>2022-07-23T21:08:25.548Z</time>
      </trkpt>
      <trkpt lat="45.06334" lon="5.33051">
        <ele>241.698111</ele>
        <time>2022-07-23T21:09:28.935Z</time>
      </trkpt>
      <trkpt lat="45.06409" lon="5.33006">
        <ele>250.863603</ele>
        <time>2022-07-23T21:10:40.801Z</time>
      </trkpt>
      <trkpt lat="45.06451" lon="5.33045">
        <ele>256.406815</ele>
        <time>2022-07-23T21:11:14.177Z</time>
      </trkpt>
      <trkpt lat="45.06476" lon="5.3308">
        <ele>259.369393</ele>
        <time>2022-07-23T21:11:37.968Z</time>
      </trkpt>
      <trkpt lat="45.06506" lon="5.33152">
        <ele>264.047981</ele>
        <time>2022-07-23T21:12:14.186Z</time>
      </trkpt>
      <trkpt lat="45.06522" lon="5.3318">
        <ele>266.060519</ele>
        <time>2022-07-23T21:12:28.184Z</time>
      </trkpt>
      <trkpt lat="45.06529" lon="5.33211">
        <ele>267.871552</ele>
        <time>2022-07-23T21:12:40.947Z</time>
      </trkpt>
      <trkpt lat="45.06549" lon="5.3327">
        <ele>271.482563</ele>
        <time>2022-07-23T21:13:06.513Z</time>
      </trkpt>
      <trkpt lat="45.06565" lon="5.33301">
        <ele>273.342487</ele>
        <time>2022-07-23T21:13:21.793Z</time>
      </trkpt>
      <trkpt lat="45.06604" lon="5.33365">
        <ele>277.453123</ele>
        <time>2022-07-23T21:13:55.180Z</time>
      </trkpt>
      <trkpt lat="45.06646" lon="5.33413">
        <ele>281.17456</ele>
        <time>2022-07-23T21:14:25.846Z</time>
      </trkpt>
      <trkpt lat="45.06673" lon="5.33361">
        <ele>283.928459</ele>
        <time>2022-07-23T21:14:48.856Z</time>
      </trkpt>
      <trkpt lat="45.06696" lon="5.33329">
        <ele>285.180516</ele>
        <time>2022-07-23T21:15:04.658Z</time>
      </trkpt>
      <trkpt lat="45.06728" lon="5.3333">
        <ele>286.427285</ele>
        <time>2022-07-23T21:15:23.638Z</time>
      </trkpt>
      <trkpt lat="45.06756" lon="5.33342">
        <ele>287.582377</ele>
        <time>2022-07-23T21:15:39.503Z</time>
      </trkpt>
      <trkpt lat="45.06783" lon="5.33342">
        <ele>288.626306</ele>
        <time>2022-07-23T21:15:51.852Z</time>
      </trkpt>
      <trkpt lat="45.06813" lon="5.33321">
        <ele>289.914534</ele>
        <time>2022-07-23T21:16:05.575Z</time>
      </trkpt>
      <trkpt lat="45.06837" lon="5.33317">
        <ele>290.361371</ele>
        <time>2022-07-23T21:16:14.714Z</time>
      </trkpt>
      <trkpt lat="45.06893" lon="5.33292">
        <ele>289.794933</ele>
        <time>2022-07-23T21:16:33.694Z</time>
      </trkpt>
      <trkpt lat="45.06954" lon="5.33289">
        <ele>289.202635</ele>
        <time>2022-07-23T21:16:51.130Z</time>
      </trkpt>
      <trkpt lat="45.07022" lon="5.33281">
        <ele>288.460345</ele>
        <time>2022-07-23T21:17:08.697Z</time>
      </trkpt>
      <trkpt lat="45.07109" lon="5.33247">
        <ele>287.157318</ele>
        <time>2022-07-23T21:17:33.327Z</time>
      </trkpt>
      <trkpt lat="45.0712" lon="5.33247">
        <ele>286.989517</ele>
        <time>2022-07-23T21:17:36.508Z</time>
      </trkpt>
      <trkpt lat="45.07143" lon="5.33239">
        <ele>286.656279</ele>
        <time>2022-07-23T21:17:43.459Z</time>
      </trkpt>
      <trkpt lat="45.07154" lon="5.33226">
        <ele>286.4485</ele>
        <time>2022-07-23T21:17:47.809Z</time>
      </trkpt>
      <trkpt lat="45.07159" lon="5.33212">
        <ele>286.278187</ele>
        <time>2022-07-23T21:17:51.160Z</time>
      </trkpt>
      <trkpt lat="45.07196" lon="5.33207">
        <ele>286.883115</ele>
        <time>2022-07-23T21:17:59.637Z</time>
      </trkpt>
      <trkpt lat="45.07247" lon="5.33255">
        <ele>288.669846</ele>
        <time>2022-07-23T21:18:19.265Z</time>
      </trkpt>
      <trkpt lat="45.07299" lon="5.33267">
        <ele>290.175414</ele>
        <time>2022-07-23T21:18:40.224Z</time>
      </trkpt>
      <trkpt lat="45.07319" lon="5.33283">
        <ele>290.857337</ele>
        <time>2022-07-23T21:18:51.302Z</time>
      </trkpt>
      <trkpt lat="45.07389" lon="5.3332">
        <ele>293.712884</ele>
        <time>2022-07-23T21:19:23.712Z</time>
      </trkpt>
      <trkpt lat="45.07472" lon="5.33351">
        <ele>297.236523</ele>
        <time>2022-07-23T21:19:58.967Z</time>
      </trkpt>
      <trkpt lat="45.07484" lon="5.33348">
        <ele>297.726596</ele>
        <time>2022-07-23T21:20:03.901Z</time>
      </trkpt>
      <trkpt lat="45.07551" lon="5.33369">
        <ele>299.748407</ele>
        <time>2022-07-23T21:20:36.653Z</time>
      </trkpt>
      <trkpt lat="45.07583" lon="5.33393">
        <ele>300.585953</ele>
        <time>2022-07-23T21:20:51.994Z</time>
      </trkpt>
      <trkpt lat="45.07599" lon="5.3346">
        <ele>301.759465</ele>
        <time>2022-07-23T21:21:12.226Z</time>
      </trkpt>
      <trkpt lat="45.07613" lon="5.33474">
        <ele>302.159823</ele>
        <time>2022-07-23T21:21:19.515Z</time>
      </trkpt>
      <trkpt lat="45.07661" lon="5.33404">
        <ele>304.157359</ele>
        <time>2022-07-23T21:21:47.387Z</time>
      </trkpt>
      <trkpt lat="45.07682" lon="5.33406">
        <ele>304.867552</ele>
        <time>2022-07-23T21:21:55.966Z</time>
      </trkpt>
      <trkpt lat="45.07695" lon="5.33477">
        <ele>306.620619</ele>
        <time>2022-07-23T21:22:19.860Z</time>
      </trkpt>
      <trkpt lat="45.0777" lon="5.33523">
        <ele>309.433022</ele>
        <time>2022-07-23T21:23:05.111Z</time>
      </trkpt>
      <trkpt lat="45.07843" lon="5.33606">
        <ele>313.323312</ele>
        <time>2022-07-23T21:24:02.481Z</time>
      </trkpt>
      <trkpt lat="45.07857" lon="5.3363">
        <ele>314.235513</ele>
        <time>2022-07-23T21:24:17.594Z</time>
      </trkpt>
      <trkpt lat="45.07883" lon="5.33667">
        <ele>315.788509</ele>
        <time>2022-07-23T21:24:34.225Z</time>
      </trkpt>
      <trkpt lat="45.07888" lon="5.33694">
        <ele>316.381566</ele>
        <time>2022-07-23T21:24:39.705Z</time>
      </trkpt>
      <trkpt lat="45.07891" lon="5.33734">
        <ele>315.913764</ele>
        <time>2022-07-23T21:24:48.089Z</time>
      </trkpt>
      <trkpt lat="45.07898" lon="5.33738">
        <ele>315.785414</ele>
        <time>2022-07-23T21:24:50.336Z</time>
      </trkpt>
      <trkpt lat="45.07913" lon="5.33732">
        <ele>315.523766</ele>
        <time>2022-07-23T21:24:55.829Z</time>
      </trkpt>
      <trkpt lat="45.07924" lon="5.33716">
        <ele>315.252152</ele>
        <time>2022-07-23T21:25:00.190Z</time>
      </trkpt>
      <trkpt lat="45.07943" lon="5.33672">
        <ele>314.651563</ele>
        <time>2022-07-23T21:25:10.012Z</time>
      </trkpt>
      <trkpt lat="45.07972" lon="5.33631">
        <ele>313.978319</ele>
        <time>2022-07-23T21:25:20.066Z</time>
      </trkpt>
      <trkpt lat="45.08032" lon="5.33618">
        <ele>314.283109</ele>
        <time>2022-07-23T21:25:29.907Z</time>
      </trkpt>
      <trkpt lat="45.08047" lon="5.3362">
        <ele>314.685009</ele>
        <time>2022-07-23T21:25:32.240Z</time>
      </trkpt>
      <trkpt lat="45.08057" lon="5.33628">
        <ele>314.997367</ele>
        <time>2022-07-23T21:25:34.489Z</time>
      </trkpt>
      <trkpt lat="45.08066" lon="5.33648">
        <ele>315.45272</ele>
        <time>2022-07-23T21:25:37.756Z</time>
      </trkpt>
      <trkpt lat="45.08101" lon="5.33687">
        <ele>316.677818</ele>
        <time>2022-07-23T21:25:51.766Z</time>
      </trkpt>
      <trkpt lat="45.08112" lon="5.33695">
        <ele>317.006981</ele>
        <time>2022-07-23T21:25:59.074Z</time>
      </trkpt>
      <trkpt lat="45.08164" lon="5.33714">
        <ele>318.65846</ele>
        <time>2022-07-23T21:26:32.660Z</time>
      </trkpt>
      <trkpt lat="45.08208" lon="5.33741">
        <ele>322.392186</ele>
        <time>2022-07-23T21:27:03.651Z</time>
      </trkpt>
      <trkpt lat="45.08286" lon="5.33801">
        <ele>329.205373</ele>
        <time>2022-07-23T21:27:58.360Z</time>
      </trkpt>
      <trkpt lat="45.08372" lon="5.3382">
        <ele>334.706398</ele>
        <time>2022-07-23T21:28:42.510Z</time>
      </trkpt>
      <trkpt lat="45.08377" lon="5.33819">
        <ele>334.955138</ele>
        <time>2022-07-23T21:28:44.606Z</time>
      </trkpt>
      <trkpt lat="45.08385" lon="5.33807">
        <ele>335.555065</ele>
        <time>2022-07-23T21:28:49.919Z</time>
      </trkpt>
      <trkpt lat="45.08388" lon="5.3376">
        <ele>337.251439</ele>
        <time>2022-07-23T21:29:03.781Z</time>
      </trkpt>
      <trkpt lat="45.0838" lon="5.33715">
        <ele>338.913011</ele>
        <time>2022-07-23T21:29:16.852Z</time>
      </trkpt>
      <trkpt lat="45.08425" lon="5.33661">
        <ele>341.97576</ele>
        <time>2022-07-23T21:29:42.472Z</time>
      </trkpt>
      <trkpt lat="45.08443" lon="5.33641">
        <ele>343.209133</ele>
        <time>2022-07-23T21:29:52.873Z</time>
      </trkpt>
      <trkpt lat="45.08447" lon="5.33621">
        <ele>343.967103</ele>
        <time>2022-07-23T21:29:59.082Z</time>
      </trkpt>
      <trkpt lat="45.08506" lon="5.33584">
        <ele>347.447318</ele>
        <time>2022-07-23T21:30:28.176Z</time>
      </trkpt>
      <trkpt lat="45.08527" lon="5.33575">
        <ele>348.662977</ele>
        <time>2022-07-23T21:30:38.101Z</time>
      </trkpt>
      <trkpt lat="45.08544" lon="5.33572">
        <ele>349.565587</ele>
        <time>2022-07-23T21:30:45.236Z</time>
      </trkpt>
      <trkpt lat="45.08564" lon="5.33577">
        <ele>350.657809</ele>
        <time>2022-07-23T21:30:57.596Z</time>
      </trkpt>
      <trkpt lat="45.08582" lon="5.33587">
        <ele>351.783642</ele>
        <time>2022-07-23T21:31:05.638Z</time>
      </trkpt>
      <trkpt lat="45.08605" lon="5.33624">
        <ele>353.847128</ele>
        <time>2022-07-23T21:31:23.731Z</time>
      </trkpt>
      <trkpt lat="45.0861" lon="5.33647">
        <ele>354.860583</ele>
        <time>2022-07-23T21:31:34.662Z</time>
      </trkpt>
      <trkpt lat="45.08614" lon="5.33683">
        <ele>356.374506</ele>
        <time>2022-07-23T21:31:47.357Z</time>
      </trkpt>
      <trkpt lat="45.08611" lon="5.33696">
        <ele>356.92207</ele>
        <time>2022-07-23T21:31:52.611Z</time>
      </trkpt>
      <trkpt lat="45.08599" lon="5.33721">
        <ele>358.212529</ele>
        <time>2022-07-23T21:32:01.261Z</time>
      </trkpt>
      <trkpt lat="45.08598" lon="5.33729">
        <ele>358.538546</ele>
        <time>2022-07-23T21:32:05.601Z</time>
      </trkpt>
      <trkpt lat="45.08604" lon="5.33746">
        <ele>359.319315</ele>
        <time>2022-07-23T21:32:12.014Z</time>
      </trkpt>
      <trkpt lat="45.08616" lon="5.33759">
        <ele>360.244673</ele>
        <time>2022-07-23T21:32:16.621Z</time>
      </trkpt>
      <trkpt lat="45.08617" lon="5.33774">
        <ele>360.848336</ele>
        <time>2022-07-23T21:32:22.836Z</time>
      </trkpt>
      <trkpt lat="45.0861" lon="5.33798">
        <ele>361.954481</ele>
        <time>2022-07-23T21:32:30.032Z</time>
      </trkpt>
      <trkpt lat="45.08611" lon="5.33815">
        <ele>362.647998</ele>
        <time>2022-07-23T21:32:34.362Z</time>
      </trkpt>
      <trkpt lat="45.08633" lon="5.33858">
        <ele>364.874965</ele>
        <time>2022-07-23T21:32:52.373Z</time>
      </trkpt>
      <trkpt lat="45.08637" lon="5.33863">
        <ele>365.188574</ele>
        <time>2022-07-23T21:32:55.909Z</time>
      </trkpt>
      <trkpt lat="45.08634" lon="5.33877">
        <ele>365.772265</ele>
        <time>2022-07-23T21:33:01.392Z</time>
      </trkpt>
      <trkpt lat="45.08627" lon="5.33899">
        <ele>366.800091</ele>
        <time>2022-07-23T21:33:08.472Z</time>
      </trkpt>
      <trkpt lat="45.08617" lon="5.33897">
        <ele>367.412863</ele>
        <time>2022-07-23T21:33:16.574Z</time>
      </trkpt>
      <trkpt lat="45.086" lon="5.33892">
        <ele>368.453386</ele>
        <time>2022-07-23T21:33:26.603Z</time>
      </trkpt>
      <trkpt lat="45.08596" lon="5.33905">
        <ele>369.056739</ele>
        <time>2022-07-23T21:33:31.154Z</time>
      </trkpt>
      <trkpt lat="45.08589" lon="5.33944">
        <ele>370.750815</ele>
        <time>2022-07-23T21:33:45.710Z</time>
      </trkpt>
      <trkpt lat="45.08583" lon="5.33957">
        <ele>371.40208</ele>
        <time>2022-07-23T21:33:50.798Z</time>
      </trkpt>
      <trkpt lat="45.08586" lon="5.33961">
        <ele>371.648335</ele>
        <time>2022-07-23T21:33:53.132Z</time>
      </trkpt>
      <trkpt lat="45.08587" lon="5.33968">
        <ele>371.96839</ele>
        <time>2022-07-23T21:33:55.950Z</time>
      </trkpt>
      <trkpt lat="45.08583" lon="5.34003">
        <ele>372.76527</ele>
        <time>2022-07-23T21:34:06.834Z</time>
      </trkpt>
      <trkpt lat="45.08585" lon="5.3403">
        <ele>373.108515</ele>
        <time>2022-07-23T21:34:14.755Z</time>
      </trkpt>
      <trkpt lat="45.08601" lon="5.34051">
        <ele>373.489014</ele>
        <time>2022-07-23T21:34:22.079Z</time>
      </trkpt>
      <trkpt lat="45.08614" lon="5.3406">
        <ele>373.751192</ele>
        <time>2022-07-23T21:34:28.994Z</time>
      </trkpt>
      <trkpt lat="45.08629" lon="5.34076">
        <ele>374.078215</ele>
        <time>2022-07-23T21:34:35.726Z</time>
      </trkpt>
      <trkpt lat="45.0866" lon="5.34121">
        <ele>374.850004</ele>
        <time>2022-07-23T21:34:53.284Z</time>
      </trkpt>
      <trkpt lat="45.08724" lon="5.34187">
        <ele>373.298732</ele>
        <time>2022-07-23T21:35:16.912Z</time>
      </trkpt>
      <trkpt lat="45.08744" lon="5.34197">
        <ele>371.915192</ele>
        <time>2022-07-23T21:35:22.089Z</time>
      </trkpt>
      <trkpt lat="45.08803" lon="5.34187">
        <ele>367.931755</ele>
        <time>2022-07-23T21:35:35.366Z</time>
      </trkpt>
      <trkpt lat="45.08844" lon="5.34194">
        <ele>365.149115</ele>
        <time>2022-07-23T21:35:44.265Z</time>
      </trkpt>
      <trkpt lat="45.08851" lon="5.34193">
        <ele>364.686396</ele>
        <time>2022-07-23T21:35:45.727Z</time>
      </trkpt>
      <trkpt lat="45.08874" lon="5.34165">
        <ele>362.538926</ele>
        <time>2022-07-23T21:35:52.138Z</time>
      </trkpt>
      <trkpt lat="45.08881" lon="5.34144">
        <ele>361.27041</ele>
        <time>2022-07-23T21:35:55.651Z</time>
      </trkpt>
      <trkpt lat="45.08882" lon="5.34121">
        <ele>359.992636</ele>
        <time>2022-07-23T21:35:59.307Z</time>
      </trkpt>
      <trkpt lat="45.08881" lon="5.34097">
        <ele>358.670644</ele>
        <time>2022-07-23T21:36:03.015Z</time>
      </trkpt>
      <trkpt lat="45.08872" lon="5.34078">
        <ele>357.437587</ele>
        <time>2022-07-23T21:36:06.547Z</time>
      </trkpt>
      <trkpt lat="45.0887" lon="5.3406">
        <ele>356.458624</ele>
        <time>2022-07-23T21:36:09.424Z</time>
      </trkpt>
      <trkpt lat="45.0888" lon="5.34024">
        <ele>354.337911</ele>
        <time>2022-07-23T21:36:15.634Z</time>
      </trkpt>
      <trkpt lat="45.08868" lon="5.33975">
        <ele>351.50541</ele>
        <time>2022-07-23T21:36:23.965Z</time>
      </trkpt>
      <trkpt lat="45.08867" lon="5.33958">
        <ele>350.566915</ele>
        <time>2022-07-23T21:36:26.704Z</time>
      </trkpt>
      <trkpt lat="45.08874" lon="5.33937">
        <ele>349.6643</ele>
        <time>2022-07-23T21:36:30.614Z</time>
      </trkpt>
      <trkpt lat="45.08893" lon="5.33899">
        <ele>349.387391</ele>
        <time>2022-07-23T21:36:38.293Z</time>
      </trkpt>
      <trkpt lat="45.089" lon="5.33851">
        <ele>349.089029</ele>
        <time>2022-07-23T21:36:48.895Z</time>
      </trkpt>
      <trkpt lat="45.08905" lon="5.33833">
        <ele>348.975444</ele>
        <time>2022-07-23T21:36:53.587Z</time>
      </trkpt>
      <trkpt lat="45.08944" lon="5.33742">
        <ele>348.333105</ele>
        <time>2022-07-23T21:37:22.927Z</time>
      </trkpt>
      <trkpt lat="45.08963" lon="5.33708">
        <ele>348.402349</ele>
        <time>2022-07-23T21:37:35.083Z</time>
      </trkpt>
      <trkpt lat="45.08971" lon="5.33658">
        <ele>349.040994</ele>
        <time>2022-07-23T21:37:49.648Z</time>
      </trkpt>
      <trkpt lat="45.08975" lon="5.33651">
        <ele>349.151548</ele>
        <time>2022-07-23T21:37:52.160Z</time>
      </trkpt>
      <trkpt lat="45.0898" lon="5.33647">
        <ele>349.253232</ele>
        <time>2022-07-23T21:37:54.631Z</time>
      </trkpt>
      <trkpt lat="45.08989" lon="5.33647">
        <ele>349.420061</ele>
        <time>2022-07-23T21:37:58.590Z</time>
      </trkpt>
      <trkpt lat="45.09004" lon="5.33652">
        <ele>349.688947</ele>
        <time>2022-07-23T21:38:04.659Z</time>
      </trkpt>
      <trkpt lat="45.09058" lon="5.33717">
        <ele>350.947054</ele>
        <time>2022-07-23T21:38:33.531Z</time>
      </trkpt>
      <trkpt lat="45.09068" lon="5.33723">
        <ele>351.137877</ele>
        <time>2022-07-23T21:38:37.835Z</time>
      </trkpt>
      <trkpt lat="45.09073" lon="5.33723">
        <ele>351.235511</ele>
        <time>2022-07-23T21:38:39.830Z</time>
      </trkpt>
      <trkpt lat="45.09079" lon="5.33719">
        <ele>351.341498</ele>
        <time>2022-07-23T21:38:42.230Z</time>
      </trkpt>
      <trkpt lat="45.09086" lon="5.33695">
        <ele>351.833636</ele>
        <time>2022-07-23T21:38:49.078Z</time>
      </trkpt>
      <trkpt lat="45.09123" lon="5.33639">
        <ele>353.307206</ele>
        <time>2022-07-23T21:39:13.957Z</time>
      </trkpt>
      <trkpt lat="45.0914" lon="5.33629">
        <ele>353.807378</ele>
        <time>2022-07-23T21:39:22.241Z</time>
      </trkpt>
      <trkpt lat="45.09157" lon="5.33637">
        <ele>354.299545</ele>
        <time>2022-07-23T21:39:31.390Z</time>
      </trkpt>
      <trkpt lat="45.09206" lon="5.33677">
        <ele>355.843253</ele>
        <time>2022-07-23T21:39:57.548Z</time>
      </trkpt>
      <trkpt lat="45.09249" lon="5.33703">
        <ele>357.07333</ele>
        <time>2022-07-23T21:40:19.939Z</time>
      </trkpt>
      <trkpt lat="45.09286" lon="5.33714">
        <ele>358.044045</ele>
        <time>2022-07-23T21:40:37.365Z</time>
      </trkpt>
      <trkpt lat="45.09332" lon="5.33748">
        <ele>359.384921</ele>
        <time>2022-07-23T21:41:00.428Z</time>
      </trkpt>
      <trkpt lat="45.09367" lon="5.33756">
        <ele>360.307354</ele>
        <time>2022-07-23T21:41:16.768Z</time>
      </trkpt>
      <trkpt lat="45.09417" lon="5.33789">
        <ele>361.696284</ele>
        <time>2022-07-23T21:41:38.520Z</time>
      </trkpt>
      <trkpt lat="45.09417" lon="5.33789">
        <ele>361.696284</ele>
        <time>2022-07-23T21:41:38.543Z</time>
      </trkpt>
      <trkpt lat="45.09417" lon="5.33789">
        <ele>361.698034</ele>
        <time>2022-07-23T21:41:38.574Z</time>
      </trkpt>
      <trkpt lat="45.09481" lon="5.3381">
        <ele>363.3348</ele>
        <time>2022-07-23T21:42:06.820Z</time>
      </trkpt>
      <trkpt lat="45.09521" lon="5.33776">
        <ele>364.488598</ele>
        <time>2022-07-23T21:42:27.643Z</time>
      </trkpt>
      <trkpt lat="45.09624" lon="5.33705">
        <ele>368.300117</ele>
        <time>2022-07-23T21:43:28.994Z</time>
      </trkpt>
      <trkpt lat="45.09677" lon="5.33711">
        <ele>370.278285</ele>
        <time>2022-07-23T21:43:56.461Z</time>
      </trkpt>
      <trkpt lat="45.09681" lon="5.3368">
        <ele>371.10533</ele>
        <time>2022-07-23T21:44:04.661Z</time>
      </trkpt>
      <trkpt lat="45.09696" lon="5.33631">
        <ele>371.6922</ele>
        <time>2022-07-23T21:44:18.225Z</time>
      </trkpt>
      <trkpt lat="45.09695" lon="5.33623">
        <ele>371.480543</ele>
        <time>2022-07-23T21:44:20.520Z</time>
      </trkpt>
      <trkpt lat="45.09653" lon="5.33575">
        <ele>369.657384</ele>
        <time>2022-07-23T21:44:37.785Z</time>
      </trkpt>
      <trkpt lat="45.09657" lon="5.33562">
        <ele>369.309336</ele>
        <time>2022-07-23T21:44:39.155Z</time>
      </trkpt>
      <trkpt lat="45.0967" lon="5.33556">
        <ele>368.866447</ele>
        <time>2022-07-23T21:44:41.379Z</time>
      </trkpt>
      <trkpt lat="45.097" lon="5.33554">
        <ele>367.81875</ele>
        <time>2022-07-23T21:44:45.612Z</time>
      </trkpt>
      <trkpt lat="45.09724" lon="5.33556">
        <ele>367.018313</ele>
        <time>2022-07-23T21:44:48.947Z</time>
      </trkpt>
      <trkpt lat="45.09732" lon="5.33554">
        <ele>366.730993</ele>
        <time>2022-07-23T21:44:49.963Z</time>
      </trkpt>
      <trkpt lat="45.09761" lon="5.33529">
        <ele>364.570669</ele>
        <time>2022-07-23T21:44:54.242Z</time>
      </trkpt>
      <trkpt lat="45.09788" lon="5.33528">
        <ele>361.35646</ele>
        <time>2022-07-23T21:44:57.779Z</time>
      </trkpt>
      <trkpt lat="45.09795" lon="5.33519">
        <ele>360.159718</ele>
        <time>2022-07-23T21:44:58.930Z</time>
      </trkpt>
      <trkpt lat="45.09816" lon="5.33525">
        <ele>357.507483</ele>
        <time>2022-07-23T21:45:01.837Z</time>
      </trkpt>
      <trkpt lat="45.09831" lon="5.33517">
        <ele>355.599334</ele>
        <time>2022-07-23T21:45:04.900Z</time>
      </trkpt>
      <trkpt lat="45.09844" lon="5.33506">
        <ele>353.712239</ele>
        <time>2022-07-23T21:45:08.443Z</time>
      </trkpt>
      <trkpt lat="45.09852" lon="5.33495">
        <ele>352.366703</ele>
        <time>2022-07-23T21:45:10.761Z</time>
      </trkpt>
      <trkpt lat="45.09867" lon="5.33454">
        <ele>348.400189</ele>
        <time>2022-07-23T21:45:17.487Z</time>
      </trkpt>
      <trkpt lat="45.09877" lon="5.33438">
        <ele>346.527027</ele>
        <time>2022-07-23T21:45:20.449Z</time>
      </trkpt>
      <trkpt lat="45.09898" lon="5.33416">
        <ele>343.436515</ele>
        <time>2022-07-23T21:45:25.913Z</time>
      </trkpt>
      <trkpt lat="45.09903" lon="5.33412">
        <ele>342.716245</ele>
        <time>2022-07-23T21:45:27.173Z</time>
      </trkpt>
      <trkpt lat="45.0994" lon="5.33404">
        <ele>338.491676</ele>
        <time>2022-07-23T21:45:34.946Z</time>
      </trkpt>
      <trkpt lat="45.09958" lon="5.33386">
        <ele>336.038203</ele>
        <time>2022-07-23T21:45:39.794Z</time>
      </trkpt>
      <trkpt lat="45.09986" lon="5.3337">
        <ele>332.629466</ele>
        <time>2022-07-23T21:45:46.216Z</time>
      </trkpt>
      <trkpt lat="45.10009" lon="5.33338">
        <ele>328.921365</ele>
        <time>2022-07-23T21:45:53.087Z</time>
      </trkpt>
      <trkpt lat="45.10022" lon="5.33324">
        <ele>327.059369</ele>
        <time>2022-07-23T21:45:56.647Z</time>
      </trkpt>
      <trkpt lat="45.10023" lon="5.33317">
        <ele>326.511635</ele>
        <time>2022-07-23T21:45:57.643Z</time>
      </trkpt>
      <trkpt lat="45.10012" lon="5.33301">
        <ele>324.755794</ele>
        <time>2022-07-23T21:46:01.007Z</time>
      </trkpt>
      <trkpt lat="45.10008" lon="5.33283">
        <ele>323.222448</ele>
        <time>2022-07-23T21:46:04.023Z</time>
      </trkpt>
      <trkpt lat="45.10013" lon="5.33258">
        <ele>321.364304</ele>
        <time>2022-07-23T21:46:07.995Z</time>
      </trkpt>
      <trkpt lat="45.10029" lon="5.33219">
        <ele>318.219543</ele>
        <time>2022-07-23T21:46:14.694Z</time>
      </trkpt>
      <trkpt lat="45.10035" lon="5.33192">
        <ele>316.216662</ele>
        <time>2022-07-23T21:46:18.990Z</time>
      </trkpt>
      <trkpt lat="45.10032" lon="5.33133">
        <ele>312.012473</ele>
        <time>2022-07-23T21:46:27.898Z</time>
      </trkpt>
      <trkpt lat="45.10022" lon="5.33097">
        <ele>309.295054</ele>
        <time>2022-07-23T21:46:33.803Z</time>
      </trkpt>
      <trkpt lat="45.10023" lon="5.3299">
        <ele>302.3658</ele>
        <time>2022-07-23T21:46:50.319Z</time>
      </trkpt>
      <trkpt lat="45.10033" lon="5.32985">
        <ele>301.509927</ele>
        <time>2022-07-23T21:46:52.497Z</time>
      </trkpt>
      <trkpt lat="45.10064" lon="5.32981">
        <ele>298.912125</ele>
        <time>2022-07-23T21:46:59.230Z</time>
      </trkpt>
      <trkpt lat="45.10097" lon="5.32991">
        <ele>296.115389</ele>
        <time>2022-07-23T21:47:06.749Z</time>
      </trkpt>
      <trkpt lat="45.10109" lon="5.33008">
        <ele>294.715535</ele>
        <time>2022-07-23T21:47:10.525Z</time>
      </trkpt>
      <trkpt lat="45.10149" lon="5.33043">
        <ele>290.769912</ele>
        <time>2022-07-23T21:47:21.296Z</time>
      </trkpt>
      <trkpt lat="45.10182" lon="5.33059">
        <ele>288.279435</ele>
        <time>2022-07-23T21:47:29.353Z</time>
      </trkpt>
      <trkpt lat="45.10205" lon="5.33092">
        <ele>285.990139</ele>
        <time>2022-07-23T21:47:36.921Z</time>
      </trkpt>
      <trkpt lat="45.10209" lon="5.33108">
        <ele>285.134373</ele>
        <time>2022-07-23T21:47:39.720Z</time>
      </trkpt>
      <trkpt lat="45.10223" lon="5.33131">
        <ele>283.634084</ele>
        <time>2022-07-23T21:47:44.640Z</time>
      </trkpt>
      <trkpt lat="45.1023" lon="5.33135">
        <ele>283.04058</ele>
        <time>2022-07-23T21:47:46.599Z</time>
      </trkpt>
      <trkpt lat="45.1026" lon="5.33127">
        <ele>280.881642</ele>
        <time>2022-07-23T21:47:53.501Z</time>
      </trkpt>
      <trkpt lat="45.10301" lon="5.33142">
        <ele>277.881005</ele>
        <time>2022-07-23T21:48:02.763Z</time>
      </trkpt>
      <trkpt lat="45.10337" lon="5.3316">
        <ele>275.182384</ele>
        <time>2022-07-23T21:48:11.036Z</time>
      </trkpt>
      <trkpt lat="45.10379" lon="5.33193">
        <ele>271.720468</ele>
        <time>2022-07-23T21:48:21.982Z</time>
      </trkpt>
      <trkpt lat="45.10401" lon="5.33183">
        <ele>270.073598</ele>
        <time>2022-07-23T21:48:27.159Z</time>
      </trkpt>
      <trkpt lat="45.10437" lon="5.33094">
        <ele>264.966652</ele>
        <time>2022-07-23T21:48:43.869Z</time>
      </trkpt>
      <trkpt lat="45.10557" lon="5.33195">
        <ele>259.644668</ele>
        <time>2022-07-23T21:49:04.013Z</time>
      </trkpt>
      <trkpt lat="45.10689" lon="5.33229">
        <ele>258.551138</ele>
        <time>2022-07-23T21:49:29.909Z</time>
      </trkpt>
      <trkpt lat="45.10792" lon="5.3327">
        <ele>259.258689</ele>
        <time>2022-07-23T21:49:59.114Z</time>
      </trkpt>
      <trkpt lat="45.10802" lon="5.33287">
        <ele>259.548508</ele>
        <time>2022-07-23T21:50:03.936Z</time>
      </trkpt>
      <trkpt lat="45.10835" lon="5.33321">
        <ele>260.273642</ele>
        <time>2022-07-23T21:50:15.264Z</time>
      </trkpt>
      <trkpt lat="45.10897" lon="5.33388">
        <ele>261.674453</ele>
        <time>2022-07-23T21:50:37.403Z</time>
      </trkpt>
      <trkpt lat="45.10987" lon="5.33438">
        <ele>262.34031</ele>
        <time>2022-07-23T21:51:06.908Z</time>
      </trkpt>
      <trkpt lat="45.11076" lon="5.33461">
        <ele>262.659922</ele>
        <time>2022-07-23T21:51:23.322Z</time>
      </trkpt>
      <trkpt lat="45.11085" lon="5.33466">
        <ele>262.69345</ele>
        <time>2022-07-23T21:51:25.422Z</time>
      </trkpt>
      <trkpt lat="45.11113" lon="5.33512">
        <ele>262.08505</ele>
        <time>2022-07-23T21:51:33.485Z</time>
      </trkpt>
      <trkpt lat="45.11117" lon="5.33514">
        <ele>262.007219</ele>
        <time>2022-07-23T21:51:34.517Z</time>
      </trkpt>
      <trkpt lat="45.11125" lon="5.33516">
        <ele>261.870391</ele>
        <time>2022-07-23T21:51:35.662Z</time>
      </trkpt>
      <trkpt lat="45.11164" lon="5.33501">
        <ele>261.196233</ele>
        <time>2022-07-23T21:51:42.922Z</time>
      </trkpt>
      <trkpt lat="45.11186" lon="5.33503">
        <ele>260.822903</ele>
        <time>2022-07-23T21:51:47.669Z</time>
      </trkpt>
      <trkpt lat="45.11233" lon="5.33545">
        <ele>259.882082</ele>
        <time>2022-07-23T21:51:56.227Z</time>
      </trkpt>
      <trkpt lat="45.11247" lon="5.33549">
        <ele>259.596997</ele>
        <time>2022-07-23T21:51:58.535Z</time>
      </trkpt>
      <trkpt lat="45.1132" lon="5.33551">
        <ele>256.698562</ele>
        <time>2022-07-23T21:52:09.568Z</time>
      </trkpt>
      <trkpt lat="45.11335" lon="5.33505">
        <ele>255.294268</ele>
        <time>2022-07-23T21:52:14.979Z</time>
      </trkpt>
      <trkpt lat="45.11346" lon="5.33453">
        <ele>253.795395</ele>
        <time>2022-07-23T21:52:20.485Z</time>
      </trkpt>
      <trkpt lat="45.11352" lon="5.33407">
        <ele>252.487429</ele>
        <time>2022-07-23T21:52:25.152Z</time>
      </trkpt>
      <trkpt lat="45.11352" lon="5.33354">
        <ele>250.85111</ele>
        <time>2022-07-23T21:52:30.432Z</time>
      </trkpt>
      <trkpt lat="45.11354" lon="5.33307">
        <ele>249.393245</ele>
        <time>2022-07-23T21:52:35.101Z</time>
      </trkpt>
      <trkpt lat="45.11366" lon="5.33251">
        <ele>247.61684</ele>
        <time>2022-07-23T21:52:40.912Z</time>
      </trkpt>
      <trkpt lat="45.11401" lon="5.33122">
        <ele>244.631091</ele>
        <time>2022-07-23T21:52:55.922Z</time>
      </trkpt>
      <trkpt lat="45.11417" lon="5.33083">
        <ele>244.474648</ele>
        <time>2022-07-23T21:53:01.188Z</time>
      </trkpt>
    </trkseg>
  </trk>
</gpx>